[[[{"header":{"parameterUnit":"kt","parameterCategory":2,"dx":1,"dy":1,"la1":29.285339999999998,"la2":30.599998999999997,"lo1":-89.70041500000002,"lo2":-87.6738589999976,"nx":112,"ny":82,"refTime":"2022-09-17T18:00:00:Z","depth":0,"parameterNumber":1,"parameterNumberName":"U-component_of_WINDS"},"data":[4.7097,4.7382,4.7184,4.7524,4.7307,4.7081,4.7507,4.711,4.6643,4.6643,4.5708,4.4944,4.5178,4.4681,4.4435,4.4668,4.4711,4.4711,0.0,4.4711,4.4711,4.4711,4.4711,4.5326,4.6919,4.7407,4.8235,4.9721,5.0167,5.0337,5.0337,5.0337,5.0337,5.0337,5.0337,5.0337,5.0337,5.0337,5.0337,5.0337,5.0337,5.0337,5.0337,5.0337,5.0337,5.0337,5.0337,5.0337,5.0337,5.0337,5.0337,5.0337,5.0337,5.0337,5.0337,5.0337,5.0337,5.0337,5.0337,5.0337,5.0337,5.0337,5.0337,5.0337,5.0337,5.0337,5.0337,5.0337,5.0337,5.0337,5.0337,5.0337,5.0337,5.0337,5.0337,5.0337,5.0337,5.0337,5.0337,5.0337,5.001,4.9417,4.8656,4.7018,4.4941,4.2222,4.0064,3.8936,3.9449,3.8936,3.8245,3.7639,3.8172,3.8245,3.7639,3.694,3.6508,3.6508,3.6508,3.6508,3.6508,3.6508,3.6508,3.6508,3.6508,3.6508,3.6508,3.6508,3.6508,3.6508,3.6508,3.6508,4.6577,4.6717,4.6291,4.6598,4.6375,4.6066,4.6534,4.6112,4.5571,4.5571,4.4689,4.401,4.4604,4.4244,4.3925,4.4222,4.452,4.4604,0.0,4.452,4.4711,4.4711,4.4987,4.5815,4.7449,4.7874,4.8702,5.023,5.0337,5.0337,5.0337,5.0337,5.0337,5.0337,5.0337,5.0337,5.0337,5.0337,5.0337,5.0337,5.0337,5.0337,5.0337,5.0337,5.0337,5.0337,5.0337,5.0337,5.0337,5.0337,5.0337,5.0337,5.0337,5.0337,5.0337,5.0337,5.0337,5.0337,5.0337,5.0337,5.0337,5.0337,5.0337,5.0337,5.0337,5.0337,5.0337,5.0337,5.0337,5.0337,5.0337,5.0337,5.0337,5.0337,5.0337,5.0337,5.0337,5.001,4.9662,4.9662,4.8923,4.8077,4.7538,4.6077,4.3836,4.0431,3.7994,3.6761,3.746,3.694,3.6508,3.6508,3.6508,3.6508,3.6508,3.6508,3.6508,3.6508,3.6508,3.6508,3.6508,3.6508,3.6508,3.6508,3.6508,3.6508,3.6508,3.6508,3.6508,3.6508,3.6508,3.6508,4.5258,4.5949,4.5428,4.4911,4.5117,4.5316,4.485,4.4711,4.4711,4.4711,4.4689,4.4668,4.4711,4.4689,4.4392,4.3564,4.4159,0.0,0.0,4.4159,4.4732,4.4753,4.5486,4.6536,4.7555,4.8426,4.9318,5.0273,5.0337,5.0337,5.0337,5.0337,5.0337,5.0337,5.0337,5.0337,5.0337,5.0337,5.0337,5.0337,5.0337,5.0337,5.0337,5.0337,5.0337,5.0337,5.0337,5.0337,5.0337,5.0337,5.0337,5.0337,5.0337,5.0337,5.0337,5.0337,5.0337,5.0337,5.0337,5.0337,5.0337,5.0337,5.0337,5.0337,5.0337,5.0337,5.0337,5.0337,5.0337,5.0337,5.0337,5.0337,5.0255,5.0255,5.0255,5.0174,5.0174,4.9253,4.8325,4.8325,4.6155,4.4032,4.3016,4.198,4.1825,4.3187,3.9465,3.7208,3.9113,3.7728,3.6508,3.6508,3.6508,3.6508,3.6508,3.6508,3.6508,3.6508,3.6508,3.6508,3.6508,3.6508,3.6508,3.6508,3.6508,3.6508,3.6508,3.6508,3.6508,3.6508,3.6508,3.6508,4.1514,4.2301,4.288,4.3009,4.3776,4.4518,4.4702,4.4711,4.4711,4.4711,4.4201,0.0,0.0,0.0,4.3883,4.4286,0.0,4.4626,4.4371,4.4562,4.4965,4.5645,4.5889,4.677,4.8405,4.8866,4.9318,5.0273,5.0337,5.0337,5.0337,5.0337,5.0337,5.0337,5.0337,5.0337,5.0337,5.0337,5.0337,5.0337,5.0337,5.0337,5.0337,5.0337,5.0337,5.0337,5.0337,5.0337,5.0337,5.0337,5.0337,5.0337,5.0337,5.0337,5.0337,5.0337,5.0337,5.0337,5.0337,5.0337,5.0337,5.0337,5.0337,5.0337,5.0337,5.0337,5.0337,5.0337,5.0337,5.0337,5.0337,4.9683,4.8923,4.8923,4.8139,4.7371,4.7371,4.7101,4.6851,4.6851,4.6284,4.5525,4.497,4.2207,4.0131,4.0553,3.8261,3.6777,3.7298,3.6851,3.6508,3.6508,3.6508,3.6508,3.6508,3.6508,3.6508,3.6508,3.6508,3.6508,3.6508,3.6508,3.6508,3.6508,3.6508,3.6508,3.6508,3.6508,3.6508,3.6508,3.6508,3.6508,3.9284,3.9996,4.07,4.1541,4.2637,4.362,4.4493,4.4711,4.4711,4.4711,0.0,0.0,0.0,0.0,0.0,0.0,4.4477,4.4583,4.4201,4.4477,4.505,4.5931,4.6494,4.7322,4.8866,4.9376,4.9763,5.0315,5.0337,5.0337,5.0337,5.0337,5.0337,5.0337,5.0337,5.0337,5.0337,5.0337,5.0337,5.0337,5.0337,5.0337,5.0337,5.0337,5.0337,5.0337,5.0337,5.0337,5.0337,5.0337,5.0337,5.0273,4.9509,4.919,4.919,4.919,4.919,4.919,4.919,4.919,4.919,4.919,4.919,4.919,4.919,4.919,4.919,4.919,4.919,4.919,4.919,4.8611,4.8133,4.8587,4.755,4.6643,4.7022,4.6284,4.5441,4.5441,4.4932,4.4197,4.2954,4.0396,3.8442,3.8011,3.6693,3.5733,3.5733,3.5995,3.6165,3.6165,3.6428,3.6508,3.6508,3.6508,3.6508,3.6508,3.6508,3.6508,3.6508,3.6508,3.6508,3.6508,3.6508,3.6508,3.6508,3.6508,3.6304,3.5733,3.5733,3.5733,3.769,3.8216,3.8671,4.0184,4.1345,4.2424,4.3818,0.0,4.4255,4.4182,0.0,4.4327,4.4493,0.0,0.0,4.36,4.4201,4.4435,4.3649,4.4248,4.5148,4.6024,4.7139,4.8107,4.9078,4.9848,5.0337,5.0337,5.0337,5.0337,5.0337,5.0337,5.0337,5.0337,5.0252,5.0188,5.0188,5.0082,5.0039,5.0039,5.0039,5.0039,5.0039,5.0039,5.0039,5.0039,5.0039,5.0039,5.0039,5.0039,5.0039,4.987,4.8235,4.7598,4.7598,4.7598,4.7598,4.7598,4.7598,4.7598,4.7598,4.7598,4.7598,4.7598,4.7444,4.729,4.7191,4.7191,4.7191,4.7191,4.7191,4.7114,4.7148,4.8023,4.7115,4.6333,4.7241,4.5527,4.3791,4.3791,4.2748,4.1188,3.9047,3.7912,3.7014,3.6077,3.522,3.4628,3.4628,3.5069,3.5455,3.5455,3.5995,3.6366,3.6366,3.6366,3.6366,3.6366,3.6366,3.6366,3.6366,3.6366,3.6366,3.6366,3.6366,3.6366,3.6366,3.6366,3.5733,3.4628,3.4628,3.4628,3.3569,3.4927,3.6428,3.7448,3.9033,4.039,0.0,0.0,0.0,4.0914,4.14,4.2202,4.3107,4.3327,4.3558,4.4333,4.4604,4.4647,4.4477,4.5005,4.5661,4.6622,4.7881,4.9121,4.9976,5.0252,5.0337,5.0337,5.0337,5.0337,5.0337,5.0337,5.0337,5.0337,4.9594,4.919,4.919,4.849,4.8129,4.8129,4.8129,4.8129,4.8129,4.8129,4.8129,4.8129,4.8129,4.8129,4.8129,4.8129,4.8129,4.8107,4.7747,4.7598,4.7598,4.7598,4.7598,4.7598,4.7598,4.7598,4.7598,4.7598,4.7598,4.7444,4.6354,4.5398,4.4632,4.4632,4.4632,4.4632,4.4632,4.3841,4.3083,4.3317,4.2207,4.1269,4.1434,4.106,4.0666,4.0666,4.0501,3.9898,3.8856,3.7912,3.7014,3.6077,3.522,3.4628,3.4628,3.4752,3.483,3.483,3.4853,3.493,3.493,3.493,3.493,3.493,3.493,3.493,3.493,3.493,3.493,3.493,3.493,3.493,3.493,3.493,3.4892,3.4628,3.4628,3.4628,3.2104,3.3267,3.5079,3.654,3.7984,0.0,0.0,4.0878,4.0972,4.0014,4.0559,4.129,4.14,4.1811,4.2417,4.3402,4.3538,4.3701,4.4053,4.4746,4.557,4.6696,4.7933,4.916,5.0213,5.0337,5.0337,5.0337,4.9912,4.9445,4.8999,4.8978,4.8978,4.8978,4.8511,4.8277,4.8277,4.7831,4.7598,4.7598,4.7598,4.7598,4.7598,4.7598,4.7598,4.7598,4.7598,4.7598,4.7598,4.7598,4.7025,4.6154,4.6154,4.6154,4.608,4.548,4.5255,4.5179,4.463,4.4382,4.4382,4.4382,4.4382,4.4306,4.3658,4.3046,4.2605,4.2605,4.2605,4.2605,4.2605,4.2065,4.1696,4.2137,4.1204,4.0258,4.0777,4.038,3.989,3.989,3.9248,3.8457,3.7694,3.673,3.5841,3.5029,3.4114,3.354,3.354,3.3849,3.4149,3.4149,3.4443,3.4628,3.4628,3.4628,3.4628,3.4628,3.4628,3.4628,3.4628,3.4628,3.4628,3.4628,3.4628,3.4628,3.4628,3.3864,3.354,3.354,3.354,3.354,3.161,3.2543,3.4102,3.6058,3.7193,0.0,3.9619,4.0166,3.9996,3.8881,3.9354,3.9902,3.9562,4.0242,4.1156,4.22,4.253,4.2764,4.321,4.4102,4.5185,4.6209,4.7202,4.8142,4.9227,4.9162,4.9139,4.9139,4.8426,4.7693,4.6924,4.6882,4.6882,4.6882,4.6925,4.6994,4.6994,4.7055,4.7046,4.7046,4.7046,4.7046,4.7046,4.7046,4.7046,4.7046,4.7046,4.7046,4.7046,4.7046,4.6112,4.4711,4.4711,4.4566,4.4276,4.3327,4.2813,4.2518,4.1514,4.1216,4.1216,4.1216,4.1216,4.1141,4.0917,4.0842,4.0767,4.0542,4.0448,4.0448,4.0448,4.0448,4.0621,4.1409,4.0714,4.0121,4.0966,4.0215,3.9426,3.9426,3.8392,3.7228,3.6256,3.5458,3.4674,3.3728,3.2934,3.2441,3.2441,3.303,3.3386,3.3386,3.3849,3.4158,3.4158,3.4158,3.4158,3.4158,3.4158,3.4158,3.4158,3.4158,3.4158,3.4158,3.4158,3.4158,3.4142,3.3061,3.2282,3.2122,3.2361,3.2202,3.1363,3.2181,3.3329,3.4822,3.5849,0.0,3.5832,3.6316,3.6394,3.4815,3.5112,3.6204,3.7944,3.8969,4.0125,4.2065,4.294,4.3187,4.2445,4.3524,4.4432,4.4602,4.5082,4.5559,4.564,4.5049,4.4673,4.4673,4.4594,4.4494,4.4316,4.4316,4.4316,4.4316,4.4606,4.4712,4.4712,4.4917,4.5029,4.5029,4.5029,4.5029,4.5029,4.5029,4.5029,4.5029,4.5029,4.5029,4.5029,4.5029,4.4902,4.4711,4.4711,4.4058,4.3107,4.296,4.2276,4.1365,4.1216,4.1216,4.1216,4.1216,4.1216,4.0992,3.9864,3.9486,3.9277,3.8192,3.7903,3.7903,3.7903,3.7903,3.7921,3.8088,3.7952,3.7893,3.7983,3.7846,3.7786,3.7786,3.7644,3.6979,3.5458,3.5067,3.4422,3.2839,3.2536,3.2441,3.2441,3.2518,3.2564,3.2564,3.2626,3.2672,3.2672,3.2672,3.2672,3.2672,3.2672,3.2672,3.2672,3.2672,3.2672,3.2672,3.2672,3.2672,3.2672,3.2518,3.1882,3.0744,3.1882,3.1241,3.0374,3.1218,3.2428,3.4027,0.0,0.0,3.5632,3.571,3.5357,3.4497,3.5476,3.6711,3.7523,3.8739,4.0082,4.1366,4.188,4.1764,4.0918,4.1372,4.2039,4.2868,4.3123,4.3544,4.435,4.4116,4.39,4.39,4.3429,4.3135,4.3135,4.2664,4.2313,4.2313,4.3094,4.349,4.349,4.4319,4.4711,4.4711,4.4711,4.4711,4.4711,4.4711,4.4711,4.4711,4.4711,4.4711,4.4638,4.3213,4.2699,4.2699,4.2699,4.2404,4.1831,4.1066,4.0467,4.0015,3.9259,3.9031,3.9031,3.9031,3.9031,3.8955,3.8421,3.8287,3.8133,3.7673,3.7519,3.7519,3.7519,3.7519,3.7519,3.7519,3.7519,3.7519,3.7519,3.7519,3.7383,3.6937,3.6377,3.5832,3.5145,3.4596,3.4044,3.3332,3.2839,3.2441,3.2441,3.2441,3.2441,3.2441,3.2441,3.2441,3.2441,3.2441,3.2441,3.2441,3.2441,3.2441,3.2441,3.2441,3.2441,3.2441,3.2441,3.2441,3.2441,3.0905,2.9938,2.9371,2.9938,2.9614,2.9587,0.0,0.0,0.0,0.0,0.0,3.5397,3.5162,3.4585,3.4223,3.5206,3.6243,3.6584,3.8024,3.9391,4.0203,4.0375,4.0264,3.9879,3.989,4.0217,4.1274,4.1232,4.1423,4.2361,4.2309,4.2156,4.2156,4.1504,4.1159,4.1159,4.0566,4.0147,4.0147,4.131,4.1905,4.1905,4.316,4.3745,4.3745,4.3745,4.3745,4.3745,4.3745,4.3745,4.3745,4.3745,4.3745,4.3599,4.1886,4.1216,4.1216,4.1216,4.0992,4.0542,3.9638,3.9049,3.865,3.7827,3.7519,3.7519,3.7519,3.7519,3.7519,3.7519,3.7519,3.7519,3.7519,3.7519,3.7519,3.7519,3.7519,3.7519,3.7519,3.7519,3.7519,3.7519,3.7519,3.7306,3.6489,3.5788,3.5224,3.4753,3.4202,3.3728,3.349,3.2855,3.2441,3.2441,3.2441,3.2441,3.2441,3.2441,3.2441,3.2441,3.2441,3.2441,3.2441,3.2441,3.2441,3.2441,3.2441,3.2441,3.2441,3.2122,3.1882,3.1882,2.9695,2.8559,2.8559,2.8246,2.7824,0.0,0.0,0.0,3.2647,3.3899,3.4753,3.4044,3.3902,3.3569,3.2711,3.2567,3.3089,3.4607,3.6254,3.7712,3.8591,3.8757,3.9004,3.9726,3.989,3.989,3.989,3.923,3.8767,3.8864,3.8132,3.7745,3.7745,3.7632,3.7709,3.7709,3.7596,3.7596,3.7596,3.8726,3.9353,3.9353,4.0692,4.129,4.129,4.129,4.129,4.129,4.129,4.129,4.129,4.129,4.129,4.129,4.1216,4.1216,4.1216,4.1216,4.0467,3.9335,3.9277,3.8516,3.7519,3.7519,3.7519,3.7519,3.7519,3.7519,3.7519,3.7519,3.7519,3.7519,3.7519,3.7519,3.7519,3.7519,3.7519,3.7519,3.7519,3.7519,3.7519,3.7519,3.7519,3.7306,3.6489,3.6351,3.5788,3.4123,3.3823,3.349,3.2601,3.2457,3.2441,3.2441,3.2441,3.2441,3.2441,3.2441,3.2441,3.2441,3.2441,3.2441,3.2441,3.2441,3.2441,3.2441,3.2441,3.2441,3.2441,3.1241,3.0583,3.0583,2.9209,2.8559,2.8559,2.7264,2.6031,2.9324,3.0209,3.1012,3.147,3.1761,3.1852,3.1387,3.073,3.0619,3.1738,3.2452,3.3386,3.5261,3.4237,3.3305,3.3803,3.5467,3.6623,3.6598,3.7577,3.8303,3.8303,3.8089,3.7929,3.7929,3.7679,3.7519,3.7519,3.7519,3.7519,3.7519,3.7519,3.7519,3.7519,3.7903,3.8439,3.9277,4.0542,4.1216,4.1216,4.1216,4.1216,4.1216,4.1216,4.1216,4.1216,4.1216,3.9684,3.7235,3.7235,3.7235,3.7235,3.7235,3.6942,3.6575,3.6575,3.6299,3.593,3.593,3.593,3.593,3.593,3.593,3.593,3.593,3.593,3.593,3.593,3.593,3.593,3.593,3.593,3.6129,3.6628,3.6753,3.6895,3.7412,3.5886,3.4352,3.4069,3.3151,3.2303,3.1696,3.1619,3.1623,3.178,3.1841,3.2011,3.2395,3.2441,3.2441,3.2441,3.2441,3.2441,3.2441,3.2441,3.2441,3.2441,3.1642,3.1161,3.1161,3.0341,2.9857,2.9857,2.9452,2.8486,2.6883,2.5574,2.4943,2.4943,2.4481,2.4275,2.8737,2.918,2.9484,2.9663,2.9786,2.9776,2.9533,2.8965,2.9007,3.0313,3.1029,3.1945,3.345,3.1767,3.0342,3.0821,3.3027,3.4736,3.4815,3.6325,3.7519,3.7519,3.7519,3.7519,3.7519,3.7519,3.7519,3.7519,3.7519,3.7519,3.7519,3.7519,3.7519,3.7519,3.7519,3.7903,3.865,3.9486,3.9788,3.9484,3.9484,3.9332,3.9067,3.9067,3.9067,3.9067,3.9067,3.7602,3.5165,3.5165,3.5165,3.5165,3.5165,3.5165,3.5165,3.5165,3.5165,3.5165,3.5165,3.5165,3.5165,3.5165,3.5165,3.5165,3.5165,3.5165,3.5165,3.5165,3.5165,3.5165,3.5165,3.5165,3.529,3.577,3.5968,3.6019,3.6181,3.4175,3.2207,3.1911,3.0691,2.9629,2.9329,2.9253,2.9402,2.9817,2.9891,3.004,3.047,3.0514,3.0514,3.0514,3.0514,3.0514,3.0514,3.0514,3.0514,3.0514,2.9728,2.9255,2.9255,2.8463,2.7987,2.7987,2.7589,2.636,2.4387,2.3559,2.3093,2.3093,2.3093,2.3268,2.7559,2.7557,2.7584,2.7546,2.7977,2.8477,2.8396,2.8396,2.8396,2.8477,2.8477,2.8653,2.9361,2.8842,2.864,2.96,3.1437,3.3094,3.4009,3.592,3.7211,3.7211,3.727,3.727,3.7365,3.7365,3.7442,3.7519,3.7519,3.7501,3.7448,3.7448,3.7448,3.7412,3.7412,3.7412,3.7412,3.7412,3.7038,3.6307,3.6307,3.5933,3.5165,3.5165,3.5112,3.5041,3.5041,3.5041,3.5041,3.5041,3.5041,3.5041,3.5041,3.5041,3.5041,3.5041,3.5041,3.5041,3.5041,3.5041,3.5041,3.5041,3.5041,3.5041,3.5041,3.5041,3.5041,3.5041,3.5041,3.5041,3.5041,3.5041,3.5041,3.5041,3.5059,3.4932,3.4156,3.2517,3.0953,3.0151,2.9075,2.7932,2.7025,2.6949,2.6887,2.699,2.7004,2.7004,2.7045,2.7045,2.7045,2.7045,2.7045,2.7045,2.7045,2.7045,2.7045,2.7045,2.6969,2.6893,2.6893,2.6817,2.6817,2.6817,2.5542,2.4301,2.3011,2.3011,2.3011,2.3011,2.3011,2.3112,2.677,2.7325,2.7455,2.7022,2.6997,2.6854,2.5936,2.5676,2.5936,2.6936,2.71,2.6892,2.6109,2.5857,2.5854,2.6513,2.8111,2.9449,2.9933,3.1936,3.33,3.33,3.3553,3.4278,3.5547,3.5625,3.617,3.7442,3.7519,3.727,3.6699,3.6664,3.6396,3.5752,3.5734,3.5734,3.5734,3.5734,3.5646,3.545,3.545,3.5343,3.5165,3.5165,3.4507,3.3455,3.3455,3.3455,3.3455,3.3455,3.3455,3.3455,3.3455,3.3455,3.3455,3.3455,3.3455,3.3455,3.3455,3.3455,3.3455,3.3455,3.3455,3.3455,3.3455,3.3455,3.3455,3.3455,3.3455,3.3455,3.3455,3.3455,3.3455,3.3455,3.3901,3.4099,3.3304,3.1518,2.9661,2.8599,2.7026,2.5873,2.5583,2.5583,2.5733,2.623,2.6285,2.6449,2.699,2.7045,2.7045,2.7045,2.7045,2.7045,2.7045,2.7045,2.7045,2.7045,2.6143,2.553,2.553,2.4619,2.409,2.409,2.306,2.2293,2.1998,2.1998,2.1998,2.1998,2.1998,2.222,2.5789,2.6151,2.6272,2.5862,2.5783,2.5606,2.4862,2.4696,2.4862,2.5618,2.5783,2.5536,2.4862,2.4696,2.4779,2.5039,2.6721,2.8166,2.8491,3.0511,3.1951,3.2125,3.2285,3.2856,3.3805,3.3672,3.4209,3.5765,3.5699,3.5635,3.5823,3.5879,3.561,3.5165,3.5165,3.5165,3.5165,3.5165,3.5165,3.5165,3.4863,3.4507,3.4116,3.4116,3.3705,3.2867,3.2867,3.2867,3.2867,3.2867,3.2867,3.2867,3.2867,3.2867,3.2867,3.2867,3.2867,3.2867,3.2867,3.2867,3.2867,3.2867,3.2867,3.2867,3.2867,3.2867,3.2867,3.2867,3.2867,3.2867,3.2867,3.2867,3.2867,3.2867,3.2693,3.2092,3.0311,2.8957,2.7646,2.6098,2.462,2.3547,2.3547,2.3547,2.3649,2.4016,2.4068,2.4257,2.4578,2.4617,2.4617,2.4617,2.4617,2.4617,2.4617,2.4617,2.4617,2.4617,2.3957,2.352,2.352,2.2856,2.2479,2.2479,2.1904,2.1599,2.1599,2.1599,2.1599,2.1599,2.1599,2.1763,2.4649,2.4547,2.452,2.4661,2.4696,2.4696,2.4696,2.4696,2.4696,2.4696,2.4696,2.4696,2.4696,2.4696,2.4696,2.4696,2.6311,2.7677,2.8016,2.9786,3.1202,3.1462,3.1606,3.1735,3.1881,3.1516,3.1792,3.3315,3.2963,3.3243,3.4338,3.441,3.4358,3.4253,3.4253,3.4253,3.4253,3.4253,3.4253,3.4235,3.3606,3.3009,3.2579,3.2377,3.2224,3.2224,3.2224,3.2224,3.2224,3.2224,3.2224,3.2224,3.2224,3.2224,3.2224,3.2224,3.2224,3.2224,3.2224,3.2224,3.2224,3.2224,3.2224,3.2224,3.2224,3.2224,3.2224,3.2224,3.2224,3.2224,3.2224,3.2224,3.2241,3.2156,3.1119,2.9369,2.6874,2.6098,2.539,2.369,2.2539,2.1744,2.1599,2.1599,2.1599,2.1599,2.1599,2.1599,2.1599,2.1599,2.1599,2.1599,2.1599,2.1599,2.1599,2.1599,2.1599,2.1599,2.1599,2.1599,2.1599,2.1599,2.1599,2.1599,2.1599,2.1599,2.1599,2.1599,2.1599,2.1599,2.1599,2.1454,2.3196,2.3456,2.364,2.4485,2.4696,2.4696,2.4696,2.4696,2.4696,2.4696,2.4696,2.4696,2.4696,2.4696,2.4696,2.4696,2.5015,2.5264,2.5346,2.6336,2.6907,2.6524,2.7044,2.7872,2.8813,2.8807,2.9492,3.113,3.1169,3.0943,3.0518,3.0486,3.0216,2.9542,2.951,2.951,2.951,2.951,2.951,2.951,2.9383,2.9981,3.105,2.9714,2.9161,2.9161,2.9161,2.9161,2.9161,2.9161,2.9161,2.9161,2.9161,2.9161,2.9161,2.9161,2.9161,2.9161,2.9161,2.9161,2.9161,2.9161,2.9161,2.9161,2.9161,2.9161,2.9161,2.9161,2.9161,2.9161,2.9161,2.9161,2.9076,2.873,2.7615,2.6493,2.6578,2.539,2.412,2.3475,2.3188,2.2755,2.1744,2.1599,2.1599,2.1599,2.1599,2.1599,2.1599,2.1599,2.1599,2.1599,2.1599,2.1599,2.1599,2.1599,2.1599,2.1599,2.1599,2.1599,2.1599,2.1599,2.1599,2.1599,2.1599,2.1599,2.1599,2.1599,2.1599,2.1599,2.1599,2.0872,2.2485,2.2894,2.3358,2.4109,2.4496,2.4696,2.4696,2.4696,2.4696,2.4696,2.4696,2.4696,2.4696,2.4696,2.4696,2.4696,2.4696,2.4685,2.4671,2.5042,2.5252,2.5197,2.5539,2.6048,2.6822,2.6647,2.7115,2.8645,2.8554,2.8514,2.8907,2.8963,2.8738,2.8398,2.8382,2.8382,2.8382,2.8382,2.8382,2.8382,2.8382,2.8745,2.9438,2.798,2.77,2.8382,2.8382,2.8382,2.8382,2.8382,2.8382,2.8382,2.8382,2.8382,2.8382,2.8382,2.8382,2.8382,2.8382,2.8382,2.8382,2.8382,2.8382,2.8382,2.8382,2.8382,2.8382,2.8382,2.8382,2.8382,2.8382,2.8382,2.8313,2.8174,2.5914,2.3879,2.3951,2.3319,2.2611,2.2467,2.2395,2.225,2.1671,2.1599,2.1599,2.1599,2.1599,2.1599,2.1599,2.1599,2.1599,2.1599,2.1599,2.1599,2.1599,2.1599,2.1599,2.1599,2.1599,2.1599,2.1599,1.9986,1.9182,1.9182,1.9182,1.9182,1.9182,1.9182,1.9182,1.9182,1.9182,1.8752,2.2169,2.2625,2.3081,2.3781,2.4238,2.4567,2.4672,2.4103,2.351,2.351,2.351,2.351,2.351,2.351,2.3476,2.3459,2.3436,2.3443,2.3359,2.3438,2.3649,2.4159,2.4328,2.4585,2.5232,2.4941,2.5169,2.6239,2.5939,2.6225,2.7336,2.7421,2.7421,2.7421,2.7421,2.7421,2.7421,2.7421,2.7421,2.7421,2.7421,2.7615,2.7895,2.6366,2.6366,2.7421,2.7421,2.7421,2.7421,2.7421,2.7421,2.7421,2.7421,2.7421,2.7421,2.7421,2.7421,2.7421,2.7421,2.7421,2.7421,2.7421,2.7421,2.7421,2.7421,2.7421,2.7421,2.7421,2.7421,2.7421,2.7421,2.7336,2.7266,2.7195,2.458,2.2106,2.1744,2.1671,2.1599,2.1599,2.1599,2.1599,2.1599,2.1599,2.1599,2.1599,2.1599,2.1454,2.109,2.109,2.0945,2.0581,2.057,2.057,2.057,2.057,2.057,2.057,2.057,2.057,2.057,1.8227,1.6918,1.6918,1.6835,1.6761,1.6761,1.6687,1.6687,1.6687,1.6687,1.6465,2.2064,2.2368,2.2637,2.3699,2.3969,2.4121,2.459,2.2154,1.971,1.971,1.971,1.971,1.971,1.971,1.9681,1.9395,1.9348,1.9278,1.9088,1.9338,2.0042,2.1366,2.1828,2.2629,2.3981,2.4022,2.4068,2.4199,2.416,2.4192,2.4335,2.4335,2.4335,2.4335,2.4335,2.4335,2.4335,2.4335,2.4335,2.4335,2.4335,2.5034,2.6381,2.4821,2.4192,2.4335,2.4335,2.4335,2.4335,2.4335,2.4335,2.4335,2.4335,2.4335,2.4335,2.4335,2.4335,2.4335,2.4335,2.4335,2.4335,2.4335,2.4335,2.4335,2.4335,2.4335,2.4335,2.4335,2.4335,2.4335,2.4335,2.4036,2.369,2.3319,2.2683,2.2178,2.2106,2.1816,2.1599,2.1599,2.1599,2.1599,2.1599,2.1599,2.1599,2.1599,2.1599,2.109,1.9642,1.9423,1.8909,1.75,1.7353,1.7353,1.7353,1.7353,1.7353,1.7353,1.7353,1.7353,1.7353,1.7066,1.6918,1.6918,1.6595,1.6364,1.6364,1.6002,1.5863,1.5863,1.5863,1.512,1.8735,1.9155,1.9659,2.0096,2.0511,2.0881,2.1147,1.9902,1.8808,1.8976,1.9123,1.9204,1.9204,1.9095,1.8976,1.8901,1.875,1.8443,1.8034,1.8123,1.8434,1.8908,1.9304,1.9887,2.0643,2.0983,2.1056,2.1056,2.1056,2.1056,2.1056,2.1056,2.1056,2.1056,2.1056,2.1056,2.1056,2.2021,2.2539,2.2539,2.3475,2.3247,2.1973,2.1407,2.1056,2.1056,2.1056,2.1056,2.1056,2.1056,2.1056,2.1056,2.1056,2.1056,2.1056,2.1056,2.1056,2.1056,2.1056,2.1056,2.1274,2.2166,2.2539,2.2683,2.3619,2.3918,2.3918,2.3918,2.3918,2.3847,2.3619,2.3475,2.2671,2.0194,1.9245,1.9035,1.9035,1.8889,1.8742,1.8742,1.8742,1.8742,1.8742,1.8742,1.8742,1.8742,1.8742,1.8532,1.7952,1.7805,1.7584,1.6983,1.6918,1.6918,1.6918,1.6918,1.6918,1.6918,1.6918,1.6103,1.4174,1.4099,1.4099,1.4099,1.3636,1.3397,1.3397,1.3037,1.2819,1.2819,1.2819,1.2519,1.648,1.6935,1.7429,1.7604,1.8095,1.8549,1.8669,1.7753,1.691,1.7102,1.7266,1.7361,1.7361,1.7241,1.7119,1.7009,1.6842,1.6612,1.6176,1.604,1.6249,1.6714,1.7122,1.7702,1.8575,1.9015,1.9234,1.9234,1.9234,1.9234,1.9234,1.9234,1.9234,1.9234,1.9234,1.9234,1.9234,2.034,2.0861,2.0934,2.2021,2.1346,1.9234,1.9234,1.9234,1.9234,1.9234,1.9234,1.9234,1.9234,1.9234,1.9234,1.9234,1.9234,1.9234,1.9234,1.9234,1.9234,1.9234,1.9234,1.9454,2.0559,2.0861,2.1068,2.2226,2.2527,2.2527,2.2527,2.2527,2.2443,2.2009,2.1804,2.085,1.8007,1.7131,1.6918,1.6918,1.6918,1.6918,1.6918,1.6918,1.6918,1.6918,1.6918,1.6918,1.6918,1.6918,1.6918,1.6918,1.6548,1.6029,1.5583,1.5508,1.5508,1.5508,1.5508,1.5508,1.5508,1.5508,1.454,1.2321,1.2088,1.2013,1.2013,1.1398,1.1097,1.1097,1.0731,1.0505,1.0505,1.0505,1.0505,1.6405,1.6517,1.6721,1.7465,1.7668,1.7847,1.8336,1.5646,1.3108,1.3108,1.3108,1.3114,1.3114,1.3108,1.3008,1.2716,1.2663,1.2564,1.2361,1.2327,1.299,1.4979,1.5492,1.6521,1.8511,1.9015,1.9234,1.9234,1.9234,1.9234,1.9234,1.9234,1.9234,1.9234,1.9234,1.9234,1.9234,1.9234,1.9234,1.9234,1.9297,1.9307,1.9234,1.9234,1.9234,1.9234,1.9234,1.9234,1.9234,1.9234,1.9234,1.9234,1.9234,1.9234,1.9234,1.9234,1.9234,1.9234,1.9234,1.9234,1.9234,1.9234,1.9234,1.9234,1.9297,1.9307,1.9307,1.9307,1.9307,1.9234,1.8795,1.8144,1.7426,1.6983,1.6918,1.6918,1.6918,1.6918,1.6918,1.6918,1.6918,1.6918,1.6918,1.6918,1.6918,1.6918,1.6918,1.6918,1.6918,1.5583,1.4025,1.2464,1.2321,1.2321,1.2321,1.2321,1.2321,1.2321,1.2321,1.2245,1.2245,1.1781,1.1473,1.1473,1.072,1.0342,1.0342,0.99,0.9754,0.9754,0.9754,0.9754,1.2662,1.2789,1.3059,1.3428,1.3785,1.392,1.3868,1.3117,1.257,1.2684,1.2724,1.2783,1.2988,1.2856,1.2769,1.267,1.2497,1.2345,1.2259,1.2245,1.2471,1.3058,1.3501,1.4084,1.4963,1.5417,1.5797,1.6011,1.6085,1.6085,1.6085,1.6085,1.6085,1.6085,1.6085,1.6085,1.6085,1.7122,1.7638,1.7638,1.653,1.6085,1.6085,1.6085,1.6085,1.6085,1.6085,1.6085,1.6085,1.6085,1.6085,1.6085,1.6085,1.6085,1.6085,1.6085,1.6085,1.6085,1.6085,1.6085,1.6234,1.7269,1.7638,1.7859,1.8941,1.9234,1.9161,1.8941,1.8868,1.8208,1.5417,1.4457,1.4167,1.38,1.3733,1.3733,1.3733,1.3733,1.3733,1.3733,1.3733,1.3733,1.3733,1.3733,1.3733,1.3733,1.3733,1.3733,1.3733,1.3283,1.2765,1.2321,1.2245,1.2245,1.2245,1.2245,1.2245,1.2245,1.094,1.0105,1.0105,1.072,1.1103,1.1103,1.0569,1.0267,1.0267,0.99,0.9754,0.9754,0.9754,0.9138,1.0944,1.099,1.1188,1.1484,1.1616,1.1682,1.1643,1.142,1.1243,1.1507,1.1095,1.0916,1.1633,1.1601,1.1562,1.1562,1.1427,1.1479,1.217,1.2245,1.2013,1.1404,1.2232,1.2751,1.2512,1.3426,1.4182,1.4548,1.4548,1.4548,1.4548,1.4548,1.4316,1.3636,1.3643,1.3337,1.2737,1.43,1.474,1.4143,1.318,1.2737,1.2737,1.2737,1.2737,1.2737,1.2737,1.2737,1.2737,1.2737,1.2737,1.2737,1.2737,1.3112,1.3643,1.3643,1.4017,1.4548,1.4548,1.4548,1.4772,1.5731,1.6029,1.6242,1.7186,1.7472,1.7407,1.6974,1.6891,1.5928,1.1824,1.0777,1.0702,1.0488,1.0412,1.0412,1.0412,1.0412,1.0412,1.0412,1.0412,1.0412,1.0412,1.0412,1.0412,1.0412,1.0412,1.0412,1.0412,1.0412,1.0412,1.0412,1.0412,1.0412,1.0412,1.0412,1.0412,1.0412,0.9189,0.8353,0.8197,0.874,0.8977,0.8825,0.8438,0.8211,0.8211,0.7988,0.7917,0.7917,0.7917,0.7378,1.0911,1.0838,1.0898,1.1175,1.0987,1.0799,1.118,1.0228,0.9212,0.9504,0.8424,0.7824,0.9269,0.9576,0.9576,0.9576,0.9576,1.011,1.1705,1.1862,1.1329,0.9727,1.1241,1.1993,1.0777,1.2444,1.38,1.4167,1.4241,1.4241,1.4241,1.4241,1.3494,1.1905,1.1905,1.1154,0.9727,1.1154,1.1079,0.9576,0.9647,0.9727,0.9727,0.9727,0.9727,0.9727,0.9727,0.9727,0.9727,0.9727,0.9727,0.9727,0.9727,1.0627,1.1905,1.1905,1.2887,1.4241,1.4241,1.4241,1.4241,1.4241,1.4241,1.4241,1.4167,1.4167,1.4092,1.3651,1.3583,1.2594,0.8429,0.737,0.737,0.737,0.737,0.737,0.737,0.737,0.737,0.737,0.737,0.737,0.737,0.737,0.737,0.737,0.737,0.737,0.737,0.737,0.737,0.737,0.737,0.737,0.737,0.737,0.7282,0.6957,0.7044,0.6897,0.6361,0.6078,0.5782,0.5399,0.502,0.4865,0.4865,0.4865,0.4865,0.4865,0.4865,0.4789,1.0726,1.0587,1.066,1.0891,1.0094,0.8989,0.7997,0.7764,0.7697,0.7745,0.7572,0.7521,0.7904,0.7904,0.7904,0.7904,0.7904,0.8055,0.8433,0.8509,0.8358,0.7975,0.8358,0.866,0.866,0.9345,0.9954,1.0395,1.0702,1.0853,1.0853,1.0853,1.0702,1.025,1.025,1.0099,0.9727,1.0099,0.9491,0.7979,0.9118,0.9727,0.9727,0.9727,0.9727,0.9727,0.9727,0.9727,0.9727,0.9727,0.9727,0.9727,0.9727,0.9949,1.025,1.025,1.0552,1.0853,1.0853,1.0853,1.0853,1.0853,1.0853,1.0777,1.047,1.0395,1.0245,0.9571,0.9345,0.9038,0.7748,0.737,0.737,0.737,0.737,0.737,0.737,0.737,0.737,0.737,0.737,0.737,0.737,0.737,0.737,0.737,0.737,0.737,0.737,0.737,0.737,0.737,0.737,0.737,0.737,0.737,0.606,0.2814,0.359,0.407,0.3922,0.467,0.5095,0.502,0.4944,0.4865,0.4865,0.4865,0.4865,0.4865,0.4865,0.4184,1.0607,1.0487,1.0197,0.9024,0.8192,0.7415,0.677,0.6244,0.5914,0.6059,0.556,0.5331,0.6075,0.5633,0.5405,0.6088,0.624,0.6464,0.7294,0.737,0.7067,0.6313,0.6919,0.7218,0.6843,0.7681,0.8438,0.8806,0.9033,0.9189,0.9189,0.934,0.9118,0.8286,0.8513,0.8286,0.7533,0.6919,0.6233,0.5399,0.6847,0.7454,0.7454,0.7454,0.7454,0.7454,0.7454,0.7454,0.7454,0.7454,0.7454,0.7454,0.7454,0.7454,0.7605,0.8362,0.866,0.8736,0.9496,0.9727,0.9727,0.9727,0.9727,0.9647,0.9264,0.9113,0.8957,0.8211,0.6771,0.5408,0.5177,0.5135,0.509,0.509,0.5045,0.5079,0.5079,0.5079,0.5079,0.5079,0.5079,0.5079,0.5079,0.5079,0.5079,0.5079,0.5079,0.5079,0.5079,0.5079,0.5079,0.5079,0.5079,0.5003,0.4782,0.4782,0.3784,0.1348,0.1793,0.2166,0.195,0.1901,0.184,0.1619,0.1029,0.0665,0.0598,0.0598,0.0526,0.038,0.038,-0.0076,1.0236,1.003,0.9178,0.6575,0.5861,0.5898,0.5906,0.4876,0.4063,0.4392,0.3292,0.2741,0.4232,0.3426,0.2901,0.3965,0.4115,0.4493,0.5699,0.5848,0.532,0.3884,0.502,0.5469,0.4334,0.5624,0.6609,0.6976,0.7055,0.7055,0.7055,0.7513,0.7063,0.563,0.6161,0.5706,0.4269,0.3277,0.282,0.282,0.3812,0.4272,0.4272,0.4272,0.4272,0.4272,0.4272,0.4272,0.4272,0.4272,0.4272,0.4272,0.4272,0.4272,0.4498,0.6161,0.6764,0.6915,0.8362,0.8816,0.8816,0.8816,0.8816,0.874,0.8358,0.8206,0.7966,0.6776,0.4214,0.1812,0.1812,0.1784,0.1682,0.1682,0.1871,0.1984,0.1984,0.2196,0.2338,0.2338,0.2338,0.2338,0.2338,0.2338,0.2338,0.2338,0.2338,0.2338,0.2338,0.2338,0.2338,0.2338,0.2338,0.2196,0.1771,0.1771,0.1341,0.042,0.035,0.021,-0.0141,-0.1267,-0.2115,-0.2407,-0.3537,-0.4217,-0.4383,-0.4383,-0.4501,-0.474,-0.474,-0.474,0.8727,0.7815,0.6445,0.4822,0.4431,0.4111,0.3084,0.2611,0.2456,0.2546,0.2428,0.2432,0.2662,0.2636,0.2137,0.0914,0.0761,0.0304,-0.0837,-0.0989,-0.1141,-0.137,-0.1141,-0.1065,-0.1293,-0.0685,-0.0228,-0.0152,0.0152,0.0304,0.0304,0.0988,0.1293,0.0989,0.1752,0.1983,0.1755,0.1526,0.145,0.145,0.1679,0.1755,0.1755,0.1755,0.1755,0.1755,0.1755,0.1755,0.1755,0.1755,0.1755,0.1755,0.1755,0.1755,0.1908,0.3275,0.373,0.3882,0.4797,0.4878,0.4579,0.4579,0.4579,0.4579,0.4119,0.4043,0.3402,0.0434,-0.0857,-0.1287,-0.1287,-0.1283,-0.1279,-0.1279,-0.0355,0.0496,0.0496,0.1488,0.2338,0.2338,0.2338,0.2338,0.2338,0.2338,0.2338,0.2338,0.2338,0.2338,0.2338,0.2338,0.2338,0.2338,0.2338,0.2196,0.1771,0.1771,0.0278,-0.3047,-0.3301,-0.3336,-0.3347,-0.3556,-0.3733,-0.3817,-0.3961,-0.411,-0.4126,-0.4126,-0.4134,-0.4219,-0.4219,-0.4219,0.7445,0.5666,0.3848,0.3199,0.3001,0.2873,0.2287,0.2112,0.1939,0.1154,0.1042,0.0854,0.0073,-0.0074,-0.03,-0.1216,-0.137,-0.1675,-0.2437,-0.2513,-0.2513,-0.2513,-0.2513,-0.2513,-0.2513,-0.2284,-0.2132,-0.2132,-0.198,-0.1904,-0.1904,-0.1294,-0.0761,-0.0304,0.0229,-0.0226,-0.1759,-0.1172,-0.066,-0.0293,0.044,0.0953,0.1247,0.1247,0.1247,0.1247,0.1247,0.1247,0.1247,0.1247,0.1247,0.1247,0.0879,0.0733,0.0733,0.0951,0.1024,0.1024,0.139,0.139,0.1245,0.1245,0.1245,0.1172,0.0806,0.0513,0.0073,-0.1493,-0.1978,-0.1978,-0.1978,-0.1958,-0.1939,-0.1939,-0.1508,-0.1085,-0.1085,-0.0543,-0.0068,-0.0068,-0.0068,-0.0068,-0.0068,-0.0068,-0.0068,-0.0068,-0.0068,-0.0068,-0.0068,-0.0068,-0.0136,-0.0271,-0.0271,-0.0542,-0.1152,-0.1219,-0.201,-0.3983,-0.4109,-0.4067,-0.4052,-0.4054,-0.448,-0.5208,-0.6028,-0.648,-0.6639,-0.6639,-0.6687,-0.6853,-0.6853,-0.6853,0.5666,0.0,0.1699,0.2026,0.1895,0.1634,0.0,0.1371,0.0854,-0.0269,-0.0474,-0.0758,-0.1863,-0.2101,-0.2275,-0.2934,-0.3021,-0.3178,-0.3576,-0.3882,-0.4184,-0.4485,-0.426,-0.4101,-0.4001,-0.3773,-0.3541,-0.3522,-0.352,-0.352,-0.352,-0.2996,-0.2396,-0.1796,-0.1943,-0.301,-0.5017,-0.4095,-0.339,-0.2899,-0.1906,-0.12,-0.0707,-0.0707,-0.0707,-0.0707,-0.0707,-0.0707,-0.0707,-0.0707,-0.0707,-0.0707,-0.0989,-0.1058,-0.1058,-0.113,-0.12,-0.113,-0.0989,-0.0918,-0.0918,-0.0989,-0.1059,-0.113,-0.1412,-0.2381,-0.3328,-0.3328,-0.312,-0.2984,-0.2984,-0.2941,-0.2965,-0.2965,-0.2786,-0.2612,-0.2612,-0.2352,-0.2156,-0.2156,-0.2156,-0.2156,-0.2156,-0.2156,-0.2156,-0.2156,-0.2156,-0.2156,-0.2156,-0.2156,-0.222,-0.2476,-0.254,-0.2867,-0.365,-0.4945,-0.572,-0.5533,-0.5854,-0.6048,-0.6048,-0.6048,-0.6566,-0.7671,-0.8791,-0.9414,-0.9602,-0.9602,-0.9703,-0.9903,-1.004,-1.0034,0.0,0.1306,0.0457,0.183,0.111,0.0131,0.0131,-0.0849,0.0,-0.1965,-0.1874,-0.184,-0.1917,-0.1954,-0.2501,-0.4254,-0.4493,-0.5122,-0.6836,-0.7992,-0.9052,-1.0169,-0.935,-0.8603,-0.8479,-0.7357,-0.6637,-0.6494,-0.6483,-0.6483,-0.6483,-0.5766,-0.5336,-0.5265,-0.7159,-0.7846,-0.7192,-0.7047,-0.7051,-0.6981,-0.6907,-0.6836,-0.6766,-0.6766,-0.6766,-0.6766,-0.6766,-0.6766,-0.6766,-0.6766,-0.6766,-0.6696,-0.5786,-0.5363,-0.5152,-0.3108,-0.2402,-0.2331,-0.1553,-0.1342,-0.1412,-0.1766,-0.1837,-0.1837,-0.1907,-0.4435,-0.7347,-0.7347,-0.6633,-0.5913,-0.5913,-0.5906,-0.5898,-0.5898,-0.4967,-0.4109,-0.4109,-0.3068,-0.2156,-0.2156,-0.2156,-0.2156,-0.2156,-0.2156,-0.2156,-0.2156,-0.2156,-0.2156,-0.2156,-0.2156,-0.222,-0.2476,-0.254,-0.2867,-0.365,-0.8687,-1.1274,-0.9927,-1.1082,-1.185,-1.185,-1.185,-1.1921,-1.1985,-1.2121,-1.2128,-1.2152,-1.2152,-1.2167,-1.219,-1.2567,-1.2752,-0.0131,-0.0914,-0.1176,-0.0653,-0.0914,-0.1306,-0.1306,-0.1764,-0.2417,-0.3264,-0.3422,-0.3665,-0.4682,-0.5411,-0.604,-0.685,-0.7519,-0.8189,-0.8851,-0.9372,-0.9804,-1.0231,-0.9877,-0.9622,-0.9534,-0.9091,-0.8776,-0.8765,-0.876,-0.876,-0.876,-0.8474,-0.8207,-0.7934,-0.8719,-0.8914,-0.8586,-0.8586,-0.8386,-0.7986,-0.7986,-0.7719,-0.7242,-0.7242,-0.7242,-0.7242,-0.7242,-0.7242,0.0,-0.7242,-0.7242,-0.7242,-0.7385,-0.739,-0.7385,-0.6909,-0.6771,-0.6704,-0.6433,-0.6299,-0.6366,-0.65,-0.6566,-0.6566,-0.6566,-0.7605,-0.872,-0.872,-0.8462,-0.8138,-0.8138,-0.8138,-0.8138,-0.8138,-0.7805,-0.7412,-0.7412,-0.7024,-0.6635,-0.6635,-0.6635,-0.6635,-0.6635,-0.6955,-0.7213,-0.7213,-0.7661,-0.7919,-0.7919,-0.7919,-0.8048,-0.8301,-0.8365,-0.8558,-0.9073,-1.1139,-1.2177,-1.1666,-1.2113,-1.244,-1.244,-1.244,-1.244,-1.244,-1.244,-1.244,-1.244,-1.244,-1.256,-1.2815,-1.3133,-1.326,-0.2024,-0.2481,-0.2677,-0.2221,-0.2481,-0.2807,-0.2807,-0.3135,-0.3723,-0.4697,-0.5153,-0.5709,-0.6762,-0.7843,-0.8577,-0.8744,-0.9403,-0.9922,-1.0208,-1.0366,-1.0575,-1.0779,-1.0994,-1.0925,-1.0505,-1.0079,-0.9783,-0.9702,-0.9696,-0.9696,-0.9696,-0.9696,-1.0331,-1.1538,-1.1217,-1.0961,-1.0961,-1.0519,-1.0075,-0.963,-0.963,-0.936,-0.8833,-0.8833,-0.8833,-0.8833,-0.8833,-0.8833,-0.8833,-0.8833,-0.8833,-0.8897,-0.9102,-0.9172,-0.9172,-0.9296,-0.936,-0.936,-0.936,-0.936,-0.936,-0.936,-0.936,-0.936,-0.936,-1.0133,-1.0897,-1.0576,-0.9933,-0.936,-0.936,-0.936,-0.936,-0.936,-0.936,-0.936,-0.936,-0.9483,-0.9618,-0.9618,-0.9805,-1.0004,-1.0004,-1.0383,-1.064,-1.064,-1.1153,-1.1474,-1.1474,-1.1474,-1.1545,-1.1808,-1.1873,-1.2192,-1.3014,-1.3468,-1.3523,-1.3142,-1.3532,-1.3723,-1.3723,-1.3723,-1.3723,-1.3723,-1.3841,-1.3904,-1.3904,-1.4031,-1.4149,-1.4457,-1.4602,-1.4792,-0.2546,-0.3199,-0.3978,-0.2546,-0.3264,-0.4304,-0.4304,-0.5287,-0.6205,-0.6205,-0.7051,-0.7765,-0.7765,-0.8661,-0.9443,-0.971,-0.9752,-1.005,-1.0798,-1.1337,-1.197,-1.2567,-1.3213,-1.3159,-1.1838,-1.0526,-0.9712,-0.9442,-0.9425,-0.9425,-0.9425,-0.9425,-1.1594,-1.6377,-1.5243,-1.462,-1.462,-1.3167,-1.2472,-1.2472,-1.2472,-1.2472,-1.2472,-1.2472,-1.2472,-1.2472,-1.2472,-1.2472,-1.2472,-1.2472,-1.2472,-1.2408,-1.1367,-1.0911,-1.0782,-0.9811,-0.9425,-0.9354,-0.9425,-0.9425,-0.9425,-0.9425,-0.9425,-0.9425,-0.9425,-1.1857,-1.4367,-1.3324,-1.1274,-0.9425,-0.9425,-0.9425,-0.9425,-0.9425,-0.9425,-0.9425,-0.9425,-0.9933,-1.0383,-1.0383,-1.1025,-1.1538,-1.1538,-1.1538,-1.1538,-1.1545,-1.1545,-1.1538,-1.1538,-1.1538,-1.1609,-1.1873,-1.1937,-1.264,-1.4493,-1.5841,-1.5967,-1.4684,-1.5841,-1.6545,-1.6545,-1.6555,-1.6555,-1.6555,-1.6922,-1.7173,-1.7173,-1.7402,-1.7527,-1.7527,-1.7527,-1.7777,-0.5026,-0.5742,-0.6262,-0.5287,-0.555,-0.601,-0.5681,-0.6526,-0.731,-0.731,-0.8144,-0.885,-0.885,-0.9753,-1.0616,-1.1158,-1.1829,-1.258,-1.3393,-1.3614,-1.4006,-1.4833,-1.5102,-1.4907,-1.4053,-1.4447,-1.4704,-1.4403,-1.4393,-1.4393,-1.4393,-1.4393,-1.5025,-1.6503,-1.6126,-1.5937,-1.5937,-1.5496,-1.5307,-1.5307,-1.5307,-1.5307,-1.5307,-1.5307,-1.5307,-1.5307,-1.5307,-1.5307,-1.5307,-1.5307,-1.5307,-1.5307,-1.4981,-1.4285,-1.3532,-1.4149,-1.3832,-1.3142,-1.4086,-1.4393,-1.4393,-1.4393,-1.4393,-1.4393,-1.4393,-1.5098,-1.5874,-1.5539,-1.4972,-1.4393,-1.4393,-1.4393,-1.4393,-1.4393,-1.4511,-1.4691,-1.4691,-1.5069,-1.5384,-1.5384,-1.5573,-1.5457,-1.4719,-1.4972,-1.5098,-1.4421,-1.4747,-1.501,-1.501,-1.501,-1.5073,-1.5136,-1.6357,-1.7409,-1.7981,-1.8365,-1.8428,-1.8043,-1.8788,-1.9233,-1.9233,-1.9714,-1.996,-1.996,-2.0083,-2.0145,-2.0145,-2.0206,-2.0377,-2.0635,-2.0635,-2.0805,-0.7366,-0.8203,-0.8914,-0.8397,-0.8467,-0.8597,-0.8333,-0.8527,-0.8791,-0.8791,-0.9624,-1.0454,-1.089,-1.173,-1.2759,-1.3896,-1.4294,-1.482,-1.5937,-1.5927,-1.6053,-1.6879,-1.6743,-1.643,-1.598,-1.667,-1.7045,-1.6681,-1.6555,-1.7067,-1.8253,-1.8191,-1.8128,-1.8128,-1.7567,-1.7317,-1.7317,-1.6754,-1.6503,-1.6503,-1.6503,-1.6503,-1.6503,-1.6503,-1.6503,-1.6503,-1.6503,-1.6503,-1.6503,-1.6503,-1.6503,-1.6503,-1.6503,-1.6063,-1.5443,-1.6252,-1.6,-1.5433,-1.6252,-1.6503,-1.6503,-1.6503,-1.7255,-1.8128,-1.8128,-1.7754,-1.7317,-1.7317,-1.6942,-1.6503,-1.6503,-1.6503,-1.6555,-1.6681,-1.6795,-1.6983,-1.7108,-1.7545,-1.7857,-1.7857,-1.8105,-1.8043,-1.7431,-1.767,-1.7732,-1.7192,-1.7453,-1.7715,-1.7715,-1.7715,-1.7715,-1.7715,-1.8738,-1.9406,-1.9406,-1.9406,-1.9406,-1.9406,-1.9837,-2.0145,-2.0377,-2.0805,-2.1111,-2.1415,-2.1537,-2.1598,-2.1598,-2.1705,-2.1901,-2.2144,-2.2144,-2.2204,-0.9553,-1.0512,-1.1538,-1.1481,-1.1481,-1.1481,-1.1481,-1.1025,-1.0576,-1.064,-1.1481,-1.2568,-1.3616,-1.4393,-1.5433,-1.7295,-1.6806,-1.6754,-1.8315,-1.8043,-1.7919,-1.8626,-1.8179,-1.7794,-1.7721,-1.7845,-1.7658,-1.717,-1.7056,-1.8241,-2.1225,-2.113,-2.1007,-2.1007,-1.9677,-1.8986,-1.8986,-1.7794,-1.7233,-1.7233,-1.7233,-1.7181,-1.7056,-1.7181,-1.7181,-1.7056,-1.7181,-1.7181,-1.7056,-1.7056,-1.6994,-1.6879,-1.6879,-1.6817,-1.6691,-1.6879,-1.6817,-1.6754,-1.6879,-1.6879,-1.6879,-1.6879,-1.8575,-2.0652,-2.0652,-1.9764,-1.875,-1.875,-1.7879,-1.7005,-1.7005,-1.7005,-1.7056,-1.7295,-1.7358,-1.7483,-1.7845,-1.8428,-1.8812,-1.8812,-1.9295,-1.9665,-1.9603,-1.9603,-1.9542,-1.948,-1.9406,-1.9406,-1.9406,-1.9406,-1.9591,-2.0022,-2.0083,-2.0083,-2.0083,-2.007,-2.007,-2.007,-2.0193,-2.05,-2.1111,-2.1158,-2.1463,-2.2069,-2.2432,-2.2627,-2.2627,-2.2854,-2.2974,-2.2974,-2.2974,-2.2914,-1.1153,-1.1602,-1.2113,-1.1609,-1.1609,-1.1744,-1.1545,-1.2001,-1.264,-1.3371,-1.433,-1.536,-1.6398,-1.6785,-1.717,-1.8117,-1.8066,-1.8253,-1.9109,-1.9109,-1.9357,-2.0306,-2.0306,-2.0047,-1.9529,-2.0403,-2.0403,-1.8974,-1.9862,-2.1639,-2.4217,-2.4098,-2.3978,-2.3978,-2.3364,-2.3049,-2.3049,-2.2794,-2.2598,-2.2598,-2.2598,-2.2083,-2.1151,-2.2144,-2.2083,-2.1138,-2.2204,-2.2023,-2.1076,-2.1076,-2.0552,-1.9702,-1.9702,-1.901,-1.8191,-1.9331,-1.901,-1.8191,-1.9319,-1.9702,-1.9702,-1.9702,-2.0257,-2.0946,-2.0946,-2.0933,-2.0933,-2.0933,-2.0688,-2.049,-2.049,-2.049,-2.0503,-2.0552,-2.0736,-2.0906,-2.0968,-2.1348,-2.1666,-2.1666,-2.1788,-2.1605,-2.081,-2.0688,-2.0367,-1.9529,-1.9406,-1.9406,-1.9406,-1.9406,-2.0805,-2.4381,-2.4797,-2.4797,-2.4797,-2.5002,-2.5089,-2.5089,-2.5828,-2.6372,-2.6506,-2.6914,-2.7205,-2.7321,-2.7454,-2.7454,-2.7454,-2.7512,-2.757,-2.757,-2.757,-2.7164,-1.3086,-1.4022,-1.5035,-1.4719,-1.5088,-1.5457,-1.5321,-1.5466,-1.5801,-1.6221,-1.6795,-1.7494,-1.854,-1.8528,-1.885,-2.0232,-1.9998,-1.9998,-2.0845,-2.0906,-2.1164,-2.1666,-2.1741,-2.1835,-2.2023,-2.2702,-2.2897,-2.2432,-2.3124,-2.4098,-2.5405,-2.5346,-2.5168,-2.505,-2.4872,-2.4738,-2.4738,-2.4634,-2.4559,-2.4559,-2.4381,-2.3963,-2.3319,-2.3963,-2.3903,-2.3319,-2.4023,-2.3903,-2.3259,-2.3259,-2.2897,-2.2368,-2.2368,-2.1929,-2.1354,-2.2111,-2.1915,-2.1354,-2.2111,-2.1957,-2.1605,-2.2564,-2.2912,-2.3033,-2.3033,-2.3213,-2.3213,-2.261,-2.2428,-2.2261,-2.1741,-2.1957,-2.2428,-2.2428,-2.3093,-2.3754,-2.3754,-2.4069,-2.4308,-2.4308,-2.4308,-2.4128,-2.3574,-2.3514,-2.3319,-2.2808,-2.2688,-2.2688,-2.2688,-2.2688,-2.3589,-2.6011,-2.6263,-2.6263,-2.6263,-2.6347,-2.6506,-2.6647,-2.713,-2.7628,-2.8184,-2.8414,-2.8719,-2.8949,-2.8949,-2.8949,-2.8949,-2.8949,-2.8949,-2.8949,-2.8949,-2.8719,-1.5433,-1.7005,-1.8637,-1.8637,-1.9233,-1.9776,-1.9776,-1.9357,-1.9047,-1.9233,-1.9171,-1.9357,-2.0403,-2.0513,-2.0941,-2.2578,-2.2382,-2.2261,-2.3062,-2.3182,-2.3182,-2.3182,-2.3182,-2.3589,-2.4559,-2.4619,-2.4916,-2.57,-2.6154,-2.6389,-2.6389,-2.6389,-2.6288,-2.6053,-2.5995,-2.5995,-2.5936,-2.5717,-2.5598,-2.5598,-2.5212,-2.4916,-2.4738,-2.4856,-2.4856,-2.4619,-2.4856,-2.4856,-2.4619,-2.4678,-2.4559,-2.4321,-2.4381,-2.4381,-2.4321,-2.4321,-2.4321,-2.4321,-2.4381,-2.3679,-2.3093,-2.4991,-2.5464,-2.5346,-2.5346,-2.5405,-2.5228,-2.4127,-2.3828,-2.3604,-2.2624,-2.3078,-2.3828,-2.3828,-2.4856,-2.5759,-2.5759,-2.6011,-2.6263,-2.6263,-2.6263,-2.6263,-2.6263,-2.6263,-2.6263,-2.6263,-2.6263,-2.6263,-2.6263,-2.6598,-2.689,-2.689,-2.6965,-2.6965,-2.6965,-2.7065,-2.7222,-2.7402,-2.7518,-2.7957,-2.8816,-2.8834,-2.9063,-2.9558,-2.9633,-2.9615,-2.9728,-2.9728,-2.9728,-2.9728,-2.9728,-2.9671,-1.8726,-1.9825,-2.0928,-2.0928,-2.105,-2.1111,-2.1111,-2.105,-2.1233,-2.2144,-2.1882,-2.1849,-2.2881,-2.3634,-2.4142,-2.4083,-2.5077,-2.5844,-2.5775,-2.5733,-2.5733,-2.5733,-2.5733,-2.5834,-2.5952,-2.6011,-2.6011,-2.6145,-2.8148,-2.9369,-2.9369,-2.9369,-2.9273,-2.8985,-2.8985,-2.8852,-2.8623,-2.8623,-2.8565,-2.8565,-2.8184,-2.7414,-2.6363,-2.7233,-2.7041,-2.607,-2.7175,-2.6982,-2.6011,-2.6246,-2.5523,-2.4321,-2.4694,-2.4559,-2.4321,-2.4321,-2.4321,-2.4321,-2.4694,-2.4694,-2.4813,-2.6447,-2.633,-2.5566,-2.5566,-2.5818,-2.607,-2.5893,-2.5834,-2.5834,-2.5658,-2.5717,-2.5834,-2.5834,-2.6011,-2.6187,-2.6187,-2.6204,-2.6263,-2.6263,-2.6263,-2.6263,-2.6263,-2.6263,-2.6263,-2.6263,-2.6263,-2.6263,-2.6263,-2.8108,-2.9444,-2.9444,-2.9747,-2.9955,-2.9955,-3.0369,-3.0631,-3.0668,-3.0987,-3.1251,-3.1362,-3.1362,-3.1641,-3.2175,-3.2175,-3.2375,-3.2848,-3.2848,-3.2848,-3.2848,-3.2848,-3.241,-1.996,-2.1111,-2.2265,-2.2265,-2.2642,-2.3018,-2.3018,-2.3018,-2.3138,-2.3574,-2.3934,-2.4308,-2.4741,-2.5598,-2.6154,-2.5978,-2.6489,-2.6914,-2.6814,-2.6756,-2.6756,-2.6756,-2.6756,-2.7048,-2.7668,-2.7646,-2.7837,-2.8605,-3.0387,-3.1485,-3.1485,-3.1283,-3.1394,-3.1948,-3.1171,-3.0688,-3.0556,-2.9766,-2.9386,-2.9386,-2.9043,-2.8623,-2.8086,-2.8526,-2.841,-2.7913,-2.8468,-2.841,-2.7913,-2.8046,-2.7663,-2.7065,-2.7198,-2.7198,-2.7007,-2.7007,-2.7007,-2.7065,-2.7198,-2.7373,-2.7663,-2.8453,-2.8435,-2.8033,-2.8033,-2.8205,-2.8166,-2.7547,-2.7315,-2.7123,-2.6439,-2.679,-2.7315,-2.7315,-2.7819,-2.8338,-2.8338,-2.8338,-2.8338,-2.8338,-2.8338,-2.8338,-2.8338,-2.8338,-2.8338,-2.8338,-2.8338,-2.855,-2.9218,-3.0424,-3.1135,-3.0948,-3.067,-3.0521,-3.0521,-3.0746,-3.1007,-3.1267,-3.1454,-3.1641,-3.1904,-3.1904,-3.2105,-3.2616,-3.2691,-3.289,-3.3414,-3.3414,-3.3414,-3.3414,-3.3414,-3.3251,-2.1124,-2.2446,-2.3844,-2.4083,-2.465,-2.5216,-2.5437,-2.5497,-2.5497,-2.5497,-2.6028,-2.6439,-2.6439,-2.7181,-2.7784,-2.7668,-2.7957,-2.8188,-2.8166,-2.8148,-2.8148,-2.8148,-2.8148,-2.8493,-2.935,-2.9273,-2.9861,-3.147,-3.2478,-3.3079,-3.3079,-3.2786,-3.297,-3.3783,-3.2806,-3.2183,-3.2128,-3.106,-3.0538,-3.0538,-3.0257,-3.0163,-3.0163,-3.003,-3.0011,-2.9974,-2.9709,-2.9595,-2.9595,-2.9329,-2.9215,-2.9157,-2.9233,-2.9215,-2.9157,-2.9157,-2.9157,-2.9157,-2.9329,-2.95,-2.9671,-2.9861,-2.9955,-2.9955,-2.9955,-2.9955,-2.9785,-2.8873,-2.8644,-2.8414,-2.7414,-2.7895,-2.8644,-2.8644,-2.9273,-2.9955,-2.9955,-2.9955,-3.0011,-3.035,-3.0125,-3.0011,-3.0331,-3.0125,-2.9955,-2.9955,-3.0162,-3.0836,-3.2094,-3.2444,-3.2444,-3.2183,-3.1727,-3.149,-3.149,-3.1601,-3.1858,-3.2279,-3.2279,-3.2465,-3.2814,-3.2814,-3.3087,-3.3739,-3.3739,-3.4009,-3.4523,-3.4523,-3.4523,-3.4523,-3.4523,-3.4523,-2.3107,-2.459,-2.6263,-2.7157,-2.7408,-2.7681,-2.8547,-2.8719,-2.8719,-2.8719,-2.8356,-2.8068,-2.8068,-2.8798,-2.9312,-2.8933,-3.0086,-3.0987,-3.0765,-3.0709,-3.0709,-3.0709,-3.0709,-3.0765,-3.0822,-3.0765,-3.1823,-3.4382,-3.4329,-3.4115,-3.4115,-3.4115,-3.403,-3.3836,-3.3729,-3.3567,-3.3383,-3.3275,-3.3221,-3.3221,-3.2991,-3.2848,-3.2848,-3.2458,-3.2273,-3.2218,-3.1207,-3.08,-3.0744,-2.9879,-2.9386,-2.9157,-2.9462,-2.9386,-2.9157,-2.9157,-2.9157,-2.9215,-2.9747,-2.9898,-2.9898,-2.9955,-2.9955,-2.9955,-2.9955,-2.9955,-2.9898,-2.9842,-2.9842,-2.9842,-2.9785,-2.9785,-2.9842,-2.9842,-2.9898,-2.9955,-2.9955,-2.9955,-3.0294,-3.1374,-3.0724,-3.0275,-3.143,-3.0668,-2.9955,-2.9955,-3.0892,-3.2128,-3.3513,-3.3513,-3.3383,-3.3383,-3.3836,-3.4234,-3.4234,-3.4639,-3.4958,-3.5011,-3.5011,-3.5094,-3.5388,-3.5388,-3.58,-3.6701,-3.6701,-3.6959,-3.7495,-3.7495,-3.7495,-3.7495,-3.7495,-3.7495,-2.4725,-2.6305,-2.7837,-2.8374,-2.8777,-2.9063,-2.9006,-2.8949,-2.8949,-2.8949,-2.9633,-3.0181,-3.0181,-3.1267,-3.21,-3.1873,-3.2279,-3.254,-3.2085,-3.2705,-3.3012,-3.2554,-3.3209,-3.3642,-3.3642,-3.3642,-3.4051,-3.4989,-3.5591,-3.598,-3.598,-3.5725,-3.5859,-3.6528,-3.5695,-3.5169,-3.5042,-3.5042,-3.4617,-3.3675,-3.3405,-3.3296,-3.3296,-3.3167,-3.3091,-3.3058,-3.2676,-3.2533,-3.2458,-3.1394,-3.1339,-3.1818,-3.1171,-3.1319,-3.1818,-3.106,-3.078,-3.0892,-3.1853,-3.2183,-3.2183,-3.2369,-3.2423,-3.2478,-3.2656,-3.2183,-3.1652,-3.1652,-3.1024,-3.0276,-3.0276,-3.0144,-3.0011,-3.0219,-3.0819,-3.1394,-3.1596,-3.2183,-3.2819,-3.32,-3.2983,-3.2819,-3.3254,-3.2983,-3.2656,-3.2656,-3.3686,-3.4617,-3.5117,-3.5328,-3.5328,-3.5094,-3.483,-3.4671,-3.4671,-3.483,-3.4989,-3.5169,-3.5358,-3.544,-3.5598,-3.5725,-3.6165,-3.6908,-3.6908,-3.7165,-3.7699,-3.803,-3.8208,-3.8208,-3.8535,-3.8535,-2.6439,-2.7837,-2.9159,-2.9633,-3.0237,-3.0612,-3.0519,-3.0519,-3.0519,-3.0463,-3.1303,-3.2024,-3.2024,-3.289,-3.3565,-3.3468,-3.3414,-3.3414,-3.3381,-3.3987,-3.4319,-3.4169,-3.4724,-3.5169,-3.5169,-3.6009,-3.658,-3.658,-3.7271,-3.7675,-3.7574,-3.7322,-3.7475,-3.8081,-3.7169,-3.6655,-3.6551,-3.6551,-3.6084,-3.5117,-3.4936,-3.4883,-3.4883,-3.4883,-3.4883,-3.483,-3.4458,-3.4297,-3.4191,-3.3037,-3.2983,-3.3578,-3.2819,-3.2949,-3.3437,-3.2697,-3.2731,-3.3167,-3.3578,-3.3686,-3.374,-3.3869,-3.3976,-3.3976,-3.4169,-3.374,-3.3167,-3.3167,-3.2478,-3.1747,-3.1747,-3.1541,-3.141,-3.1692,-3.2279,-3.2861,-3.3112,-3.374,-3.4329,-3.4702,-3.4489,-3.4329,-3.4755,-3.4489,-3.4222,-3.4222,-3.4861,-3.5673,-3.658,-3.6809,-3.6833,-3.6551,-3.6165,-3.5882,-3.5882,-3.5963,-3.6142,-3.6269,-3.6556,-3.6711,-3.6814,-3.7094,-3.7526,-3.803,-3.8158,-3.8333,-3.8558,-3.9181,-3.9427,-3.9304,-3.9794,-3.9842,-2.8241,-2.9102,-3.0181,-3.1155,-3.1747,-3.2334,-3.3196,-3.351,-3.3586,-3.3468,-3.3468,-3.3468,-3.3468,-3.3468,-3.3522,-3.3522,-3.3522,-3.3847,-3.4737,-3.4661,-3.4799,-3.5545,-3.541,-3.5328,-3.5328,-3.7705,-3.928,-3.928,-3.928,-3.9131,-3.8908,-3.8908,-3.8634,-3.8182,-3.8107,-3.803,-3.775,-3.775,-3.775,-3.775,-3.775,-3.775,-3.7699,-3.7699,-3.7699,-3.7648,-3.6499,-3.6009,-3.5905,-3.4777,-3.4276,-3.4329,-3.4276,-3.4137,-3.3944,-3.3944,-3.4852,-3.5852,-3.4702,-3.4329,-3.4329,-3.4329,-3.4329,-3.4329,-3.4329,-3.4329,-3.4276,-3.4276,-3.4276,-3.4222,-3.4222,-3.4222,-3.4222,-3.4222,-3.4276,-3.4276,-3.4276,-3.4329,-3.4648,-3.5852,-3.5125,-3.4702,-3.5852,-3.5072,-3.4329,-3.4329,-3.4307,-3.5208,-3.7804,-3.7855,-3.7726,-3.775,-3.798,-3.8131,-3.8131,-3.8359,-3.8485,-3.8509,-3.8734,-3.9007,-3.928,-3.9675,-3.9969,-4.0235,-4.0622,-4.067,-4.0284,-4.117,-4.136,-4.0884,-4.1407,-4.1643,-2.9274,-3.0593,-3.1616,-3.2155,-3.2725,-3.3108,-3.2944,-3.2911,-3.302,-3.336,-3.3793,-3.4138,-3.4138,-3.4993,-3.5681,-3.5681,-3.613,-3.6494,-3.639,-3.6912,-3.7298,-3.7122,-3.7705,-3.8134,-3.8134,-3.8809,-3.928,-3.928,-3.928,-3.923,-3.9181,-3.9131,-3.9082,-3.8933,-3.8933,-3.8933,-3.8833,-3.8833,-3.8634,-3.8258,-3.8258,-3.8081,-3.7699,-3.7699,-3.7699,-3.7699,-3.7369,-3.7216,-3.7141,-3.5957,-3.6009,-3.6655,-3.58,-3.5957,-3.6678,-3.6861,-3.7038,-3.7216,-3.6884,-3.6706,-3.6758,-3.6964,-3.7043,-3.7043,-3.7224,-3.6786,-3.6188,-3.6188,-3.541,-3.4648,-3.4648,-3.4436,-3.4276,-3.4542,-3.523,-3.5882,-3.6136,-3.6786,-3.7377,-3.7705,-3.7553,-3.7451,-3.7705,-3.7502,-3.7326,-3.7326,-3.6683,-3.6743,-3.8212,-3.7677,-3.7458,-3.8186,-3.8359,-3.8359,-3.8359,-3.8435,-3.8559,-3.8734,-3.9032,-3.9305,-3.9675,-3.9969,-4.0284,-4.067,-4.0766,-4.0932,-4.1218,-4.1878,-4.2111,-4.1971,-4.2455,-4.2501,-3.0368,-3.1636,-3.2375,-3.2616,-3.3129,-3.351,-3.3402,-3.3402,-3.3544,-3.4062,-3.4781,-3.5281,-3.5281,-3.628,-3.7057,-3.7057,-3.7393,-3.7726,-3.7753,-3.8208,-3.8485,-3.8609,-3.923,-3.9674,-3.9674,-3.9674,-3.9674,-3.9674,-3.9674,-3.982,-4.0062,-4.0062,-4.0182,-4.0494,-4.0494,-4.0494,-4.0494,-4.0494,-4.0324,-4.0009,-3.9671,-3.9304,-3.8983,-3.8584,-3.8333,-3.8333,-3.8256,-3.8206,-3.8156,-3.7322,-3.7424,-3.798,-3.7271,-3.7373,-3.7953,-3.8283,-3.8333,-3.8182,-3.8081,-3.803,-3.8081,-3.8208,-3.8258,-3.8309,-3.8435,-3.8057,-3.755,-3.755,-3.6991,-3.6401,-3.6453,-3.635,-3.6246,-3.6585,-3.707,-3.7475,-3.7726,-3.8158,-3.8485,-3.8485,-3.8485,-3.8485,-3.8485,-3.8485,-3.8488,-3.8438,-3.8227,-3.8113,-3.8263,-3.8138,-3.8289,-3.894,-3.9467,-3.9768,-3.9768,-3.9353,-3.923,-3.9501,-3.9379,-3.9453,-3.9822,-4.0115,-4.0429,-4.0814,-4.1028,-4.1265,-4.1596,-4.2316,-4.262,-4.2363,-4.2941,-4.3322,-3.1378,-3.2271,-3.2691,-3.2691,-3.2999,-3.3489,0.0,-3.4213,-3.4374,-3.494,-3.5756,-3.6332,-3.6384,-3.7034,-3.7597,-3.7699,-3.7801,-3.8131,-3.8933,-3.8834,-3.8958,-3.9822,-4.0115,-4.0235,-4.0284,-4.0284,-4.0332,-4.0526,-4.0526,-4.0811,-4.147,-4.1491,-4.1745,-4.2339,-4.2385,-4.2339,-4.2339,-4.2339,-4.2293,-4.2248,-4.1417,-4.0971,-4.0924,-4.0013,-3.9599,-3.9599,-3.923,-3.9082,-3.9082,-3.8709,-3.8535,-3.8535,-3.8535,-3.8409,-3.8283,-3.8734,-3.8908,-3.8908,-3.8659,-3.8535,-3.8559,-3.8559,-3.8485,-3.8485,-3.8485,-3.8485,-3.8559,-3.8559,-3.8535,-3.8609,-3.8833,-3.8908,-3.8958,-3.923,-3.9082,-3.8908,-3.8908,-3.8709,-3.8535,-3.8535,-3.8535,-3.8559,-3.8559,-3.8585,-3.8612,-3.847,-3.8891,-3.8934,-3.7998,-3.8829,-3.9512,-3.9617,-4.0806,-4.1585,-4.1585,-4.0807,-4.0375,-4.0615,-4.0013,-3.982,-4.0187,-4.0477,-4.0741,-4.1075,-4.1617,-4.1898,-4.1898,-4.2913,-4.3141,-4.2685,-4.3141,-4.4126,0.0,0.0,0.0,0.0,0.0,0.0,0.0,-3.2999,-3.3272,-3.4374,-3.4696,-3.4962,-3.5364,-3.6175,-3.6982,-3.7597,-3.8208,-3.8933,-3.982,-3.9943,-3.9992,-4.0164,-4.0212,-4.0332,-4.067,-4.0718,-4.117,-4.2204,-4.227,-4.252,-4.3194,-4.3239,-4.3284,-4.3419,-4.3419,-4.3329,-4.3122,-4.3122,-4.2896,-4.2485,-4.2328,-4.2117,-4.1924,-4.1692,-4.1599,-4.1579,-4.0781,-4.0423,-4.0375,-3.9501,-3.9131,-3.9131,-3.9131,-3.9082,-3.9082,-3.9131,-3.9181,-3.9181,-3.9107,-3.8983,-3.8784,-3.8784,-3.8684,-3.8485,-3.8485,-3.8659,-3.8784,-3.8784,-3.8933,-3.9131,-3.9181,-3.9181,-3.923,-3.923,-3.923,-3.9181,-3.9181,-3.9131,-3.9131,-3.9131,-3.8933,-3.8784,-3.8784,-3.9304,-3.9656,-3.9417,-3.8025,-3.7207,-3.7858,-3.8164,-3.8707,-3.9538,-4.0806,-4.1585,-4.1585,-4.1585,-4.1705,-4.1991,-4.1938,-4.2051,-4.2355,-4.2631,-4.2722,-4.2712,-4.3519,-4.3876,-4.3626,-4.4478,-4.4826,-4.474,-4.4826,-4.5386,0.0,0.0,0.0,0.0,0.0,0.0,0.0,0.0,0.0,0.0,0.0,-3.4781,-3.5289,0.0,-3.6931,-3.7597,-3.8359,-3.9008,-3.9501,-3.9943,-4.0284,-4.0526,-4.0526,-4.0718,-4.117,-4.1549,-4.2065,-4.2712,-4.3095,-4.3609,-4.435,-4.4393,-4.4639,-4.5186,-4.5186,-4.5143,-4.4985,-4.4985,-4.4856,-4.4639,-4.4086,-4.3749,-4.3526,-4.3004,-4.2686,-4.255,-4.207,-4.1538,-4.0997,-4.0423,-3.9819,-3.928,-3.9502,-3.965,-3.9748,-3.96,-3.9551,-3.9551,-3.9329,-3.9181,-3.9082,-3.9082,-3.8983,-3.8859,-3.8859,-3.8983,-3.9082,-3.9082,-3.9181,-3.9329,-3.9502,-3.9551,-3.96,-3.9699,-3.965,-3.9551,-3.9551,-3.9379,-3.928,-3.928,-3.9032,-3.9032,-3.955,-4.0293,-4.0313,-3.8847,-3.8086,-3.7676,-3.7529,-3.8685,-3.964,-4.0198,-4.1932,-4.3068,-4.3068,-4.3159,-4.3114,-4.2886,-4.2677,-4.2695,-4.2923,-4.3194,-4.3447,-4.3609,-4.423,-4.4668,-4.4985,-4.5357,-4.5683,-4.5864,-4.6641,-4.7169,0.0,0.0,0.0,0.0,0.0,0.0,0.0,0.0,0.0,0.0,0.0,0.0,0.0,0.0,0.0,-3.7393,-3.8006,-3.851,-3.8809,-3.9501,-4.0113,-4.0548,-4.0693,-4.1075,-4.169,-4.2409,-4.2959,-4.3231,-4.3876,-4.4596,-4.5456,-4.5511,-4.5906,-4.6741,-4.6782,-4.6741,-4.67,-4.67,-4.67,-4.6618,-4.578,0.0,-4.5129,-4.429,-4.3776,-4.3509,-4.3104,-4.242,-4.1538,-4.1187,-4.0352,-3.9453,-3.9822,-4.0017,-4.0164,-3.9969,-3.992,-3.9871,-3.9551,-3.9428,-3.9379,-3.9379,-3.9329,-3.928,-3.928,-3.9329,0.0,-3.9379,-3.9428,-3.9526,-3.9871,-3.992,-3.9969,-4.0212,-4.0212,-4.0164,-3.9969,-3.982,-3.9723,-3.9723,-3.9526,-3.9573,-4.0284,-4.1065,-4.0798,-3.8505,-3.8696,-3.8597,-3.7299,-3.9274,-4.0826,-4.0826,-4.304,-4.449,-4.449,-4.4562,-4.433,-4.376,-4.3374,-4.3284,-4.3598,-4.3865,-4.4158,-4.4465,-4.4841,-4.5357,-4.6074,-4.6157,-4.6447,-4.6897,-4.8228,-4.8828,0.0,0.0,0.0,0.0,0.0,0.0,0.0,0.0,0.0,0.0,0.0,0.0,0.0,0.0,0.0,0.0,-3.6748,-3.7267,-3.866,-3.8983,-3.923,-3.9746,-4.0404,-4.1218,-4.2204,-4.2859,-4.376,-4.4913,-4.5598,-4.6269,-4.6956,-4.6997,0.0,0.0,0.0,-4.7108,-4.6975,-4.6975,-4.6893,-4.6659,-4.6535,-4.634,-4.6103,-4.5977,-4.578,-4.5456,-4.3732,-4.2877,-4.2649,-4.1002,-4.009,-3.9822,-4.009,-4.0066,-3.992,-4.0115,-4.0212,-4.0187,-4.0138,0.0,0.0,-3.9773,-3.9551,-3.928,-3.928,-3.9502,-3.9773,-3.9773,-3.9969,-4.0138,-4.0212,-4.0212,-4.0212,-4.0235,-4.0862,-4.117,-4.0381,-4.0814,-4.1334,-4.1334,-4.1118,-4.0847,-4.0509,-4.1058,-4.1356,-4.0556,-3.9647,-3.8597,-3.7299,-3.9274,-4.0826,-4.0826,-4.304,0.0,-4.449,-4.4737,-4.4927,-4.5043,-4.5243,-4.55,-4.5894,-4.6174,-4.6061,-4.5696,-4.6517,-4.6845,-4.6734,-4.729,-4.7876,-4.8375,-4.9243,-4.9646,0.0,0.0,0.0,0.0,0.0,0.0,0.0,0.0,0.0,0.0,0.0,0.0,0.0,0.0,0.0,0.0,-3.6018,-3.6776,-3.7421,-3.7905,-3.8709,-3.9965,-4.0811,-4.1804,-4.3249,-4.4054,-4.4841,-4.5767,-4.6682,-4.728,-4.756,-4.756,-4.756,-4.756,-4.736,-4.7229,-4.7148,-4.7148,-4.7108,-4.6956,-4.6956,-4.6793,-4.6464,-4.6464,-4.5977,-4.5057,-4.4202,-4.3222,-4.2104,-4.136,-4.0574,-3.9871,0.0,0.0,0.0,0.0,-4.0235,-4.0235,-4.0235,-4.0164,-4.0066,-4.0066,-3.9943,-3.9846,-3.9846,-3.9943,-4.0066,-4.0066,-4.0164,-4.0235,-4.0235,-4.0235,-4.0235,-4.0235,-4.0526,-4.0718,-4.0284,-4.0526,-4.0932,-4.1502,-4.1402,0.0,-4.202,-4.2379,-4.2195,-4.0995,-4.0402,-3.9895,-3.933,-4.0826,-4.1926,-4.1926,-4.3491,-4.449,-4.449,-4.4606,0.0,0.0,0.0,-4.5627,-4.6019,-4.6299,0.0,0.0,0.0,-4.7679,-4.7876,-4.8375,0.0,0.0,-4.9202,-4.9757,0.0,0.0,0.0,0.0,0.0,0.0,0.0,0.0,0.0,0.0,0.0,0.0,0.0,0.0,0.0,0.0,-3.5387,-3.6332,-3.6724,-3.7444,-3.8609,-4.0423,-4.1355,-4.2382,-4.3982,-4.4826,-4.5585,-4.6186,-4.7159,-4.7639,-4.7639,-4.7639,-4.7639,-4.7639,-4.736,-4.7239,-4.7239,-4.7239,-4.7239,-4.7239,-4.7239,-4.7067,-4.6741,-4.67,-4.5923,-4.4581,-4.4274,-4.3131,-4.1596,-4.1313,-4.067,-3.9871,-4.0164,-4.0115,-3.9969,-4.0164,-4.0235,-4.0235,-4.0235,-4.0235,-4.0235,-4.0235,-4.0235,-4.0235,-4.0235,-4.0235,-4.0235,-4.0235,-4.0235,-4.0235,-4.0235,-4.0235,-4.0235,-4.0235,-4.0429,-4.0622,-4.0622,-4.0788,-4.1287,-4.2197,-4.2263,-4.2515,-4.3676,-4.3868,-4.3314,-4.1612,-4.1333,-4.1221,-4.0854,-4.1954,-4.2744,-4.2744,-4.3801,-4.449,-4.449,-4.4562,-4.4796,-4.5286,-4.5329,-4.5542,-4.5864,-4.6186,-4.6576,-4.6934,-4.7149,-4.7342,0.0,0.0,0.0,0.0,0.0,0.0,0.0,0.0,0.0,0.0,0.0,0.0,0.0,0.0,0.0,0.0,0.0,0.0,0.0,0.0,0.0,0.0,0.0,0.0,-3.709,-3.7982,-3.9156,-4.0997,-4.1871,-4.2822,-4.401,-4.4826,-4.5585,-4.6186,-4.6875,-4.7239,-4.7239,-4.7239,-4.7239,-4.7239,-4.7239,-4.7239,-4.7239,-4.7239,-4.7239,-4.7239,-4.7239,-4.7148,-4.7045,-4.6771,-4.6007,-4.4826,-4.3581,-4.2447,-4.1502,-4.067,-4.0115,-3.9871,-4.0164,-4.0235,-4.0212,-4.0235,-4.0235,-4.0235,-4.0235,-4.0235,-4.0235,-4.0235,-4.0235,-4.0235,-4.0235,-4.0235,-4.0235,-4.0235,-4.0235,-4.0235,-4.0235,-4.0235,-4.0235,-4.0235,-4.0884,-4.1549,-4.1549,-4.229,-4.3149,-4.423,-4.4406,-4.4581,-4.5143,-4.5229,-4.4628,-4.2969,-4.2688,0.0,-4.0967,-4.1954,-4.2744,-4.2744,-4.3801,-4.449,-4.449,-4.4737,-4.497,-4.5286,-4.5528,-4.5754,-4.5894,-4.6382,-4.6659,-4.6659,-4.6178,-4.5515,-4.4664,0.0,0.0,0.0,0.0,0.0,0.0,0.0,0.0,0.0,0.0,0.0,0.0,0.0,0.0,0.0,0.0,0.0,0.0,0.0,0.0,0.0,0.0,0.0,0.0,-3.7472,-3.8659,-4.0471,-4.1355,-4.2685,-4.4696,-4.4668,-4.5186,-4.6793,-4.6927,-4.7129,-4.76,-4.7639,-4.7639,-4.7639,-4.736,-4.7239,-4.7239,-4.7239,-4.7239,-4.7239,-4.7239,-4.7067,-4.6812,-4.67,-4.5556,-4.3581,-4.3149,-4.2078,-4.067,-4.0381,-4.0212,-4.0115,-4.0212,-4.0235,-4.0235,-4.0235,-4.0235,-4.0235,-4.0235,-4.0235,-4.0235,-4.0235,-4.0235,-4.0235,-4.0235,-4.0235,-4.0235,-4.0235,-4.0235,-4.0235,-4.0235,-4.0235,-4.0235,-4.0235,-4.0932,-4.1596,-4.1596,-4.2336,-4.3239,-4.4318,-4.4956,-4.5329,-4.5528,-4.5272,-4.4856,-4.4258,-4.4029,-4.3773,-4.3322,-4.366,-4.3942,-4.3942,-4.4265,-4.449,-4.449,-4.4737,-4.4628,-4.4068,-4.426,-4.4091,-4.3451,-4.3856,-4.4051,-4.4051,-4.418,-4.4176,-4.412,0.0,0.0,0.0,0.0,0.0,0.0,0.0,0.0,0.0,0.0,0.0,0.0,0.0,0.0,0.0,0.0,0.0,0.0,0.0,0.0,0.0,0.0,0.0,0.0,0.0,0.0,-4.0182,-4.1023,0.0,-4.4406,-4.4581,-4.5186,-4.6793,-4.6927,-4.7199,-4.76,-4.76,-4.76,-4.76,-4.736,-4.7239,-4.7239,-4.7239,-4.7239,-4.7239,-4.7189,-4.7027,-4.6812,-4.6618,-4.5442,-4.3626,-4.3149,-4.2078,-4.0718,-4.0381,-4.0429,-4.0718,-4.0718,-4.0932,-4.1192,-4.0836,-4.0718,-4.067,-4.0332,-4.0235,-4.0235,-4.0235,-4.0429,-4.0718,-4.0718,-4.098,-4.1144,-4.0814,-4.0718,-4.067,-4.0284,-4.0235,-4.0235,-4.0235,-4.067,-4.1313,-4.1918,-4.2539,-4.3239,-4.4158,-4.5086,-4.5613,-4.54,-4.5128,-4.4726,-4.4229,-4.3972,-4.3886,-4.3886,-4.3886,-4.4055,-4.4462,-4.449,-4.4321,-4.3942,-4.4044,-4.3719,-4.2657,-4.3055,-4.2946,-4.2084,-4.2677,-4.3053,-4.3053,-4.2695,-4.2819,0.0,0.0,0.0,0.0,0.0,0.0,0.0,0.0,0.0,0.0,0.0,0.0,0.0,0.0,0.0,0.0,0.0,0.0,0.0,0.0,0.0,0.0,0.0,0.0,0.0,0.0,0.0,-4.0134,-4.0807,0.0,0.0,0.0,0.0,-4.6103,-4.6752,-4.7118,-4.7159,-4.7199,-4.7199,-4.7199,-4.7159,-4.7159,-4.7118,-4.7118,-4.7078,-4.7078,-4.6945,-4.6852,-4.6852,-4.6382,-4.5683,-4.4668,-4.3492,-4.2401,-4.1455,-4.067,-4.0814,-4.1596,-4.1643,-4.2197,-4.2832,-4.1918,-4.1643,-4.1502,-4.0622,-4.0284,-4.0284,-4.0284,-4.0836,-4.1502,-4.1549,-4.2151,0.0,0.0,-4.1549,-4.136,-4.0477,-4.0284,-4.0284,-4.0235,-4.0284,-4.0788,-4.2539,-4.2968,-4.3239,-4.3898,-4.4828,-4.5328,-4.4828,0.0,-4.4272,-4.2955,-4.2743,-4.2743,-4.2743,-4.2701,-4.3111,-4.4352,-4.4437,-4.4,-4.2955,-4.2813,-4.2342,-4.1303,-4.2015,-4.2282,-4.1707,-4.2771,-4.336,-4.336,-4.1819,0.0,0.0,0.0,0.0,0.0,0.0,0.0,0.0,0.0,0.0,0.0,0.0,0.0,0.0,0.0,0.0,0.0,0.0,0.0,0.0,0.0,0.0,0.0,0.0,0.0,0.0,-3.5678,-3.7523,-3.9574,-3.9965,-4.0832,0.0,0.0,0.0,0.0,0.0,0.0,-4.6435,-4.6956,-4.6997,-4.6547,-4.6506,-4.6299,-4.5796,-4.5428,-4.5229,-4.5229,-4.4798,-4.4465,-4.4334,-4.4971,-4.423,-4.2428,-4.2814,-4.2078,-4.0622,-4.1075,-4.1265,-4.1407,-4.2158,-4.2501,-4.2474,-4.227,-4.227,-4.2316,-4.1071,-4.0785,-4.095,-4.095,-4.0449,-4.0039,-4.1023,0.0,0.0,0.0,0.0,-4.1166,-4.0429,-4.0766,-4.1075,-4.0381,-4.0766,-4.1407,-4.1851,-4.3114,-4.3906,-4.311,-4.2927,-4.2843,-4.2636,-4.2676,0.0,-4.248,-4.2304,-4.2186,-4.2186,-4.1668,-4.2043,-4.3898,-4.3194,-4.3117,-4.4405,-4.3697,-4.2651,-4.1423,-4.1759,-4.1481,-4.0418,-4.0933,-4.1234,-4.1234,0.0,0.0,0.0,0.0,0.0,0.0,0.0,0.0,0.0,0.0,0.0,0.0,0.0,0.0,0.0,0.0,0.0,0.0,0.0,0.0,0.0,0.0,0.0,0.0,0.0,0.0,0.0,-3.2304,-3.5087,-3.7556,-3.8059,-3.9032,0.0,0.0,0.0,0.0,0.0,0.0,0.0,0.0,0.0,-4.5186,-4.5157,-4.51,-4.4956,-4.445,-4.4274,-4.4493,-4.3893,-4.3492,-4.3374,-4.3849,-4.3357,-4.2197,-4.2336,-4.1778,-4.0836,-4.1265,-4.1851,-4.252,0.0,0.0,0.0,0.0,-4.3068,-4.2977,-4.1376,-4.095,-4.095,-4.0519,0.0,0.0,0.0,0.0,0.0,0.0,0.0,-4.042,-4.0612,-4.0766,-4.0718,-4.0332,-4.0622,-4.1123,-4.1502,-4.2523,-4.3162,-4.2292,-4.1861,-4.159,-4.1406,-4.1696,0.0,0.0,0.0,-4.1136,-4.1136,-4.0755,-4.1166,-4.2917,-4.2665,-4.2693,-4.3358,-4.2775,-4.186,-4.0547,-4.0963,-4.0827,-3.9834,-3.9742,-3.9748,0.0,0.0,0.0,0.0,0.0,0.0,0.0,0.0,0.0,0.0,0.0,0.0,0.0,0.0,0.0,0.0,0.0,0.0,0.0,0.0,0.0,0.0,0.0,0.0,0.0,0.0,0.0,0.0,0.0,-3.1506,-3.4752,0.0,0.0,0.0,0.0,0.0,0.0,0.0,0.0,0.0,0.0,0.0,0.0,0.0,-4.376,-4.4142,-4.3626,-4.3581,-4.401,-4.3402,-4.3131,-4.3131,-4.3177,-4.3014,-4.2695,-4.1804,0.0,-4.1313,-4.1407,0.0,0.0,0.0,0.0,0.0,0.0,0.0,0.0,0.0,0.0,0.0,0.0,0.0,0.0,0.0,0.0,0.0,0.0,0.0,0.0,0.0,0.0,-4.0057,-4.0452,-4.0429,-4.0497,-4.0967,-4.119,-4.1349,-4.1184,-4.0966,-4.0674,0.0,0.0,0.0,0.0,0.0,0.0,-3.9939,-3.9866,-4.036,-4.1753,-4.2333,-4.2303,-4.1581,-4.1341,-4.0744,-3.9638,-4.0295,-4.0393,-3.9662,-3.9162,0.0,0.0,0.0,0.0,0.0,0.0,0.0,0.0,0.0,0.0,0.0,0.0,0.0,0.0,0.0,0.0,0.0,0.0,0.0,0.0,0.0,0.0,0.0,0.0,0.0,0.0,0.0,0.0,0.0,0.0,0.0,0.0,0.0,0.0,0.0,0.0,0.0,0.0,0.0,0.0,0.0,0.0,0.0,0.0,0.0,0.0,0.0,0.0,0.0,0.0,-4.1758,-4.1898,-4.1945,-4.3536,-4.3357,-4.1804,-4.0884,-4.0161,-3.9795,-4.1711,0.0,0.0,0.0,0.0,0.0,0.0,0.0,0.0,0.0,0.0,0.0,0.0,0.0,0.0,0.0,0.0,0.0,0.0,0.0,0.0,0.0,0.0,-4.0876,-4.1798,-4.1502,-4.0508,-3.8469,0.0,0.0,0.0,0.0,0.0,0.0,0.0,0.0,0.0,0.0,0.0,-3.93,-3.8915,-3.9343,-4.1318,-4.1138,-4.1498,-4.3016,-4.205,-4.127,-4.1052,-4.1176,-4.0767,0.0,0.0,0.0,0.0,0.0,0.0,0.0,0.0,0.0,0.0,0.0,0.0,0.0,0.0,0.0,0.0,0.0,0.0,0.0,0.0,0.0,0.0,0.0,0.0,0.0,0.0,0.0,0.0,0.0,0.0,0.0,0.0,0.0,0.0,0.0,0.0,0.0,0.0,0.0,0.0,0.0,0.0,0.0,0.0,0.0,0.0,0.0,0.0,0.0,0.0,0.0,0.0,0.0,0.0,0.0,0.0,0.0,0.0,-4.0474,-4.0378,0.0,0.0,0.0,0.0,0.0,0.0,0.0,0.0,0.0,0.0,0.0,0.0,0.0,0.0,0.0,0.0,0.0,0.0,0.0,0.0,0.0,0.0,0.0,0.0,0.0,0.0,0.0,0.0,0.0,0.0,0.0,0.0,0.0,0.0,0.0,0.0,0.0,0.0,0.0,0.0,-3.8666,-3.8769,-3.9177,-4.0179,-4.0661,-4.1332,-4.2366,-4.1799,-4.1391,-4.1391,-4.1268,0.0,0.0,0.0,0.0,0.0,0.0,0.0,0.0,0.0,0.0,0.0,0.0,0.0,0.0,0.0,0.0,0.0,0.0,0.0,0.0,0.0,0.0,0.0,0.0,0.0,0.0,0.0,0.0,0.0,0.0,0.0,0.0,0.0,0.0,0.0,0.0,0.0,0.0,0.0,0.0,0.0,0.0,0.0,0.0,0.0,0.0,0.0,0.0,0.0,0.0,0.0,0.0,0.0,0.0,0.0,0.0,0.0,0.0,0.0,-4.0013,-4.0327,0.0,0.0,0.0,0.0,0.0,0.0,0.0,0.0,0.0,0.0,0.0,0.0,0.0,0.0,0.0,0.0,0.0,0.0,0.0,0.0,0.0,0.0,0.0,0.0,0.0,0.0,0.0,0.0,0.0,0.0,0.0,0.0,0.0,0.0,0.0,0.0,0.0,0.0,0.0,0.0,-3.8139,-3.8838,-3.9248,-3.9248,-4.055,-4.1391,-4.1391,-4.1391,-4.1391,-4.1299,-4.0864,0.0,0.0,0.0,0.0,0.0,0.0,0.0,0.0,0.0,0.0,0.0,0.0,0.0,0.0,0.0,0.0,0.0,0.0,0.0,0.0,0.0,0.0,0.0,0.0,0.0,0.0,0.0,0.0,0.0,0.0,0.0,0.0,0.0,0.0,0.0,0.0,0.0,0.0,0.0,0.0,0.0,0.0,0.0,0.0,0.0,0.0,0.0,0.0,0.0,0.0,0.0,0.0,0.0,0.0,0.0,0.0,0.0,0.0,0.0,0.0,0.0,0.0,0.0,0.0,0.0,0.0,0.0,0.0,0.0,0.0,0.0,0.0,0.0,0.0,0.0,0.0,0.0,0.0,0.0,0.0,0.0,0.0,0.0,0.0,0.0,0.0,0.0,0.0,0.0,0.0,0.0,0.0,0.0,0.0,0.0,0.0,0.0,0.0,0.0,0.0,0.0,-3.7821,-3.8735,-3.9248,-3.9248,-4.055,-4.1391,-4.1391,-4.1391,-4.133,-4.1083,0.0,0.0,0.0,0.0,0.0,0.0,0.0,0.0,0.0,0.0,0.0,0.0,0.0,0.0,0.0,0.0,0.0,0.0,0.0,0.0,0.0,0.0,0.0,0.0,0.0,0.0,0.0,0.0,0.0,0.0,0.0,0.0,0.0,0.0,0.0,0.0,0.0,0.0,0.0,0.0,0.0,0.0,0.0,0.0,0.0,0.0,0.0,0.0,0.0,0.0,0.0,0.0,0.0,0.0,0.0,0.0,0.0,0.0,0.0,0.0,0.0,0.0,0.0,0.0,0.0,0.0,0.0,0.0,0.0,0.0,0.0,0.0,0.0,0.0,0.0,0.0,0.0,0.0,0.0,0.0,0.0,0.0,0.0,0.0,0.0,0.0,0.0,0.0,0.0,0.0,0.0,0.0,0.0,0.0,0.0,0.0,0.0,0.0,0.0,0.0,0.0,0.0,-3.7231,-3.8384,-3.9177,-3.9248,-4.055,-4.1391,-4.1391,-4.1391,-4.1268,-4.1052,0.0,0.0,0.0,0.0,0.0,0.0,0.0,0.0,0.0,0.0,0.0,0.0,0.0,0.0,0.0,0.0,0.0,0.0,0.0,0.0,0.0,0.0,0.0,0.0,0.0,0.0,0.0,0.0,0.0,0.0,0.0,0.0,0.0,0.0,0.0,0.0,0.0,0.0,0.0,0.0,0.0,0.0,0.0,0.0,0.0,0.0,0.0,0.0,0.0,0.0,0.0,0.0,0.0,0.0,0.0,0.0,0.0,0.0,0.0,0.0,0.0,0.0,0.0,0.0,0.0,0.0,0.0,0.0,0.0,0.0,0.0,0.0,0.0,0.0,0.0,0.0,0.0,0.0,0.0,0.0,0.0,0.0,0.0,0.0,0.0,0.0,0.0,0.0,0.0,0.0,0.0,0.0,0.0,0.0,0.0,0.0,0.0,0.0,0.0,0.0,0.0,0.0,-3.6782,-3.7957,-3.8799,-3.8974,-4.0231,-4.1114,-4.1114,-4.1268,-4.1237,-4.0864,0.0,0.0,0.0,0.0,0.0,0.0,0.0,0.0,0.0,0.0,0.0,0.0,0.0,0.0,0.0,0.0,0.0,0.0,0.0,0.0,0.0,0.0,0.0,0.0,0.0,0.0,0.0,0.0,0.0,0.0,0.0,0.0,0.0,0.0,0.0,0.0,0.0,0.0,0.0,0.0,0.0,0.0,0.0,0.0,0.0,0.0,0.0,0.0,0.0,0.0,0.0,0.0,0.0,0.0,0.0,0.0,0.0,0.0,0.0,0.0,0.0,0.0,0.0,0.0,0.0,0.0,0.0,0.0,0.0,0.0,0.0,0.0,0.0,0.0,0.0,0.0,0.0,0.0,0.0,0.0,0.0,0.0,0.0,0.0,0.0,0.0,0.0,0.0,0.0,0.0,0.0,0.0,0.0,0.0,0.0,0.0,0.0,0.0,0.0,0.0,0.0,0.0,-3.6513,-3.7327,-3.8034,-3.8274,-3.9575,-4.0453,-4.0453,-4.1021,-4.1114,0.0,0.0,0.0,0.0,0.0,0.0,0.0,0.0,0.0,0.0,0.0,0.0,0.0,0.0,0.0,0.0,0.0,0.0,0.0,0.0,0.0,0.0,0.0,0.0,0.0,0.0,0.0,0.0,0.0,0.0,0.0,0.0,0.0,0.0,0.0,0.0,0.0,0.0,0.0,0.0,0.0,0.0,0.0,0.0,0.0,0.0,0.0,0.0,0.0,0.0,0.0,0.0,0.0,0.0,0.0,0.0,0.0,0.0,0.0,0.0,0.0,0.0,0.0,0.0,0.0,0.0,0.0,0.0,0.0,0.0,0.0,0.0,0.0,0.0,0.0,0.0,0.0,0.0,0.0,0.0,0.0,0.0,0.0,0.0,0.0,0.0,0.0,0.0,0.0,0.0,0.0,0.0,0.0,0.0,0.0,0.0,0.0,0.0,0.0,0.0,0.0,0.0,0.0,-3.6382,-3.721,-3.7828,-3.7998,-3.9008,-3.9644,-3.9644,-3.9841,-3.9844,-3.9644,0.0,0.0,0.0,0.0,0.0,0.0,0.0,0.0,0.0,0.0,0.0,0.0,0.0,0.0,0.0,0.0,0.0,0.0,0.0,0.0,0.0,0.0,0.0,0.0,0.0,0.0,0.0,0.0,0.0,0.0,0.0,0.0,0.0,0.0,0.0,0.0,0.0,0.0,0.0,0.0,0.0,0.0,0.0,0.0,0.0,0.0,0.0,0.0,0.0,0.0,0.0,0.0,0.0,0.0,0.0,0.0,0.0,0.0,0.0,0.0,0.0,0.0,0.0,0.0,0.0,0.0,0.0,0.0,0.0,0.0,0.0,0.0,0.0,0.0,0.0,0.0,0.0,0.0,0.0,0.0,0.0,0.0,0.0,0.0,0.0,0.0,0.0,0.0,0.0,0.0,0.0,0.0,0.0,0.0,0.0,0.0,0.0,0.0,0.0,0.0,0.0,0.0,0.0,-3.6864,-3.7283,-3.7528,-3.825,-3.8804,-3.8906,-3.9113,-3.9181,-3.8978,0.0,0.0,0.0,0.0,0.0,0.0,0.0,0.0,0.0,0.0,0.0,0.0,0.0,0.0,0.0,0.0,0.0,0.0,0.0,0.0,0.0,0.0,0.0,0.0,0.0,0.0,0.0,0.0,0.0,0.0,0.0,0.0,0.0,0.0,0.0,0.0,0.0,0.0,0.0,0.0,0.0,0.0,0.0,0.0,0.0,0.0,0.0,0.0,0.0,0.0,0.0,0.0,0.0,0.0,0.0,0.0,0.0,0.0,0.0,0.0,0.0,0.0,0.0,0.0,0.0,0.0,0.0,0.0,0.0,0.0,0.0,0.0,0.0,0.0,0.0,0.0,0.0,0.0,0.0,0.0,0.0,0.0,0.0,0.0,0.0,0.0,0.0,0.0,0.0,0.0,0.0,0.0,0.0,0.0,0.0,0.0,0.0,0.0,0.0,0.0,0.0,0.0,0.0,-3.6359,-3.6537,-3.7023,-3.7591,-3.8072,-3.832,-3.8828,-3.891,-3.843,-3.8395,0.0,0.0,0.0,0.0,0.0,0.0,0.0,0.0,0.0,0.0,0.0,0.0,0.0,0.0,0.0,0.0,0.0,0.0,0.0,0.0,0.0,0.0,0.0,0.0,0.0,0.0,0.0,0.0,0.0,0.0,0.0,0.0,0.0,0.0,0.0,0.0,0.0,0.0,0.0,0.0,0.0,0.0,0.0,0.0,0.0,0.0,0.0,0.0,0.0,0.0,0.0,0.0,0.0,0.0,0.0,0.0,0.0,0.0,0.0,0.0,0.0,0.0,0.0,0.0,0.0,0.0,0.0,0.0,0.0,0.0,0.0,0.0,0.0,0.0,0.0,0.0,0.0,0.0,0.0,0.0,0.0,0.0,0.0,0.0,0.0,0.0,0.0,0.0,0.0,0.0,0.0,0.0,0.0,0.0,0.0,0.0,0.0,0.0,0.0,0.0,0.0,0.0,-3.6176,-3.7074,-3.8167,-3.8406,-3.8597,-3.8861,-3.8135,-3.7679,-3.7743,-3.7743,0.0,0.0,0.0,0.0,0.0,0.0,0.0,0.0,0.0,0.0,0.0,0.0,0.0,0.0,0.0,0.0,0.0,0.0,0.0,0.0,0.0,0.0,0.0,0.0,0.0,0.0,0.0,0.0,0.0,0.0,0.0,0.0,0.0,0.0,0.0,0.0,0.0,0.0,0.0,0.0,0.0,0.0,0.0,0.0,0.0,0.0,0.0,0.0,0.0,0.0,0.0,0.0,0.0,0.0,0.0,0.0,0.0,0.0,0.0,0.0,0.0,0.0,0.0,0.0,0.0,0.0,0.0,0.0,0.0,0.0,0.0,0.0,0.0,0.0,0.0,0.0,0.0,0.0,0.0,0.0,0.0,0.0,0.0,0.0,0.0,0.0,0.0,0.0,0.0,0.0,0.0,0.0,0.0,0.0,0.0,0.0,0.0,0.0,0.0,0.0,0.0,0.0,-3.4786,-3.6593,-3.8319,-3.8505,-3.8397,-3.8193,-3.7542,-3.6754,-3.5772,-3.5745,0.0,0.0,0.0,0.0,0.0,0.0,0.0,0.0,0.0,0.0,0.0,0.0,0.0,0.0,0.0,0.0,0.0,0.0,0.0,0.0,0.0,0.0,0.0,0.0,0.0,0.0,0.0,0.0,0.0,0.0,0.0,0.0,0.0,0.0,0.0,0.0,0.0,0.0,0.0,0.0,0.0,0.0,0.0,0.0,0.0,0.0,0.0,0.0,0.0,0.0,0.0,0.0,0.0,0.0,0.0,0.0,0.0,0.0,0.0,0.0,0.0,0.0,0.0,0.0,0.0,0.0,0.0,0.0,0.0,0.0,0.0,0.0,0.0,0.0,0.0,0.0,0.0,0.0,0.0,0.0,0.0,0.0,0.0,0.0,0.0,0.0,0.0,0.0,0.0,0.0,0.0,0.0,0.0,0.0,0.0,0.0,0.0,0.0,0.0,0.0,0.0,0.0,0.0,-3.5451,-3.7589,-3.8111,-3.8,-3.7206,-3.7006,-3.5948,-3.3769,0.0,0.0,0.0,0.0,0.0,0.0,0.0,0.0,0.0,0.0,0.0,0.0,0.0,0.0,0.0,0.0,0.0,0.0,0.0,0.0,0.0,0.0,0.0,0.0,0.0,0.0,0.0,0.0,0.0,0.0,0.0,0.0,0.0,0.0,0.0,0.0,0.0,0.0,0.0,0.0,0.0,0.0,0.0,0.0,0.0,0.0,0.0,0.0,0.0,0.0,0.0,0.0,0.0,0.0,0.0,0.0,0.0,0.0,0.0,0.0,0.0,0.0,0.0,0.0,0.0,0.0,0.0,0.0,0.0,0.0,0.0,0.0,0.0,0.0,0.0,0.0,0.0,0.0,0.0,0.0,0.0,0.0,0.0,0.0,0.0,0.0,0.0,0.0,0.0,0.0,0.0,0.0,0.0,0.0,0.0,0.0,0.0,0.0,0.0,0.0,0.0,0.0,0.0,0.0,-3.3869,-3.5629,-3.7385,-3.8141,-3.7355,-3.6377,-3.5173,-3.3729,0.0,0.0,0.0,0.0,0.0,0.0,0.0,0.0,0.0,0.0,0.0,0.0,0.0,0.0]}],[{"header":{"parameterUnit":"kt","parameterCategory":2,"dx":1,"dy":1,"la1":29.285339999999998,"la2":30.599998999999997,"lo1":-89.70041500000002,"lo2":-87.6738589999976,"nx":112,"ny":82,"refTime":"2022-09-17T18:00:00:Z","depth":0,"parameterNumber":2,"parameterNumberName":"V-component_of_WINDS"},"data":[7.6668,7.5643,7.4601,7.3708,7.2672,7.164,7.0765,6.9843,6.915,6.915,6.7766,6.6632,6.6979,6.6398,6.5877,6.6223,6.6286,6.6286,0.0,6.6286,6.6286,6.6286,6.6286,6.7199,6.956,7.0284,7.1511,7.3714,7.4375,7.4627,7.4627,7.4627,7.4627,7.4627,7.4627,7.4627,7.4627,7.4627,7.4627,7.4627,7.4627,7.4627,7.4627,7.4627,7.4627,7.4627,7.4627,7.4627,7.4627,7.4627,7.4627,7.4627,7.4627,7.4627,7.4627,7.4627,7.4627,7.4627,7.4627,7.4627,7.4627,7.4627,7.4627,7.4627,7.4627,7.4627,7.4627,7.4627,7.4627,7.4627,7.4627,7.4627,7.4627,7.4627,7.4627,7.4627,7.4627,7.4627,7.4627,7.4627,7.4846,7.5194,7.5644,7.6539,7.7645,7.9199,8.0355,8.0949,8.0659,8.0949,8.132,8.1644,8.1396,8.132,8.1644,8.2004,8.2239,8.2239,8.2239,8.2239,8.2239,8.2239,8.2239,8.2239,8.2239,8.2239,8.2239,8.2239,8.2239,8.2239,8.2239,8.2239,7.6007,7.4581,7.3189,7.2272,7.1241,7.0263,6.9315,6.8364,6.7721,6.7721,6.6255,6.5248,6.6129,6.5594,6.5122,6.5562,6.6003,6.6129,0.0,6.6003,6.6286,6.6286,6.6695,6.7923,7.0346,7.0976,7.2203,7.447,7.4627,7.4627,7.4627,7.4627,7.4627,7.4627,7.4627,7.4627,7.4627,7.4627,7.4627,7.4627,7.4627,7.4627,7.4627,7.4627,7.4627,7.4627,7.4627,7.4627,7.4627,7.4627,7.4627,7.4627,7.4627,7.4627,7.4627,7.4627,7.4627,7.4627,7.4627,7.4627,7.4627,7.4627,7.4627,7.4627,7.4627,7.4627,7.4627,7.4627,7.4627,7.4627,7.4627,7.4627,7.4627,7.4627,7.4627,7.4627,7.4627,7.4846,7.5032,7.5032,7.5516,7.6013,7.6261,7.7065,7.8274,8.0213,8.1479,8.2085,8.1726,8.2004,8.2239,8.2239,8.2239,8.2239,8.2239,8.2239,8.2239,8.2239,8.2239,8.2239,8.2239,8.2239,8.2239,8.2239,8.2239,8.2239,8.2239,8.2239,8.2239,8.2239,8.2239,8.2239,7.4766,7.3001,7.1308,6.9655,6.8979,6.8302,6.665,6.6286,6.6286,6.6286,6.6255,6.6223,6.6286,6.6255,6.5814,6.4587,6.5468,0.0,0.0,6.5468,6.6318,6.6349,6.7595,6.8993,7.0504,7.1794,7.3116,7.4533,7.4627,7.4627,7.4627,7.4627,7.4627,7.4627,7.4627,7.4627,7.4627,7.4627,7.4627,7.4627,7.4627,7.4627,7.4627,7.4627,7.4627,7.4627,7.4627,7.4627,7.4627,7.4627,7.4627,7.4627,7.4627,7.4627,7.4627,7.4627,7.4627,7.4627,7.4627,7.4627,7.4627,7.4627,7.4627,7.4627,7.4627,7.4627,7.4627,7.4627,7.4627,7.4627,7.4627,7.4627,7.4682,7.4682,7.4682,7.4737,7.4737,7.5302,7.5855,7.5855,7.7195,7.8425,7.8814,7.937,7.9495,7.872,8.0693,8.1883,8.0864,8.1603,8.2239,8.2239,8.2239,8.2239,8.2239,8.2239,8.2239,8.2239,8.2239,8.2239,8.2239,8.2239,8.2239,8.2239,8.2239,8.2239,8.2239,8.2239,8.2239,8.2239,8.2239,8.2239,7.47,7.29,7.1013,7.0357,6.8715,6.71,6.6429,6.6286,6.6286,6.6286,6.5531,0.0,0.0,0.0,6.5059,6.5657,0.0,6.616,6.5783,6.6066,6.6664,6.7671,6.8193,6.9339,7.1763,7.2276,7.3116,7.4533,7.4627,7.4627,7.4627,7.4627,7.4627,7.4627,7.4627,7.4627,7.4627,7.4627,7.4627,7.4627,7.4627,7.4627,7.4627,7.4627,7.4627,7.4627,7.4627,7.4627,7.4627,7.4627,7.4627,7.4627,7.4627,7.4627,7.4627,7.4627,7.4627,7.4627,7.4627,7.4627,7.4627,7.4627,7.4627,7.4627,7.4627,7.4627,7.4627,7.4627,7.4627,7.4627,7.4627,7.5063,7.5516,7.5516,7.5928,7.6365,7.6365,7.6487,7.6641,7.6641,7.7029,7.748,7.7891,7.9379,8.0491,8.0237,8.1355,8.2119,8.1842,8.2045,8.2239,8.2239,8.2239,8.2239,8.2239,8.2239,8.2239,8.2239,8.2239,8.2239,8.2239,8.2239,8.2239,8.2239,8.2239,8.2239,8.2239,8.2239,8.2239,8.2239,8.2239,8.2239,7.3882,7.2156,7.0317,6.9824,6.84,6.7009,6.6432,6.6286,6.6286,6.6286,0.0,0.0,0.0,0.0,0.0,0.0,6.594,6.6097,6.5531,6.594,6.679,6.8256,6.893,7.0158,7.2276,7.3031,7.3777,7.4596,7.4627,7.4627,7.4627,7.4627,7.4627,7.4627,7.4627,7.4627,7.4627,7.4627,7.4627,7.4627,7.4627,7.4627,7.4627,7.4627,7.4627,7.4627,7.4627,7.4627,7.4627,7.4627,7.4627,7.4533,7.34,7.2927,7.2927,7.2927,7.2927,7.2927,7.2927,7.2927,7.2927,7.2927,7.2927,7.2927,7.2927,7.2927,7.2927,7.2927,7.2927,7.2927,7.2927,7.3269,7.3765,7.4285,7.4998,7.5744,7.6358,7.7029,7.7529,7.7529,7.7825,7.7721,7.6897,7.8014,7.9037,7.9246,7.9823,8.0257,8.0257,8.0847,8.1228,8.1228,8.1818,8.2239,8.2239,8.2239,8.2239,8.2239,8.2239,8.2239,8.2239,8.2239,8.2239,8.2239,8.2239,8.2239,8.2239,8.2239,8.154,8.0257,8.0257,8.0257,7.2789,7.131,6.9765,6.8905,6.8303,6.7728,6.6834,0.0,6.6546,6.6594,0.0,6.6497,6.6432,0.0,0.0,6.4792,6.5531,6.5877,6.4712,6.5911,6.741,6.888,7.0052,7.1322,7.2591,7.3903,7.4627,7.4627,7.4627,7.4627,7.4627,7.4627,7.4627,7.4627,7.4501,7.4407,7.4407,7.4249,7.4186,7.4186,7.4186,7.4186,7.4186,7.4186,7.4186,7.4186,7.4186,7.4186,7.4186,7.4186,7.4186,7.3935,7.1511,7.0567,7.0567,7.0567,7.0567,7.0567,7.0567,7.0567,7.0567,7.0567,7.0567,7.0567,7.067,7.0774,7.0794,7.0794,7.0794,7.0794,7.0794,7.0845,7.1233,7.2383,7.3249,7.4149,7.5418,7.6906,7.7994,7.7994,7.8528,7.8286,7.6019,7.604,7.6524,7.6928,7.7282,7.7549,7.7549,7.8766,7.9633,7.9633,8.0847,8.1679,8.1679,8.1679,8.1679,8.1679,8.1679,8.1679,8.1679,8.1679,8.1679,8.1679,8.1679,8.1679,8.1679,8.1679,8.0257,7.7549,7.7549,7.7549,7.3027,7.2008,7.0919,7.0429,6.952,6.874,0.0,0.0,0.0,6.8429,6.8225,6.7866,6.734,6.7199,6.6913,6.6037,6.6129,6.6192,6.594,6.8644,7.1159,7.2482,7.2341,7.2654,7.4092,7.4501,7.4627,7.4627,7.4627,7.4627,7.4627,7.4627,7.4627,7.4627,7.3525,7.2927,7.2927,7.1889,7.1354,7.1354,7.1354,7.1354,7.1354,7.1354,7.1354,7.1354,7.1354,7.1354,7.1354,7.1354,7.1354,7.1322,7.0787,7.0567,7.0567,7.0567,7.0567,7.0567,7.0567,7.0567,7.0567,7.0567,7.0567,7.067,7.1209,7.1777,7.2301,7.2301,7.2301,7.2301,7.2301,7.2783,7.3323,7.3537,7.4223,7.4836,7.5135,7.5427,7.5683,7.5683,7.5771,7.5833,7.5647,7.604,7.6524,7.6928,7.7282,7.7549,7.7549,7.7826,7.8,7.8,7.828,7.8454,7.8454,7.8454,7.8454,7.8454,7.8454,7.8454,7.8454,7.8454,7.8454,7.8454,7.8454,7.8454,7.8454,7.8454,7.8138,7.7549,7.7549,7.7549,7.2107,7.1954,7.1723,7.0947,7.0141,0.0,0.0,6.8539,6.8527,6.8959,6.8684,6.838,6.8225,6.8063,6.8046,6.8457,6.8506,6.8762,6.9483,7.1783,7.3461,7.3652,7.3986,7.4272,7.4619,7.4627,7.4627,7.4627,7.3998,7.3305,7.2644,7.2613,7.2613,7.2613,7.192,7.1574,7.1574,7.0913,7.0567,7.0567,7.0567,7.0567,7.0567,7.0567,7.0567,7.0567,7.0567,7.0567,7.0567,7.0567,6.9717,6.8426,6.8426,6.8426,6.8477,6.8876,6.9025,6.9074,6.9385,6.9499,6.9499,6.9499,6.9499,6.9547,6.9867,7.0245,7.0558,7.0558,7.0558,7.0558,7.0558,7.0881,7.1319,7.2073,7.2828,7.3572,7.4326,7.4759,7.5021,7.5021,7.3815,7.2902,7.3384,7.3872,7.4307,7.4694,7.5074,7.5332,7.5332,7.6026,7.6474,7.6474,7.7133,7.7549,7.7549,7.7549,7.7549,7.7549,7.7549,7.7549,7.7549,7.7549,7.7549,7.7549,7.7549,7.7549,7.7549,7.6061,7.5332,7.5332,7.5332,7.5332,7.0997,7.1409,7.1899,7.1151,7.0693,0.0,6.9318,6.9047,6.9101,6.9605,6.9382,6.9112,6.922,6.9178,6.9522,7.058,7.0957,7.1879,7.3908,7.5057,7.5386,7.4673,7.5173,7.5386,7.4728,7.4452,7.424,7.424,7.3164,7.2056,7.1062,7.0999,7.0999,7.0999,7.0561,7.0332,7.0332,6.9926,6.9748,6.9748,6.9748,6.9748,6.9748,6.9748,6.9748,6.9748,6.9748,6.9748,6.9748,6.9748,6.8364,6.6286,6.6286,6.6384,6.6577,6.7199,6.7527,6.7714,6.8245,6.8425,6.8425,6.8425,6.8425,6.847,6.8605,6.8649,6.8694,6.8827,6.8838,6.8838,6.8838,6.8838,6.9133,7.0299,7.1054,7.1825,7.2963,7.3682,7.415,7.415,7.2206,7.076,7.1348,7.1705,7.2088,7.2536,7.2899,7.3079,7.3079,7.4188,7.4985,7.4985,7.6026,7.672,7.672,7.672,7.672,7.672,7.672,7.672,7.672,7.672,7.672,7.672,7.672,7.672,7.6685,7.4257,7.3149,7.3219,7.3114,7.3184,7.0442,7.0615,7.0668,7.1595,7.1511,0.0,7.1477,7.1275,7.1235,7.1978,7.1791,7.1247,7.0249,7.1031,7.1649,7.0881,7.1818,7.4053,7.8174,7.8318,7.7937,7.784,7.6154,7.4894,7.4844,7.3693,7.29,7.29,7.277,7.2608,7.2495,7.2495,7.2495,7.2495,7.0526,6.9513,6.9513,6.7701,6.6758,6.6758,6.6758,6.6758,6.6758,6.6758,6.6758,6.6758,6.6758,6.6758,6.6758,6.6758,6.6569,6.6286,6.6286,6.6722,6.734,6.7434,6.782,6.8335,6.8425,6.8425,6.8425,6.8425,6.8425,6.856,6.9221,6.9438,6.96,7.0158,7.0357,7.0357,7.0357,7.0357,7.0391,7.0516,7.0633,7.0708,7.0875,7.0991,7.1066,7.1066,7.0798,7.0848,7.1705,7.1898,7.2167,7.29,7.3078,7.3079,7.3079,7.3252,7.3356,7.3356,7.3495,7.3599,7.3599,7.3599,7.3599,7.3599,7.3599,7.3599,7.3599,7.3599,7.3599,7.3599,7.3599,7.3599,7.3599,7.3252,7.3324,7.3767,7.3324,7.36,6.8222,6.93,7.0543,7.0545,0.0,0.0,7.1662,7.1623,7.2094,7.3559,7.3345,7.3032,7.3643,7.3826,7.4014,7.4435,7.4974,7.5733,7.6754,7.6596,7.6232,7.5769,7.488,7.4108,7.3629,7.306,7.2703,7.2703,7.1923,7.1435,7.1435,7.0655,7.0247,7.0247,6.8965,6.8266,6.8266,6.6959,6.6286,6.6286,6.6286,6.6286,6.6286,6.6286,6.6286,6.6286,6.6286,6.6286,6.6335,6.7182,6.751,6.751,6.751,6.7696,6.8095,6.8515,6.8871,6.9134,6.9567,6.9695,6.9695,6.9695,6.9695,6.9737,7.0033,7.015,7.0233,7.0481,7.0563,7.0563,7.0563,7.0563,7.0563,7.0563,7.0563,7.0563,7.0563,7.0563,7.0678,7.0955,7.1201,7.1477,7.1859,7.2126,7.2388,7.2719,7.29,7.3079,7.3079,7.3079,7.3079,7.3079,7.3079,7.3079,7.3079,7.3079,7.3079,7.3079,7.3079,7.3079,7.3079,7.3079,7.3079,7.3079,7.3079,7.3079,7.3079,7.37,7.4098,7.4325,7.4098,7.4228,6.6453,0.0,0.0,0.0,0.0,0.0,7.1778,7.1894,7.2509,7.4022,7.3812,7.39,7.5635,7.5644,7.567,7.6616,7.674,7.6327,7.5199,7.5021,7.4847,7.4269,7.3814,7.3402,7.2821,7.2368,7.2105,7.2105,7.1167,7.0577,7.0577,6.956,6.9014,6.9014,6.8413,6.805,6.805,6.7261,6.6882,6.6882,6.6882,6.6882,6.6882,6.6882,6.6882,6.6882,6.6882,6.6882,6.6977,6.8017,6.8425,6.8425,6.8425,6.856,6.8827,6.9351,6.9728,6.9907,7.0399,7.0563,7.0563,7.0563,7.0563,7.0563,7.0563,7.0563,7.0563,7.0563,7.0563,7.0563,7.0563,7.0563,7.0563,7.0563,7.0563,7.0563,7.0563,7.0563,7.0719,7.1229,7.1584,7.1821,7.205,7.2313,7.2536,7.2646,7.2935,7.3079,7.3079,7.3079,7.3079,7.3079,7.3079,7.3079,7.3079,7.3079,7.3079,7.3079,7.3079,7.3079,7.3079,7.3079,7.3079,7.3079,7.3219,7.3324,7.3324,7.4196,7.4641,7.4641,7.48,7.4918,0.0,0.0,0.0,6.9814,7.107,7.205,7.2388,7.2496,7.2609,7.3041,7.3147,7.3454,7.4639,7.5583,7.6054,7.574,7.5656,7.5528,7.5108,7.5021,7.5021,7.5021,7.3781,7.291,7.2901,7.1527,7.0615,7.0615,7.0589,7.0548,7.0548,7.0522,7.0522,7.0522,6.9864,6.9557,6.9557,6.8738,6.838,6.838,6.838,6.838,6.838,6.838,6.838,6.838,6.838,6.838,6.838,6.8425,6.8425,6.8425,6.8425,6.8871,6.9524,6.96,7.0024,7.0563,7.0563,7.0563,7.0563,7.0563,7.0563,7.0563,7.0563,7.0563,7.0563,7.0563,7.0563,7.0563,7.0563,7.0563,7.0563,7.0563,7.0563,7.0563,7.0563,7.0563,7.0719,7.1229,7.1342,7.1584,7.2351,7.2533,7.2646,7.3008,7.3113,7.3079,7.3079,7.3079,7.3079,7.3079,7.3079,7.3079,7.3079,7.3079,7.3079,7.3079,7.3079,7.3079,7.3079,7.3079,7.3079,7.3079,7.36,7.3834,7.3834,7.4389,7.4641,7.4641,7.5163,7.56,6.5864,6.7257,6.8644,7.0269,7.1968,7.3254,7.3496,7.3732,7.4148,7.4997,7.4857,7.4985,7.6051,7.6226,7.6141,7.5922,7.5201,7.4264,7.3004,7.2377,7.2038,7.2038,7.1636,7.1334,7.1334,7.0865,7.0563,7.0563,7.0563,7.0563,7.0563,7.0563,7.0563,7.0563,7.0357,7.0066,6.96,6.8827,6.8425,6.8425,6.8425,6.8425,6.8425,6.8425,6.8425,6.8425,6.8425,6.7877,6.7001,6.7001,6.7001,6.7001,6.7001,6.7163,6.7364,6.7364,6.7556,6.7753,6.7753,6.7753,6.7753,6.7753,6.7753,6.7753,6.7753,6.7753,6.7753,6.7753,6.7753,6.7753,6.7753,6.7753,6.7948,6.8887,6.9122,6.939,7.0362,6.949,6.8524,6.8708,6.9113,6.9472,6.9751,6.9785,7.02,7.1378,7.1517,7.1899,7.2974,7.3079,7.3079,7.3079,7.3079,7.3079,7.3079,7.3079,7.3079,7.3079,7.3428,7.3634,7.3634,7.3934,7.4131,7.4131,7.4293,7.3489,7.1662,7.222,7.2441,7.2441,7.2638,7.3347,6.6288,6.8122,7.0097,7.1174,7.2807,7.4163,7.4261,7.4484,7.4834,7.5502,7.5375,7.5487,7.67,7.622,7.5573,7.5337,7.4397,7.3236,7.1978,7.11,7.0563,7.0563,7.0563,7.0563,7.0563,7.0563,7.0563,7.0563,7.0563,7.0563,7.0563,7.0563,7.0563,7.0563,7.0563,7.0357,6.9907,6.9438,6.8915,6.8389,6.8389,6.8126,6.7665,6.7665,6.7665,6.7665,6.7665,6.7144,6.6311,6.6311,6.6311,6.6311,6.6311,6.6311,6.6311,6.6311,6.6311,6.6311,6.6311,6.6311,6.6311,6.6311,6.6311,6.6311,6.6311,6.6311,6.6311,6.6311,6.6311,6.6311,6.6311,6.6311,6.6546,6.7451,6.7647,6.7921,6.8951,6.8358,6.7713,6.7853,6.833,6.8756,6.8885,6.8917,6.9266,7.0245,7.0419,7.0769,7.1782,7.1887,7.1887,7.1887,7.1887,7.1887,7.1887,7.1887,7.1887,7.1887,7.2216,7.2409,7.2409,7.2723,7.2908,7.2908,7.306,7.2422,7.0825,7.1185,7.1337,7.1337,7.1337,7.1879,6.7155,6.9735,7.2331,7.2467,7.3603,7.4672,7.4703,7.4703,7.4703,7.4672,7.4672,7.5133,7.6488,7.563,7.461,7.4193,7.3392,7.2618,7.211,7.1263,7.0726,7.0726,7.0652,7.0652,7.0645,7.0645,7.0604,7.0563,7.0563,7.053,7.0429,7.0429,7.0429,7.0362,7.0362,7.0362,7.0362,7.0362,6.9658,6.8284,6.8284,6.758,6.6311,6.6311,6.621,6.6076,6.6076,6.6076,6.6076,6.6076,6.6076,6.6076,6.6076,6.6076,6.6076,6.6076,6.6076,6.6076,6.6076,6.6076,6.6076,6.6076,6.6076,6.6076,6.6076,6.6076,6.6076,6.6076,6.6076,6.6076,6.6076,6.6076,6.6076,6.6076,6.6109,6.6219,6.6495,6.7227,6.792,6.8321,6.8704,6.9135,6.9495,6.9524,6.9589,6.963,6.9666,6.9666,6.9772,6.9772,6.9772,6.9772,6.9772,6.9772,6.9772,6.9772,6.9772,6.9772,6.9801,6.9831,6.9831,6.986,6.986,6.986,7.0175,7.0574,7.1085,7.1085,7.1085,7.1085,7.1085,7.1132,6.8616,7.0722,7.2705,7.4242,7.4937,7.5311,7.5592,7.564,7.5592,7.5282,7.5223,7.5418,7.6095,7.59,7.562,7.5392,7.4689,7.4049,7.3855,7.3011,7.2441,7.2441,7.2366,7.2067,7.1492,7.1453,7.1179,7.0604,7.0563,7.0094,6.9021,6.8954,6.8451,6.7418,6.7384,6.7384,6.7384,6.7384,6.7216,6.6847,6.6847,6.6646,6.6311,6.6311,6.507,6.292,6.292,6.292,6.292,6.292,6.292,6.292,6.292,6.292,6.292,6.292,6.292,6.292,6.292,6.292,6.292,6.292,6.292,6.292,6.292,6.292,6.292,6.292,6.292,6.292,6.292,6.292,6.292,6.292,6.3758,6.4641,6.5012,6.48,6.4712,6.5188,6.5856,6.6317,6.643,6.643,6.6819,6.7889,6.8031,6.8456,6.963,6.9772,6.9772,6.9772,6.9772,6.9772,6.9772,6.9772,6.9772,6.9772,7.0156,7.0381,7.0381,7.0745,7.0967,7.0967,6.867,6.7605,6.7701,6.7701,6.7701,6.7701,6.7701,6.8388,6.9437,7.2094,7.4188,7.5376,7.5684,7.5704,7.5952,7.6006,7.5952,7.574,7.5684,7.5768,7.5952,7.6006,7.5979,7.5934,7.5197,7.4587,7.4463,7.3659,7.3046,7.3011,7.294,7.2726,7.229,7.1598,7.0922,7.0192,6.9501,6.8637,6.7552,6.7479,6.7149,6.6311,6.6311,6.6311,6.6311,6.6311,6.6311,6.6311,6.5568,6.4898,6.4332,6.4332,6.3389,6.1814,6.1814,6.1814,6.1814,6.1814,6.1814,6.1814,6.1814,6.1814,6.1814,6.1814,6.1814,6.1814,6.1814,6.1814,6.1814,6.1814,6.1814,6.1814,6.1814,6.1814,6.1814,6.1814,6.1814,6.1814,6.1814,6.1814,6.1814,6.1814,6.2635,6.3669,6.4452,6.4281,6.4154,6.4799,6.5415,6.5809,6.5809,6.5809,6.6095,6.6891,6.7034,6.7329,6.8222,6.8329,6.8329,6.8329,6.8329,6.8329,6.8329,6.8329,6.8329,6.8329,6.8603,6.8795,6.8795,6.9058,6.9182,6.9182,6.7413,6.6474,6.6474,6.6474,6.6474,6.6474,6.6474,6.6979,6.9849,7.3097,7.5465,7.5898,7.6006,7.6006,7.6006,7.6006,7.6006,7.6006,7.6006,7.6006,7.6006,7.6006,7.6006,7.6006,7.5342,7.477,7.4684,7.3955,7.3286,7.301,7.2906,7.2767,7.2455,7.1204,7.0166,6.9456,6.815,6.7041,6.6316,6.6278,6.6177,6.5975,6.5975,6.5975,6.5975,6.5975,6.5975,6.5941,6.4557,6.3241,6.1923,6.2029,6.2066,6.2066,6.2066,6.2066,6.2066,6.2066,6.2066,6.2066,6.2066,6.2066,6.2066,6.2066,6.2066,6.2066,6.2066,6.2066,6.2066,6.2066,6.2066,6.2066,6.2066,6.2066,6.2066,6.2066,6.2066,6.2066,6.2066,6.2066,6.21,6.2101,6.2585,6.3342,6.4481,6.4799,6.5079,6.5757,6.6161,6.6427,6.6474,6.6474,6.6474,6.6474,6.6474,6.6474,6.6474,6.6474,6.6474,6.6474,6.6474,6.6474,6.6474,6.6474,6.6474,6.6474,6.6474,6.6474,6.6474,6.6474,6.6474,6.6474,6.6474,6.6474,6.6474,6.6474,6.6474,6.6474,6.6474,6.6521,7.0345,7.1658,7.2757,7.5356,7.6006,7.6006,7.6006,7.6006,7.6006,7.6006,7.6006,7.6006,7.6006,7.6006,7.6006,7.6006,7.5862,7.5779,7.5752,7.5414,7.4687,7.3372,7.3061,7.2139,7.0211,6.9762,6.9269,6.8507,6.8197,6.7507,6.6198,6.6129,6.5543,6.4265,6.4196,6.4196,6.4196,6.4196,6.4196,6.4196,6.392,6.339,6.2619,6.318,6.3437,6.3437,6.3437,6.3437,6.3437,6.3437,6.3437,6.3437,6.3437,6.3437,6.3437,6.3437,6.3437,6.3437,6.3437,6.3437,6.3437,6.3437,6.3437,6.3437,6.3437,6.3437,6.3437,6.3437,6.3437,6.3437,6.3437,6.3437,6.3435,6.3592,6.4084,6.4556,6.4562,6.5079,6.5601,6.5835,6.5936,6.6087,6.6427,6.6474,6.6474,6.6474,6.6474,6.6474,6.6474,6.6474,6.6474,6.6474,6.6474,6.6474,6.6474,6.6474,6.6474,6.6474,6.6474,6.6474,6.6474,6.6474,6.6474,6.6474,6.6474,6.6474,6.6474,6.6474,6.6474,6.6474,6.6474,6.6705,6.9459,7.0723,7.189,7.4201,7.5392,7.6006,7.6006,7.6006,7.6006,7.6006,7.6006,7.6006,7.6006,7.6006,7.6006,7.6006,7.6006,7.569,7.4816,7.4572,7.386,7.2152,7.187,7.1324,7.0102,6.9193,6.8399,6.769,6.6862,6.597,6.4927,6.4861,6.4546,6.3783,6.3748,6.3748,6.3748,6.3748,6.3748,6.3748,6.3748,6.3627,6.3309,6.3967,6.4089,6.3748,6.3748,6.3748,6.3748,6.3748,6.3748,6.3748,6.3748,6.3748,6.3748,6.3748,6.3748,6.3748,6.3748,6.3748,6.3748,6.3748,6.3748,6.3748,6.3748,6.3748,6.3748,6.3748,6.3748,6.3748,6.3748,6.3748,6.3779,6.384,6.475,6.5608,6.5582,6.585,6.6136,6.6185,6.621,6.6259,6.645,6.6474,6.6474,6.6474,6.6474,6.6474,6.6474,6.6474,6.6474,6.6474,6.6474,6.6474,6.6474,6.6474,6.6474,6.6474,6.6474,6.6474,6.6474,6.6937,6.7172,6.7172,6.7172,6.7172,6.7172,6.7172,6.7172,6.7172,6.7172,6.7332,6.8484,6.9893,7.1301,7.319,7.4598,7.5609,7.5934,7.6156,7.6302,7.6302,7.6302,7.6302,7.6302,7.6302,7.6193,7.5841,7.5768,7.521,7.3525,7.3221,7.2514,7.0663,7.0404,7.0154,6.956,6.8292,6.7318,6.6826,6.5639,6.4706,6.4204,6.4209,6.4209,6.4209,6.4209,6.4209,6.4209,6.4209,6.4209,6.4209,6.4209,6.4084,6.3963,6.4649,6.4649,6.4209,6.4209,6.4209,6.4209,6.4209,6.4209,6.4209,6.4209,6.4209,6.4209,6.4209,6.4209,6.4209,6.4209,6.4209,6.4209,6.4209,6.4209,6.4209,6.4209,6.4209,6.4209,6.4209,6.4209,6.4209,6.4209,6.4204,6.4234,6.4263,6.5308,6.6307,6.6427,6.645,6.6474,6.6474,6.6474,6.6474,6.6474,6.6474,6.6474,6.6474,6.6474,6.6521,6.6637,6.6637,6.6683,6.6796,6.676,6.676,6.676,6.676,6.676,6.676,6.676,6.676,6.676,6.7437,6.7855,6.7855,6.7837,6.7855,6.7855,6.7874,6.7874,6.7874,6.7874,6.7928,6.8159,6.9098,6.9929,7.2937,7.3768,7.4237,7.5681,7.6628,7.7253,7.7253,7.7253,7.7253,7.7253,7.7253,7.679,7.5335,7.5151,7.4542,7.2826,7.2485,7.1663,6.9613,6.9231,6.8373,6.6339,6.6001,6.5903,6.5815,6.5708,6.5575,6.5522,6.5522,6.5522,6.5522,6.5522,6.5522,6.5522,6.5522,6.5522,6.5522,6.5522,6.5217,6.4684,6.5298,6.5575,6.5522,6.5522,6.5522,6.5522,6.5522,6.5522,6.5522,6.5522,6.5522,6.5522,6.5522,6.5522,6.5522,6.5522,6.5522,6.5522,6.5522,6.5522,6.5522,6.5522,6.5522,6.5522,6.5522,6.5522,6.5522,6.5522,6.5592,6.5757,6.585,6.6112,6.6283,6.6307,6.6403,6.6474,6.6474,6.6474,6.6474,6.6474,6.6474,6.6474,6.6474,6.6474,6.6637,6.7117,6.7181,6.7328,6.7668,6.7706,6.7706,6.7706,6.7706,6.7706,6.7706,6.7706,6.7706,6.7706,6.7818,6.7855,6.7855,6.7818,6.7835,6.7835,6.796,6.8032,6.8032,6.8032,6.8201,6.643,6.8205,6.9996,7.1253,7.303,7.4661,7.5296,7.4928,7.474,7.5755,7.6696,7.7381,7.7381,7.6586,7.5755,7.5108,7.4167,7.2953,7.1333,7.1036,7.0328,6.8471,6.8163,6.7679,6.6737,6.6551,6.6528,6.6528,6.6528,6.6528,6.6528,6.6528,6.6528,6.6528,6.6528,6.6528,6.6528,6.6295,6.6161,6.6161,6.5835,6.5875,6.6151,6.6376,6.6528,6.6528,6.6528,6.6528,6.6528,6.6528,6.6528,6.6528,6.6528,6.6528,6.6528,6.6528,6.6528,6.6528,6.6528,6.6528,6.6459,6.6247,6.6161,6.6112,6.5783,6.5715,6.5715,6.5715,6.5715,6.5741,6.5783,6.5835,6.6076,6.6834,6.7114,6.7213,6.7213,6.7255,6.7296,6.7296,6.7296,6.7296,6.7296,6.7296,6.7296,6.7296,6.7296,6.7393,6.7589,6.7628,6.7686,6.78,6.7855,6.7855,6.7855,6.7855,6.7855,6.7855,6.7855,6.8053,6.852,6.8535,6.8535,6.8535,6.8552,6.8521,6.8521,6.8668,6.8748,6.8748,6.8748,6.8803,6.5186,6.699,6.8941,6.9954,7.1905,7.3709,7.4188,7.3592,7.3245,7.4448,7.554,7.6336,7.6336,7.5429,7.4522,7.4041,7.2949,7.16,7.0064,6.9823,6.9345,6.7984,6.7726,6.7537,6.7263,6.714,6.7078,6.7078,6.7078,6.7078,6.7078,6.7078,6.7078,6.7078,6.7078,6.7078,6.7078,6.679,6.6669,6.6646,6.6295,6.6436,6.7078,6.7078,6.7078,6.7078,6.7078,6.7078,6.7078,6.7078,6.7078,6.7078,6.7078,6.7078,6.7078,6.7078,6.7078,6.7078,6.7078,6.7078,6.7014,6.6723,6.6669,6.6564,6.6187,6.6125,6.6125,6.6125,6.6125,6.6114,6.6259,6.6367,6.6633,6.7496,6.7763,6.7855,6.7855,6.7855,6.7855,6.7855,6.7855,6.7855,6.7855,6.7855,6.7855,6.7855,6.7855,6.7855,6.7855,6.7947,6.8071,6.8174,6.8191,6.8191,6.8191,6.8191,6.8191,6.8191,6.8191,6.8404,6.8993,6.8996,6.9009,6.9009,6.9036,6.9085,6.9085,6.922,6.9254,6.9254,6.9254,6.9254,6.4892,6.5334,6.6143,6.9401,7.0211,7.0597,7.2197,7.3215,7.3866,7.3866,7.3866,7.3903,7.3903,7.3866,7.3305,7.1661,7.1362,7.0801,6.9217,6.903,6.8831,6.8271,6.8117,6.7836,6.732,6.714,6.7078,6.7078,6.7078,6.7078,6.7078,6.7078,6.7078,6.7078,6.7078,6.7078,6.7078,6.7078,6.7078,6.7078,6.702,6.7057,6.7078,6.7078,6.7078,6.7078,6.7078,6.7078,6.7078,6.7078,6.7078,6.7078,6.7078,6.7078,6.7078,6.7078,6.7078,6.7078,6.7078,6.7078,6.7078,6.7078,6.7078,6.7078,6.702,6.7057,6.7057,6.7057,6.7057,6.7078,6.7202,6.742,6.7687,6.78,6.7855,6.7855,6.7855,6.7855,6.7855,6.7855,6.7855,6.7855,6.7855,6.7855,6.7855,6.7855,6.7855,6.7855,6.7855,6.8174,6.8551,6.8929,6.8993,6.8993,6.8993,6.8993,6.8993,6.8993,6.8993,6.9006,6.9006,6.901,6.9024,6.9024,6.9145,6.9202,6.9202,6.9343,6.9402,6.9402,6.9402,6.9402,6.2939,6.3572,6.4911,6.7122,6.8522,6.9192,6.8544,6.9503,7.0838,7.1936,7.216,7.2497,7.3656,7.2908,7.196,7.1399,7.0427,6.9567,6.9081,6.9006,6.8966,6.878,6.8656,6.8461,6.8197,6.8134,6.8086,6.7997,6.798,6.798,6.798,6.798,6.798,6.798,6.798,6.798,6.798,6.7726,6.7593,6.7593,6.7873,6.798,6.798,6.798,6.798,6.798,6.798,6.798,6.798,6.798,6.798,6.798,6.798,6.798,6.798,6.798,6.798,6.798,6.798,6.798,6.7944,6.7689,6.7593,6.7535,6.7161,6.7078,6.7099,6.7161,6.7182,6.7364,6.8134,6.8383,6.8483,6.8596,6.8648,6.8648,6.8648,6.8648,6.8648,6.8648,6.8648,6.8648,6.8648,6.8648,6.8648,6.8648,6.8648,6.8648,6.8648,6.8737,6.8874,6.8993,6.9006,6.9006,6.9006,6.9006,6.9006,6.9006,6.9072,6.916,6.916,6.9145,6.9123,6.9123,6.9168,6.9213,6.9213,6.9343,6.9402,6.9402,6.9402,6.941,6.2065,6.2327,6.3449,6.5131,6.5879,6.6253,6.6453,6.7339,6.8561,7.0172,7.0546,7.092,7.1921,7.1234,7.051,7.051,6.9685,6.9061,6.902,6.9006,6.9009,6.9074,6.8932,6.8799,6.8766,6.867,6.8557,6.8442,6.8442,6.8442,6.8442,6.8442,6.8452,6.8552,6.8589,6.8611,6.8724,6.8377,6.8245,6.8371,6.8602,6.8724,6.8724,6.8724,6.8724,6.8724,6.8724,6.8724,6.8724,6.8724,6.8724,6.8724,6.8724,6.8654,6.8589,6.8589,6.8514,6.8442,6.8442,6.8442,6.8394,6.814,6.8071,6.7981,6.7671,6.7558,6.7614,6.7763,6.7745,6.7978,6.881,6.902,6.9032,6.9142,6.9153,6.9153,6.9153,6.9153,6.9153,6.9153,6.9153,6.9153,6.9153,6.9153,6.9153,6.9153,6.9153,6.9153,6.9153,6.9153,6.9153,6.9153,6.9153,6.9153,6.9153,6.9153,6.9153,6.9153,6.9211,6.9279,6.9259,6.9308,6.9354,6.9374,6.9345,6.9373,6.9373,6.9437,6.9483,6.9483,6.9483,6.9466,6.1879,6.1467,6.1804,6.3374,6.2713,6.2438,6.5492,6.6455,6.714,6.8709,6.9232,6.9341,6.9239,6.9236,6.9236,6.9236,6.9236,6.9198,6.9023,6.9035,6.9086,6.9215,6.9023,6.8897,6.902,6.8817,6.8596,6.8483,6.8467,6.8467,6.8467,6.8467,6.8619,6.8835,6.8835,6.8961,6.9215,6.8961,6.8973,6.9236,6.9187,6.9215,6.9215,6.9215,6.9215,6.9215,6.9215,6.9215,6.9215,6.9215,6.9215,6.9215,6.9215,6.9044,6.8835,6.8835,6.8696,6.8467,6.8467,6.8467,6.8467,6.8467,6.8467,6.8467,6.8483,6.8483,6.8498,6.8626,6.8678,6.8789,6.927,6.9391,6.9391,6.9391,6.9391,6.9391,6.9391,6.9391,6.9391,6.9391,6.9391,6.9391,6.9391,6.9391,6.9391,6.9391,6.9391,6.9391,6.9391,6.9391,6.9391,6.9391,6.9391,6.9391,6.9391,6.9391,6.9285,6.909,6.9195,6.9248,6.9223,6.9477,6.9579,6.9572,6.96,6.9573,6.9573,6.9573,6.9573,6.9573,6.9573,6.9578,6.0446,5.9661,6.0072,6.1766,6.1979,6.1995,6.2858,6.4991,6.691,6.7325,6.8452,6.9374,6.937,6.937,6.937,6.937,6.937,6.9353,6.9308,6.9298,6.9317,6.9324,6.9317,6.928,6.928,6.9229,6.9182,6.9041,6.9032,6.9009,6.9009,6.9009,6.9032,6.9101,6.9101,6.9123,6.9215,6.9123,6.9171,6.9361,6.9259,6.9215,6.9215,6.9215,6.9215,6.9215,6.9215,6.9215,6.9215,6.9215,6.9215,6.9215,6.9215,6.9145,6.9101,6.9101,6.9055,6.9009,6.9009,6.9009,6.9009,6.9009,6.9009,6.902,6.9029,6.9041,6.9063,6.9198,6.9229,6.9231,6.9349,6.9391,6.9391,6.9391,6.9391,6.9391,6.9391,6.9391,6.9391,6.9391,6.9391,6.9391,6.9391,6.9391,6.9391,6.9391,6.9391,6.9391,6.9391,6.9391,6.9391,6.9391,6.9391,6.9391,6.9391,6.9391,6.8412,6.6114,6.7103,6.776,6.7769,6.8939,6.9595,6.96,6.9605,6.9573,6.9573,6.9573,6.9573,6.9573,6.9573,6.9655,5.9773,5.91,5.9344,6.0378,6.0688,6.0941,6.1818,6.34,6.5147,6.6735,6.7807,6.8701,6.944,6.9629,6.9647,6.9591,6.9577,6.9519,6.9399,6.9391,6.9422,6.9533,6.9475,6.9406,6.9483,6.9433,6.9345,6.9223,6.9194,6.9211,6.9211,6.9191,6.9259,6.9364,6.9336,6.9364,6.9488,6.9475,6.9502,6.9572,6.952,6.9458,6.9458,6.9458,6.9458,6.9458,6.9458,6.9458,6.9458,6.9458,6.9458,6.9458,6.9458,6.9458,6.9442,6.9354,6.928,6.927,6.9208,6.9215,6.9215,6.9215,6.9215,6.9187,6.9201,6.9221,6.9204,6.9373,6.9528,6.9685,6.9665,6.9097,6.8491,6.8491,6.7885,6.735,6.735,6.735,6.735,6.735,6.735,6.735,6.735,6.735,6.735,6.735,6.735,6.735,6.735,6.735,6.735,6.735,6.735,6.7317,6.7333,6.7333,6.6636,6.5021,6.5732,6.6177,6.6183,6.702,6.744,6.7445,6.7381,6.7727,6.8525,6.8525,6.8906,6.959,6.959,6.9629,5.9568,5.9141,5.9203,5.9433,5.9508,5.9886,6.1335,6.1958,6.3044,6.5914,6.7004,6.7865,6.9196,6.9735,6.9948,6.982,6.9773,6.9712,6.951,6.9459,6.954,6.9749,6.96,6.949,6.9608,6.9516,6.9429,6.9279,6.9309,6.9309,6.9309,6.9299,6.9384,6.9591,6.9546,6.9585,6.9802,6.9818,6.9838,6.9838,6.9829,6.984,6.984,6.984,6.984,6.984,6.984,6.984,6.984,6.984,6.984,6.984,6.984,6.984,6.9788,6.9546,6.9452,6.9437,6.9354,6.9298,6.9298,6.9298,6.9298,6.9308,6.9317,6.9335,6.9248,6.8802,6.8893,6.9188,6.9188,6.8125,6.7026,6.7026,6.5958,6.4929,6.4929,6.4922,6.4917,6.4917,6.4917,6.4917,6.4917,6.4917,6.4917,6.4917,6.4917,6.4917,6.4917,6.4917,6.4917,6.4917,6.4917,6.4922,6.4935,6.4935,6.468,6.4161,6.4123,6.4237,6.4503,6.4529,6.4621,6.4877,6.4787,6.5431,6.6866,6.6866,6.7543,6.8859,6.8859,6.8859,5.9731,5.936,5.9448,5.9601,5.9631,5.973,6.0096,6.1335,6.2519,6.3047,6.5446,6.7535,6.7754,6.9009,6.9938,6.9813,6.9777,6.978,6.9738,6.9736,6.9734,6.9767,6.9734,6.9735,6.9731,6.9739,6.9742,6.9705,6.9705,6.9704,6.9704,6.9698,6.9693,6.9736,6.9835,6.9905,6.9949,6.9954,6.9956,6.9956,6.995,6.9949,6.9949,6.9949,6.9949,6.9949,6.9949,6.9949,6.9949,6.9949,6.9949,6.9949,6.9949,6.9949,6.9945,6.978,6.9719,6.9711,6.9692,6.9762,6.9859,6.9859,6.9859,6.9859,6.9849,6.9854,6.9242,6.6287,6.5485,6.5516,6.5516,6.5326,6.5136,6.5136,6.5034,6.4919,6.4919,6.4942,6.4917,6.4917,6.4917,6.4917,6.4917,6.4917,6.4917,6.4917,6.4917,6.4917,6.4917,6.4917,6.4917,6.4917,6.4917,6.4922,6.4935,6.4935,6.3668,6.0669,6.0465,6.111,6.2554,6.2618,6.3293,6.4733,6.4762,6.4867,6.5132,6.5132,6.5246,6.5469,6.5469,6.5469,5.956,5.9527,5.971,5.9786,5.9759,5.9803,5.9866,6.048,6.1284,6.2215,6.366,6.5257,6.7009,6.7958,6.8793,6.9656,6.9767,6.9799,6.9776,6.9774,6.9774,6.9774,6.9774,6.9774,6.9774,6.9781,6.9786,6.9786,6.9791,6.9793,6.9793,6.9769,6.9777,6.978,6.9856,6.8983,6.7176,6.7151,6.7196,6.7236,6.7198,6.7192,6.7226,6.7226,6.7226,6.7226,6.7226,6.7226,6.7226,6.7226,6.7226,6.7226,6.7155,6.7157,6.7157,6.7079,6.7039,6.7039,6.7033,6.7071,6.715,6.715,6.715,6.7151,6.7156,6.7159,6.6819,6.517,6.4739,6.4739,6.4739,6.4094,6.3449,6.3449,6.2815,6.2178,6.2178,6.2185,6.2188,6.2188,6.2188,6.2188,6.2188,6.2188,6.2188,6.2188,6.2188,6.2188,6.2188,6.2188,6.215,6.2073,6.2073,6.2071,6.2101,6.21,6.1395,5.9777,5.9693,6.0038,6.08,6.0838,6.1189,6.1855,6.1895,6.2307,6.3169,6.3169,6.3622,6.452,6.452,6.452,5.9527,0.0,5.9886,5.9876,5.988,5.9887,0.0,5.9856,6.0245,6.1542,6.211,6.317,6.5654,6.6407,6.7237,6.8921,6.9183,6.9328,6.9689,6.9711,6.9655,6.9598,6.9651,6.9546,6.9134,6.9108,6.9007,6.8627,6.859,6.859,6.859,6.8614,6.86,6.858,6.85,6.7246,6.4651,6.464,6.4681,6.478,6.4703,6.4682,6.4803,6.4803,6.4803,6.4803,6.4803,6.4803,6.4803,6.4803,6.4803,6.4803,6.4724,6.4685,6.4685,6.4722,6.472,6.4722,6.4724,6.4725,6.4725,6.4724,6.4723,6.4722,6.4716,6.4156,6.3505,6.3505,6.3516,6.356,6.356,6.265,6.1737,6.1737,6.0757,5.9815,5.9815,5.9864,5.9871,5.9871,5.9871,5.9871,5.9871,5.9871,5.9871,5.9871,5.9871,5.9871,5.9871,5.9871,5.9831,5.9707,5.9666,5.9689,5.9684,5.9515,5.9407,5.9501,5.9432,5.9413,5.9413,5.9413,5.9358,5.9264,5.9261,5.9857,6.1058,6.1058,6.1695,6.297,6.2949,6.2911,0.0,5.9858,5.987,5.9882,5.9861,5.9872,5.9872,5.9866,0.0,6.0029,6.1324,6.2464,6.2728,6.3942,6.5481,6.714,6.7429,6.7917,6.9407,6.9474,6.9344,6.9074,6.9267,6.8828,6.7236,6.7177,6.6642,6.5206,6.5093,6.5093,6.5093,6.5084,6.5082,6.5088,6.4716,6.4484,6.4369,6.4347,6.4384,6.4392,6.4362,6.4369,6.4377,6.4377,6.4377,6.4377,6.4377,6.4377,6.4377,6.4377,6.4377,6.4384,6.451,6.4547,6.4564,6.4695,6.4725,6.4727,6.4713,6.4717,6.4716,6.4745,6.4743,6.4743,6.4741,6.2448,5.984,5.984,5.9962,6.0037,6.0037,5.9961,5.9886,5.9886,5.978,5.9693,5.9693,5.9793,5.9871,5.9871,5.9871,5.9871,5.9871,5.9871,5.9871,5.9871,5.9871,5.9871,5.9871,5.9871,5.9831,5.9707,5.9666,5.9689,5.9684,5.9008,5.8685,5.8928,5.8721,5.8571,5.8571,5.8571,5.8595,5.8582,5.8593,5.863,5.8742,5.8742,5.8816,5.8928,5.881,5.8731,5.9834,5.9865,5.986,5.9868,5.9865,5.9858,5.9858,5.9884,5.9861,5.9783,6.0268,6.1015,6.2087,6.2638,6.3457,6.517,6.5363,6.5512,6.6116,6.6159,6.6096,6.5993,6.6086,6.5855,6.5253,6.5202,6.5015,6.4403,6.4366,6.4366,6.4366,6.4366,6.3405,6.1297,6.1075,6.1008,6.1094,6.1094,6.1122,6.1175,6.1175,6.1209,6.1191,6.1191,6.1191,6.1191,6.1191,6.1191,0.0,6.1191,6.1191,6.1191,6.1251,6.1288,6.1251,6.123,6.1207,6.1214,6.1205,6.1219,6.1212,6.1198,6.1191,6.1191,6.1191,6.0305,5.9233,5.9233,5.9271,5.9316,5.9316,5.9316,5.9316,5.9316,5.9284,5.9296,5.9296,5.9344,5.9388,5.9388,5.9388,5.9388,5.9388,5.9314,5.9283,5.9283,5.9188,5.9154,5.9154,5.9154,5.9137,5.9064,5.9054,5.9027,5.895,5.8672,5.8543,5.8647,5.8556,5.8526,5.8526,5.8526,5.8526,5.8526,5.8526,5.8526,5.8526,5.8526,5.8462,5.8407,5.8336,5.8307,5.9838,5.982,5.9812,5.9869,5.982,5.9806,5.9806,5.9828,5.9794,5.9687,5.965,5.998,6.1131,6.1117,6.1517,6.3218,6.3392,6.3544,6.3998,6.4088,6.4054,6.3982,6.3983,6.3995,6.4066,6.3634,6.3104,6.2579,6.2542,6.2542,6.2542,6.2542,6.1324,5.8672,5.8734,5.8783,5.8783,5.8902,5.9018,5.9131,5.9131,5.9097,5.9102,5.9102,5.9102,5.9102,5.9102,5.9102,5.9102,5.9102,5.9102,5.9092,5.9137,5.9165,5.9165,5.9107,5.9097,5.9097,5.9097,5.9097,5.9097,5.9097,5.9097,5.9097,5.9097,5.897,5.8795,5.8853,5.8965,5.9097,5.9097,5.9097,5.9097,5.9097,5.9097,5.9097,5.9097,5.9039,5.9056,5.9056,5.8987,5.8992,5.8992,5.8887,5.8842,5.8842,5.8746,5.8685,5.8685,5.8685,5.8709,5.8696,5.8683,5.8617,5.8401,5.8337,5.8286,5.8373,5.8323,5.8278,5.8278,5.8278,5.8278,5.8278,5.8211,5.8196,5.8196,5.8165,5.8098,5.7983,5.8025,5.7977,5.9818,5.9786,5.9701,5.9818,5.9783,5.9679,5.9679,5.9676,5.9664,5.9664,5.957,5.9481,5.9481,5.928,5.9622,6.131,6.1572,6.2139,6.367,6.3885,6.3808,6.3539,6.3524,6.3612,6.3871,6.2484,6.0887,5.9199,5.9087,5.9087,5.9087,5.9087,5.8622,5.7588,5.7899,5.8098,5.8098,5.8484,5.8675,5.8675,5.8675,5.8675,5.8675,5.8675,5.8675,5.8675,5.8675,5.8675,5.8675,5.8675,5.8675,5.8688,5.8821,5.8869,5.8893,5.9024,5.9087,5.906,5.9087,5.9087,5.9087,5.9087,5.9087,5.9087,5.9087,5.8608,5.8162,5.8293,5.8685,5.9087,5.9087,5.9087,5.9087,5.9087,5.9087,5.9087,5.9087,5.8965,5.8887,5.8887,5.8771,5.8672,5.8672,5.8672,5.8672,5.8709,5.8709,5.8672,5.8672,5.8672,5.8697,5.8683,5.867,5.8522,5.813,5.7856,5.7821,5.8082,5.7856,5.7698,5.7698,5.7735,5.7735,5.7735,5.7589,5.7515,5.7515,5.7366,5.7328,5.7328,5.7328,5.7251,5.9699,5.9634,5.9582,5.9676,5.969,5.9684,5.9678,5.9591,5.9539,5.9539,5.9354,5.9214,5.9214,5.9072,5.9077,5.948,5.9466,5.9506,5.9795,5.9862,5.9771,5.9493,5.9465,5.9514,5.9682,5.9041,5.843,5.8035,5.7999,5.7999,5.7999,5.7999,5.7838,5.7552,5.7659,5.7712,5.7712,5.7832,5.7882,5.7882,5.7882,5.7882,5.7882,5.7882,5.7882,5.7882,5.7882,5.7882,5.7882,5.7882,5.7882,5.7882,5.7928,5.8104,5.8323,5.8098,5.8174,5.8373,5.8113,5.7999,5.7999,5.7999,5.7999,5.7999,5.7999,5.7858,5.7729,5.7741,5.7891,5.7999,5.7999,5.7999,5.7999,5.7999,5.793,5.7846,5.7846,5.7748,5.7665,5.7665,5.7615,5.7685,5.7956,5.7891,5.7858,5.8109,5.8066,5.8038,5.8038,5.8038,5.8022,5.8005,5.7515,5.7166,5.7028,5.6946,5.6925,5.7009,5.6768,5.6658,5.6658,5.6453,5.6366,5.6366,5.6322,5.63,5.63,5.6278,5.6176,5.6123,5.6123,5.6019,5.9455,5.9307,5.9204,5.928,5.9308,5.929,5.9289,5.9262,5.9261,5.9261,5.9093,5.8913,5.8757,5.8634,5.8458,5.8159,5.814,5.8087,5.7712,5.7675,5.764,5.7443,5.7443,5.7534,5.7621,5.7425,5.7315,5.7462,5.7498,5.7388,5.7022,5.7042,5.7061,5.7061,5.7237,5.7313,5.7313,5.748,5.7552,5.7552,5.7552,5.7552,5.7552,5.7552,5.7552,5.7552,5.7552,5.7552,5.7552,5.7552,5.7552,5.7552,5.7552,5.7677,5.7885,5.7624,5.7694,5.7849,5.7624,5.7552,5.7552,5.7552,5.7332,5.7061,5.7061,5.7179,5.7313,5.7313,5.7425,5.7552,5.7552,5.7552,5.7498,5.7462,5.7389,5.7333,5.7296,5.7164,5.7067,5.7067,5.6989,5.7009,5.7238,5.7126,5.7106,5.735,5.7311,5.7271,5.7271,5.7271,5.7271,5.7271,5.6824,5.6559,5.6559,5.6559,5.6559,5.6559,5.6409,5.63,5.6176,5.6019,5.5905,5.5789,5.5742,5.5718,5.5718,5.5636,5.56,5.5504,5.5504,5.548,5.9066,5.8865,5.8672,5.8722,5.8722,5.8722,5.8722,5.8771,5.8853,5.8842,5.8722,5.8499,5.8108,5.7999,5.7849,5.724,5.7425,5.748,5.7002,5.7009,5.7048,5.6901,5.7005,5.7087,5.707,5.7031,5.7089,5.7278,5.7351,5.6985,5.6024,5.6141,5.6187,5.6187,5.6546,5.6742,5.6742,5.7087,5.7259,5.7259,5.7259,5.7314,5.7351,5.7314,5.7314,5.7351,5.7314,5.7314,5.7351,5.7351,5.737,5.7443,5.7443,5.7462,5.7498,5.7443,5.7462,5.748,5.7443,5.7443,5.7443,5.7443,5.6957,5.6359,5.6359,5.6596,5.686,5.686,5.714,5.7406,5.7406,5.7406,5.7351,5.724,5.7221,5.7183,5.7031,5.6925,5.684,5.684,5.6637,5.651,5.6531,5.6531,5.6553,5.6574,5.6559,5.6559,5.6559,5.6559,5.6495,5.6344,5.6322,5.6322,5.6322,5.6287,5.6287,5.6287,5.6243,5.6132,5.5905,5.5846,5.573,5.5493,5.5347,5.5308,5.5308,5.5174,5.5124,5.5124,5.5124,5.5149,5.8746,5.866,5.8556,5.8697,5.8697,5.8709,5.8709,5.8657,5.8522,5.8204,5.8014,5.7829,5.7424,5.7352,5.7278,5.7025,5.7081,5.7022,5.67,5.67,5.6616,5.6364,5.6364,5.6416,5.6517,5.6248,5.6248,5.6706,5.6481,5.5825,5.4714,5.4767,5.4819,5.4819,5.5042,5.5134,5.5134,5.5199,5.5238,5.5238,5.5238,5.5528,5.6011,5.5504,5.5528,5.5976,5.548,5.5552,5.5999,5.5999,5.6274,5.6618,5.6618,5.6814,5.7042,5.6745,5.6814,5.7042,5.6709,5.6618,5.6618,5.6618,5.6421,5.621,5.621,5.6174,5.6174,5.6174,5.6265,5.6297,5.6297,5.6297,5.6332,5.6274,5.6207,5.6103,5.608,5.5977,5.5895,5.5895,5.5848,5.5919,5.622,5.6265,5.6341,5.6517,5.6559,5.6559,5.6559,5.6559,5.6019,5.46,5.4412,5.4412,5.4412,5.4234,5.4111,5.4111,5.3846,5.3624,5.36,5.3396,5.3249,5.3189,5.3163,5.3163,5.3163,5.3133,5.3103,5.3103,5.3103,5.3312,5.8424,5.8128,5.7875,5.7956,5.7822,5.7685,5.7682,5.7722,5.771,5.7514,5.7389,5.7219,5.6849,5.6813,5.6747,5.635,5.6473,5.6473,5.6126,5.6103,5.6047,5.5895,5.5907,5.5789,5.5552,5.5319,5.5279,5.5347,5.5144,5.4767,5.4173,5.42,5.4283,5.4338,5.4419,5.4439,5.4439,5.4527,5.452,5.452,5.46,5.4784,5.5103,5.4784,5.481,5.5103,5.4758,5.481,5.5128,5.5128,5.5279,5.5537,5.5537,5.567,5.5812,5.5598,5.5635,5.5812,5.5598,5.5741,5.5919,5.5498,5.5314,5.5264,5.5264,5.5189,5.5189,5.5438,5.5512,5.5621,5.5907,5.5741,5.5512,5.5512,5.5239,5.4958,5.4958,5.4862,5.4757,5.4757,5.4757,5.4836,5.5035,5.5061,5.5103,5.5234,5.5284,5.5284,5.5284,5.5284,5.4905,5.3926,5.3847,5.3847,5.3847,5.3721,5.36,5.3445,5.3245,5.3073,5.2866,5.2743,5.2621,5.2495,5.2495,5.2495,5.2495,5.2495,5.2495,5.2495,5.2495,5.2621,5.7849,5.7406,5.6937,5.6937,5.6658,5.6431,5.6431,5.6616,5.6721,5.6658,5.6679,5.6616,5.6248,5.6167,5.6009,5.5533,5.5572,5.5621,5.5334,5.5284,5.5284,5.5284,5.5284,5.507,5.452,5.4493,5.4358,5.4033,5.3773,5.3658,5.3658,5.3658,5.375,5.3864,5.3892,5.3892,5.3921,5.4067,5.4123,5.4123,5.4221,5.4358,5.4439,5.4385,5.4385,5.4493,5.4385,5.4385,5.4493,5.4466,5.452,5.4626,5.46,5.46,5.4626,5.4626,5.4626,5.4626,5.46,5.4949,5.5239,5.4365,5.4145,5.42,5.42,5.4173,5.4255,5.4671,5.4802,5.494,5.5474,5.5204,5.4802,5.4802,5.4385,5.4005,5.4005,5.3926,5.3847,5.3847,5.3847,5.3847,5.3847,5.3847,5.3847,5.3847,5.3847,5.3847,5.3847,5.3639,5.3494,5.3494,5.3498,5.3498,5.3498,5.3405,5.3283,5.3062,5.3002,5.2858,5.2524,5.2558,5.2431,5.2111,5.2111,5.2078,5.2014,5.2014,5.2014,5.2014,5.2014,5.2046,5.6788,5.6374,5.5974,5.5974,5.5928,5.5905,5.5905,5.5928,5.5859,5.5504,5.573,5.5824,5.5409,5.501,5.4706,5.4732,5.4241,5.388,5.4039,5.4102,5.4102,5.4102,5.4102,5.4011,5.3955,5.3926,5.3926,5.3904,5.2799,5.2174,5.2174,5.2174,5.2271,5.2561,5.2561,5.2591,5.2716,5.2716,5.2748,5.2748,5.2866,5.3227,5.3755,5.3448,5.3503,5.3898,5.3477,5.3532,5.3926,5.3812,5.4117,5.4626,5.45,5.452,5.4626,5.4626,5.4626,5.4626,5.45,5.45,5.4446,5.3629,5.3687,5.4055,5.4055,5.3977,5.3898,5.3983,5.4011,5.4011,5.4096,5.4067,5.4011,5.4011,5.3926,5.3841,5.3841,5.3875,5.3847,5.3847,5.3847,5.3847,5.3847,5.3847,5.3847,5.3847,5.3847,5.3847,5.3847,5.2864,5.2175,5.2175,5.2047,5.2015,5.2015,5.1686,5.1487,5.1421,5.1318,5.1247,5.1179,5.1179,5.1007,5.0627,5.0627,5.0454,5.0102,5.0102,5.0102,5.0102,5.0102,5.0386,5.6366,5.5905,5.5455,5.5455,5.5343,5.5229,5.5229,5.5229,5.5179,5.5035,5.488,5.4757,5.4604,5.4123,5.3773,5.3858,5.3566,5.3396,5.3489,5.3518,5.3518,5.3518,5.3518,5.3371,5.3009,5.3107,5.305,5.2683,5.1587,5.088,5.088,5.1049,5.0981,5.0635,5.1117,5.1453,5.1488,5.208,5.2338,5.2338,5.253,5.2716,5.2961,5.2812,5.2874,5.3053,5.2843,5.2874,5.3053,5.3026,5.3141,5.3405,5.338,5.338,5.3435,5.3435,5.3435,5.3405,5.338,5.3291,5.3141,5.2679,5.2645,5.2861,5.2861,5.2769,5.2833,5.3201,5.3321,5.3376,5.376,5.3586,5.3321,5.3321,5.3016,5.2741,5.2741,5.2741,5.2741,5.2741,5.2741,5.2741,5.2741,5.2741,5.2741,5.2741,5.2741,5.2583,5.2172,5.1521,5.1184,5.1253,5.1552,5.1685,5.1685,5.1551,5.135,5.1148,5.1078,5.1007,5.0933,5.0933,5.0761,5.0344,5.034,5.0165,4.9772,4.9772,4.9772,4.9772,4.9772,4.9881,5.594,5.5382,5.4836,5.4732,5.4562,5.4386,5.4241,5.4214,5.4214,5.4214,5.3961,5.376,5.376,5.3346,5.2949,5.3009,5.2858,5.2735,5.2833,5.2799,5.2799,5.2799,5.2799,5.2614,5.2141,5.2271,5.1982,5.0979,5.0252,4.9859,4.9859,5.0006,4.9931,4.9384,5.0038,5.0396,5.0431,5.1185,5.1586,5.1586,5.1752,5.1851,5.1851,5.1884,5.1851,5.1916,5.2112,5.2177,5.2177,5.237,5.2434,5.2466,5.2467,5.2434,5.2466,5.2466,5.2466,5.2466,5.237,5.2274,5.2177,5.1982,5.1883,5.1883,5.1883,5.1883,5.1981,5.2493,5.2619,5.2743,5.3227,5.3019,5.2619,5.2619,5.2271,5.1883,5.1883,5.1883,5.1851,5.1653,5.1785,5.1851,5.162,5.1785,5.1883,5.1883,5.1719,5.132,5.0498,5.0319,5.0319,5.0396,5.0774,5.1011,5.1011,5.0942,5.0737,5.0425,5.0425,5.0351,5.0169,5.0169,4.999,4.9552,4.9552,4.9367,4.8962,4.8962,4.8962,4.8962,4.8962,4.8962,5.5274,5.4589,5.3847,5.3443,5.3358,5.3174,5.2714,5.2621,5.2621,5.2621,5.2774,5.2928,5.2928,5.2491,5.2206,5.233,5.1719,5.1318,5.1584,5.1617,5.1617,5.1617,5.1617,5.1584,5.155,5.1584,5.0804,4.8876,4.8913,4.9063,4.9063,4.9063,4.9168,4.9348,4.9421,4.9531,4.9609,4.9682,4.9718,4.9718,4.9962,5.0102,5.0102,5.022,5.0294,5.0329,5.1051,5.1386,5.142,5.2014,5.2338,5.2466,5.2339,5.2338,5.2466,5.2466,5.2466,5.2434,5.2047,5.1916,5.1916,5.1883,5.1883,5.1883,5.1883,5.1883,5.1916,5.1949,5.1949,5.1949,5.1981,5.1981,5.1949,5.1949,5.1916,5.1883,5.1883,5.1883,5.1686,5.0948,5.1387,5.1653,5.0914,5.1421,5.1883,5.1883,5.1286,5.0431,4.9568,4.9568,4.9609,4.9609,4.9348,4.9119,4.9119,4.8787,4.856,4.8521,4.8521,4.8414,4.8153,4.8153,4.7942,4.74,4.74,4.7199,4.6823,4.6823,4.6823,4.6823,4.6823,4.6823,5.457,5.3784,5.305,5.2807,5.2589,5.2431,5.2463,5.2495,5.2495,5.2495,5.2111,5.1752,5.1752,5.1148,5.063,5.0638,5.0425,5.0347,5.0729,5.0241,4.9994,5.0248,4.9818,4.9526,4.9526,4.9526,4.9199,4.8491,4.8098,4.7855,4.7855,4.7951,4.7803,4.739,4.802,4.8407,4.8452,4.8452,4.8756,4.9458,4.9641,4.9714,4.9714,4.9755,4.9759,4.9827,5.0078,5.0216,5.022,5.0981,5.1015,5.0673,5.1117,5.0983,5.0673,5.1185,5.1354,5.1286,5.0606,5.0396,5.0396,5.0323,5.0287,5.0252,5.0046,5.0396,5.0777,5.0777,5.1251,5.1785,5.1785,5.1818,5.1851,5.1818,5.1419,5.0981,5.0811,5.0396,4.9939,4.9687,4.9831,4.9939,4.9651,4.9831,5.0046,5.0046,4.9359,4.8756,4.8445,4.8291,4.8291,4.8414,4.8605,4.8719,4.8719,4.8605,4.8491,4.8407,4.8222,4.8114,4.7998,4.7951,4.7667,4.7239,4.7239,4.7037,4.6659,4.634,4.6145,4.6145,4.5822,4.5822,5.376,5.305,5.2335,5.2111,5.1719,5.1454,5.1554,5.1554,5.1554,5.1587,5.1081,5.0632,5.0632,5.0165,4.9762,4.9735,4.9772,4.9772,4.984,4.9336,4.9013,4.9025,4.8681,4.8407,4.8407,4.7785,4.735,4.735,4.6856,4.6629,4.6711,4.6815,4.6693,4.6299,4.6937,4.734,4.742,4.742,4.7776,4.8445,4.8529,4.8567,4.8567,4.8567,4.8567,4.8605,4.8869,4.8982,4.9057,4.9795,4.9831,4.9432,4.9939,4.9899,4.9573,5.011,5.0042,4.9755,4.9432,4.9359,4.9322,4.9279,4.9205,4.9205,4.9025,4.9322,4.9755,4.9755,5.0252,5.0806,5.0806,5.0845,5.0882,5.0841,5.0425,5.0002,4.9791,4.9322,4.8913,4.865,4.8801,4.8913,4.8612,4.8801,4.8988,4.8988,4.8536,4.799,4.735,4.722,4.725,4.742,4.7667,4.7833,4.7833,4.7725,4.7637,4.7588,4.732,4.72,4.712,4.6948,4.6652,4.634,4.6186,4.609,4.5952,4.5271,4.5057,4.5214,4.4683,4.4639,5.2836,5.2367,5.1752,5.1216,5.0806,5.039,4.9917,4.9798,4.9793,4.9735,4.9735,4.9735,4.9735,4.9735,4.9699,4.9699,4.9699,4.9478,4.8811,4.8818,4.8674,4.8037,4.8183,4.8291,4.8291,4.6459,4.5286,4.5286,4.5286,4.5414,4.5656,4.5656,4.5838,4.6216,4.6228,4.634,4.6618,4.6618,4.6618,4.6618,4.6618,4.6618,4.6659,4.6659,4.6659,4.67,4.746,4.7785,4.7864,4.8643,4.8951,4.8913,4.8951,4.9094,4.9274,4.9274,4.8636,4.7903,4.865,4.8913,4.8913,4.8913,4.8913,4.8913,4.8913,4.8913,4.8951,4.8951,4.8951,4.8988,4.8988,4.8988,4.8988,4.8988,4.8951,4.8951,4.8951,4.8913,4.8688,4.7903,4.8345,4.865,4.7903,4.8383,4.8913,4.8913,4.8882,4.8238,4.6476,4.6435,4.6588,4.6618,4.6382,4.6257,4.6257,4.6019,4.5864,4.5894,4.5754,4.5571,4.5286,4.5042,4.4781,4.449,4.4138,4.4093,4.4446,4.3574,4.3394,4.3843,4.3349,4.3123,5.214,5.1422,5.0843,5.0594,5.0273,5.0021,5.0129,5.0197,5.0125,4.9808,4.9515,4.9324,4.9324,4.8721,4.822,4.822,4.7837,4.756,4.7639,4.7139,4.6786,4.6878,4.6459,4.6157,4.6157,4.5641,4.5286,4.5286,4.5286,4.5329,4.5372,4.5414,4.5457,4.5585,4.5585,4.5585,4.5669,4.5669,4.5838,4.6103,4.6103,4.6299,4.6659,4.6659,4.6659,4.6659,4.6875,4.6997,4.7008,4.7825,4.7785,4.734,4.7942,4.7825,4.737,4.718,4.7089,4.6997,4.721,4.73,4.726,4.7099,4.6989,4.6989,4.6797,4.719,4.7698,4.7698,4.8183,4.8688,4.8688,4.8838,4.8951,4.8763,4.8268,4.7833,4.7737,4.719,4.6675,4.6459,4.6582,4.6663,4.6459,4.6623,4.6715,4.6715,4.6014,4.5577,4.5944,4.5302,4.5139,4.6015,4.6019,4.6019,4.6019,4.5906,4.5852,4.5754,4.55,4.5315,4.5042,4.4781,4.4446,4.4093,4.4004,4.3798,4.353,4.2895,4.2666,4.2804,4.227,4.2224,5.1555,5.0875,5.0454,5.0344,5.0053,4.9798,4.9871,4.9871,4.973,4.933,4.8873,4.856,4.856,4.7819,4.7219,4.7219,4.6905,4.6588,4.6517,4.6145,4.5864,4.5809,4.5329,4.4941,4.4941,4.4941,4.4941,4.4941,4.4941,4.4811,4.4493,4.4493,4.4334,4.3998,4.3998,4.3998,4.3998,4.3998,4.4102,4.4337,4.4741,4.5114,4.5442,4.5881,4.609,4.609,4.6203,4.6245,4.6286,4.6815,4.6734,4.6382,4.6856,4.6775,4.6452,4.6132,4.609,4.6216,4.6299,4.634,4.6299,4.6145,4.6103,4.6061,4.5906,4.6269,4.6682,4.6682,4.7029,4.7439,4.74,4.7479,4.7558,4.725,4.6918,4.6693,4.6588,4.6186,4.5864,4.5864,4.5864,4.5864,4.5864,4.5864,4.5564,4.4708,4.3686,4.3078,4.3249,4.3107,4.3277,4.3917,4.4414,4.4655,4.4655,4.5071,4.5229,4.5043,4.52,4.5186,4.4912,4.465,4.4314,4.396,4.3709,4.3485,4.3168,4.2409,4.2158,4.2363,4.1831,4.1381,5.108,5.0655,5.034,5.034,5.0093,4.9767,0.0,4.9318,4.9206,4.8759,4.8211,4.7779,4.7739,4.7189,4.6741,4.6659,4.6576,4.6257,4.5484,4.5569,4.5513,4.4912,4.465,4.449,4.4446,4.4446,4.4402,4.4226,4.4226,4.386,4.3131,4.3059,4.2759,4.2063,4.2017,4.2063,4.2063,4.2063,4.2109,4.2155,4.3077,4.3554,4.3598,4.4537,4.4956,4.4956,4.5329,4.5457,4.5457,4.5725,4.5822,4.5822,4.5822,4.5977,4.6132,4.5754,4.5656,4.5656,4.5767,4.5822,4.5852,4.5852,4.5864,4.5864,4.5864,4.5864,4.5852,4.5852,4.5822,4.5809,4.5669,4.5656,4.5613,4.5329,4.5457,4.5656,4.5656,4.5725,4.5822,4.5822,4.5822,4.5852,4.5852,4.578,4.501,4.2913,4.1705,4.0671,3.978,4.0562,4.1275,4.1384,4.2348,4.2968,4.2968,4.376,4.4158,4.3937,4.4537,4.4811,4.4534,4.427,4.3977,4.3664,4.3095,4.2822,4.2822,4.1804,4.157,4.2038,4.157,4.0523,0.0,0.0,0.0,0.0,0.0,0.0,0.0,5.0093,4.9913,4.9206,4.898,4.879,4.8452,4.7898,4.7229,4.6741,4.6145,4.5484,4.4811,4.4753,4.4709,4.4606,4.4562,4.4402,4.4093,4.4049,4.3574,4.2574,4.2455,4.2151,4.135,4.1302,4.1255,4.1113,4.1113,4.1208,4.137,4.137,4.1605,4.2024,4.2236,4.2393,4.2477,4.2705,4.2796,4.2868,4.3732,4.4114,4.4158,4.5043,4.5414,4.5414,4.5414,4.5457,4.5457,4.5414,4.5372,4.5372,4.5386,4.5542,4.5712,4.5712,4.5796,4.5864,4.5864,4.5767,4.5712,4.5712,4.5585,4.5414,4.5372,4.5372,4.5329,4.5329,4.5329,4.5372,4.5372,4.5414,4.5414,4.5414,4.5585,4.5712,4.5712,4.5214,4.4042,4.1993,3.9808,3.8698,3.9547,3.9779,4.0258,4.1302,4.2348,4.2968,4.2968,4.2968,4.2905,4.2731,4.2677,4.2512,4.2263,4.1985,4.1892,4.2065,4.1118,4.0737,4.095,4.0136,3.9746,3.9844,3.9746,3.9107,0.0,0.0,0.0,0.0,0.0,0.0,0.0,0.0,0.0,0.0,0.0,4.8873,4.846,0.0,4.7269,4.6741,4.6019,4.5371,4.5043,4.4753,4.4446,4.4226,4.4226,4.4049,4.3574,4.3214,4.2712,4.2065,4.1617,4.1023,4.0108,4.006,3.9842,3.9279,3.9279,3.9329,3.9451,3.9451,3.9598,3.9842,4.0398,4.0707,4.0945,4.1438,4.1765,4.1905,4.2439,4.3014,4.3581,4.4114,4.4711,4.5286,4.5143,4.5013,4.4927,4.5056,4.51,4.51,4.5243,4.5372,4.5457,4.5457,4.5542,4.5598,4.5598,4.5542,4.5457,4.5457,4.5372,4.5243,4.5143,4.51,4.5056,4.497,4.5013,4.51,4.51,4.52,4.5286,4.5286,4.55,4.55,4.4999,4.3304,4.1292,3.9273,3.7509,3.6462,3.6559,3.7439,3.8363,3.8988,4.0581,4.159,4.159,4.1496,4.1543,4.1778,4.1938,4.1865,4.1631,4.135,4.114,4.1023,4.0352,3.9868,3.9451,3.9082,3.8759,3.8485,3.7601,3.6936,0.0,0.0,0.0,0.0,0.0,0.0,0.0,0.0,0.0,0.0,0.0,0.0,0.0,0.0,0.0,4.6905,4.6311,4.5793,4.554,4.5043,4.455,4.4154,4.4021,4.3664,4.3077,4.2316,4.1758,4.1476,4.0737,3.9891,3.8909,3.8785,3.8435,3.7597,3.7546,3.7597,3.7648,3.7648,3.7648,3.775,3.8585,0.0,3.9403,4.023,4.0733,4.1019,4.1444,4.2143,4.3014,4.3402,4.423,4.5186,4.4912,4.4737,4.4606,4.4781,4.4825,4.4868,4.51,4.5157,4.52,4.52,4.5243,4.5286,4.5286,4.5243,0.0,4.52,4.5157,4.5071,4.4868,4.4825,4.4781,4.4562,4.4562,4.4606,4.4781,4.4811,4.4898,4.4898,4.5071,4.4828,4.3675,4.1244,3.8801,3.686,3.577,3.4753,3.3584,3.5362,3.676,3.676,3.8839,4.0235,4.0235,4.0212,4.0355,4.0807,4.1161,4.1255,4.0924,4.0637,4.0375,4.0037,3.9672,3.9082,3.8234,3.8134,3.778,3.722,3.5606,3.4909,0.0,0.0,0.0,0.0,0.0,0.0,0.0,0.0,0.0,0.0,0.0,0.0,0.0,0.0,0.0,0.0,4.746,4.6956,4.5667,4.5442,4.5229,4.4826,4.4286,4.353,4.2574,4.1751,4.0807,3.9648,3.8859,3.8057,3.7267,3.7216,0.0,0.0,0.0,3.7137,3.7366,3.7366,3.7468,3.7699,3.7852,3.803,3.8258,3.8409,3.8585,3.8909,4.0781,4.1678,4.1911,4.3681,4.4622,4.4912,4.4622,4.4694,4.4825,4.465,4.4562,4.4534,4.4578,0.0,0.0,4.4955,4.51,4.5286,4.5286,4.5143,4.4955,4.4955,4.4781,4.4578,4.4562,4.4562,4.4562,4.449,4.3915,4.3574,4.4358,4.396,4.3367,4.3367,4.3519,4.3044,4.1313,4.0172,3.8819,3.7,3.5855,3.4753,3.3584,3.5362,3.676,3.676,3.8839,0.0,4.0235,4.0017,3.9748,3.9501,3.9329,3.9032,3.8509,3.8232,3.8309,3.8685,3.7753,3.7346,3.7424,3.6781,3.6077,3.547,3.4321,3.3803,0.0,0.0,0.0,0.0,0.0,0.0,0.0,0.0,0.0,0.0,0.0,0.0,0.0,0.0,0.0,0.0,4.8016,4.739,4.6834,4.6394,4.5725,4.4581,4.386,4.2913,4.1402,4.0545,3.9672,3.8659,3.755,3.6856,3.6494,3.6494,3.6494,3.6494,3.6753,3.6982,3.7085,3.7085,3.7137,3.7267,3.7267,3.7472,3.7879,3.7879,3.8409,3.9427,4.0327,4.1376,4.2566,4.3394,4.4182,4.4868,0.0,0.0,0.0,0.0,4.449,4.449,4.449,4.4606,4.4694,4.4694,4.4753,4.484,4.484,4.4753,4.4694,4.4694,4.4606,4.449,4.449,4.449,4.449,4.449,4.4226,4.4049,4.4446,4.4226,4.3798,4.3259,4.3249,0.0,3.9443,3.8664,3.8076,3.6912,3.6378,3.5921,3.5413,3.676,3.775,3.775,3.9246,4.0235,4.0235,4.0164,0.0,0.0,0.0,3.8883,3.8359,3.8081,0.0,0.0,0.0,3.6338,3.6077,3.547,0.0,0.0,3.3579,3.364,0.0,0.0,0.0,0.0,0.0,0.0,0.0,0.0,0.0,0.0,0.0,0.0,0.0,0.0,0.0,0.0,4.8483,4.7779,4.743,4.6864,4.5809,4.4114,4.3294,4.229,4.0567,3.9746,3.8933,3.8158,3.701,3.639,3.639,3.639,3.639,3.639,3.6753,3.6908,3.6908,3.6908,3.6908,3.6908,3.6908,3.7188,3.7597,3.7648,3.8534,3.9965,4.0304,4.147,4.3168,4.344,4.4093,4.4868,4.4606,4.465,4.4781,4.4606,4.449,4.449,4.449,4.449,4.449,4.449,4.449,4.449,4.449,4.449,4.449,4.449,4.449,4.449,4.449,4.449,4.449,4.449,4.4314,4.4138,4.4138,4.3932,4.3412,4.2474,4.2355,4.1506,3.8641,3.8134,3.7902,3.7304,3.7217,3.7115,3.6785,3.7776,3.8487,3.8487,3.9526,4.0235,4.0235,4.0212,3.9895,3.928,3.923,3.8983,3.8485,3.8158,3.7801,3.7417,3.6343,3.5271,0.0,0.0,0.0,0.0,0.0,0.0,0.0,0.0,0.0,0.0,0.0,0.0,0.0,0.0,0.0,0.0,0.0,0.0,0.0,0.0,0.0,0.0,0.0,0.0,4.7048,4.6282,4.5243,4.3581,4.2795,4.1898,4.0593,3.9746,3.8933,3.8158,3.7369,3.6908,3.6908,3.6908,3.6908,3.6908,3.6908,3.6908,3.6908,3.6908,3.6908,3.6908,3.6908,3.7085,3.7338,3.7621,3.8433,3.9746,4.0997,4.217,4.3259,4.4093,4.465,4.4868,4.4606,4.449,4.4562,4.449,4.449,4.449,4.449,4.449,4.449,4.449,4.449,4.449,4.449,4.449,4.449,4.449,4.449,4.449,4.449,4.449,4.449,4.449,4.3843,4.3214,4.3214,4.2382,4.1397,4.0352,4.0159,3.9965,3.9329,3.923,3.9052,3.852,3.8436,0.0,3.6887,3.7776,3.8487,3.8487,3.9526,4.0235,4.0235,4.0017,3.9699,3.928,3.9057,3.8734,3.8509,3.798,3.7699,3.7699,3.5674,3.391,3.2376,0.0,0.0,0.0,0.0,0.0,0.0,0.0,0.0,0.0,0.0,0.0,0.0,0.0,0.0,0.0,0.0,0.0,0.0,0.0,0.0,0.0,0.0,0.0,0.0,4.6793,4.5767,4.407,4.3294,4.2038,3.9893,3.9868,3.9279,3.7472,3.7244,3.6987,3.6442,3.639,3.639,3.639,3.6753,3.6908,3.6908,3.6908,3.6908,3.6908,3.6908,3.7188,3.757,3.7648,3.8908,4.0997,4.1397,4.2539,4.4093,4.4358,4.4562,4.465,4.4562,4.449,4.449,4.449,4.449,4.449,4.449,4.449,4.449,4.449,4.449,4.449,4.449,4.449,4.449,4.449,4.449,4.449,4.449,4.449,4.449,4.449,4.3798,4.3168,4.3168,4.2336,4.1302,4.0256,3.9599,3.923,3.9057,3.9354,3.9598,3.9415,3.9557,3.95,3.9093,3.9398,3.9653,3.9653,4.0032,4.0235,4.0235,4.0017,3.9397,3.8308,3.7969,3.7408,3.6459,3.5911,3.5672,3.5672,3.4595,3.3668,3.2796,0.0,0.0,0.0,0.0,0.0,0.0,0.0,0.0,0.0,0.0,0.0,0.0,0.0,0.0,0.0,0.0,0.0,0.0,0.0,0.0,0.0,0.0,0.0,0.0,0.0,0.0,4.4334,4.3609,0.0,4.0159,3.9965,3.9279,3.7472,3.7244,3.6959,3.6442,3.6442,3.6442,3.6442,3.6753,3.6908,3.6908,3.6908,3.6908,3.6908,3.7034,3.7239,3.757,3.775,3.8983,4.095,4.1397,4.2539,4.4049,4.4358,4.4314,4.4049,4.4049,4.3798,4.3502,4.3888,4.4049,4.4093,4.4402,4.449,4.449,4.449,4.4314,4.4049,4.4049,4.3754,4.3547,4.396,4.4049,4.4093,4.4446,4.449,4.449,4.449,4.4093,4.344,4.2749,4.2078,4.1302,4.0375,3.9452,3.8958,3.9206,3.9576,3.9745,3.939,3.9506,3.9602,3.9602,3.9602,3.9754,4.021,4.0235,4.0083,3.9653,3.9483,3.8764,3.7327,3.6692,3.6116,3.5548,3.4713,3.4246,3.4246,3.3658,3.3005,0.0,0.0,0.0,0.0,0.0,0.0,0.0,0.0,0.0,0.0,0.0,0.0,0.0,0.0,0.0,0.0,0.0,0.0,0.0,0.0,0.0,0.0,0.0,0.0,0.0,0.0,0.0,4.4378,4.376,0.0,0.0,0.0,0.0,3.8258,3.7523,3.7062,3.701,3.6959,3.6959,3.6959,3.701,3.701,3.7062,3.7062,3.7113,3.7113,3.7342,3.7519,3.7519,3.798,3.8759,3.9868,4.1092,4.2217,4.3304,4.4093,4.396,4.3168,4.3123,4.2474,4.1725,4.2749,4.3123,4.3259,4.4138,4.4446,4.4446,4.4446,4.3888,4.3259,4.3214,4.252,0.0,0.0,4.3214,4.3394,4.427,4.4446,4.4446,4.449,4.4446,4.3932,4.2078,4.1585,4.1302,4.049,3.9573,3.9057,3.9573,0.0,3.9341,3.8423,3.8318,3.8318,3.8318,3.8364,3.8817,3.9935,4.0011,3.9531,3.8423,3.8296,3.7626,3.6222,3.5099,3.4777,3.5464,3.4174,3.3422,3.3422,3.2746,0.0,0.0,0.0,0.0,0.0,0.0,0.0,0.0,0.0,0.0,0.0,0.0,0.0,0.0,0.0,0.0,0.0,0.0,0.0,0.0,0.0,0.0,0.0,0.0,0.0,0.0,4.7132,4.6752,4.4928,4.4581,4.3787,0.0,0.0,0.0,0.0,0.0,0.0,3.7855,3.7267,3.7216,3.7777,3.7828,3.8081,3.8684,3.9057,3.923,3.923,3.9721,4.0037,4.0182,3.9525,4.0352,4.2243,4.1798,4.2539,4.4138,4.3664,4.3485,4.3349,4.262,4.2224,4.2197,4.2455,4.2455,4.2409,4.3564,4.3832,4.3626,4.3626,4.4142,4.4565,4.3609,0.0,0.0,0.0,0.0,4.3474,4.4314,4.4004,4.3664,4.4358,4.4004,4.3349,4.2868,4.1543,4.0144,3.9158,3.9077,3.8661,3.7063,3.661,0.0,3.5962,3.6051,3.619,3.619,3.6784,3.7278,3.7575,3.7055,3.6501,3.6199,3.5385,3.4384,3.3245,3.2699,3.2191,3.1578,3.0845,3.0442,3.0442,0.0,0.0,0.0,0.0,0.0,0.0,0.0,0.0,0.0,0.0,0.0,0.0,0.0,0.0,0.0,0.0,0.0,0.0,0.0,0.0,0.0,0.0,0.0,0.0,0.0,0.0,0.0,4.7222,4.7526,4.6482,4.6169,4.5299,0.0,0.0,0.0,0.0,0.0,0.0,0.0,0.0,0.0,3.9279,3.9255,3.9378,3.9599,4.0111,4.0304,4.0062,4.0663,4.1092,4.1161,4.0711,4.1234,4.2474,4.2336,4.2886,4.3888,4.3485,4.2868,4.2151,0.0,0.0,0.0,0.0,4.159,4.1684,4.3222,4.3626,4.3626,4.4026,0.0,0.0,0.0,0.0,0.0,0.0,0.0,4.2873,4.3837,4.4004,4.4049,4.4402,4.4138,4.3619,4.3259,4.1334,3.9551,3.9095,3.8443,3.7612,3.6392,3.5769,0.0,0.0,0.0,3.467,3.467,3.5117,3.5628,3.6091,3.5327,3.4573,3.4104,3.3495,3.2631,3.1537,3.0868,3.0417,3.0222,2.9074,2.8418,0.0,0.0,0.0,0.0,0.0,0.0,0.0,0.0,0.0,0.0,0.0,0.0,0.0,0.0,0.0,0.0,0.0,0.0,0.0,0.0,0.0,0.0,0.0,0.0,0.0,0.0,0.0,0.0,0.0,4.794,4.8053,0.0,0.0,0.0,0.0,0.0,0.0,0.0,0.0,0.0,0.0,0.0,0.0,0.0,4.0807,4.0449,4.095,4.0997,4.0593,4.1187,4.147,4.147,4.1423,4.1538,4.1865,4.2913,0.0,4.344,4.3349,0.0,0.0,0.0,0.0,0.0,0.0,0.0,0.0,0.0,0.0,0.0,0.0,0.0,0.0,0.0,0.0,0.0,0.0,0.0,0.0,0.0,0.0,4.4293,4.4242,4.4314,4.4098,4.2982,4.1011,3.9324,3.9167,3.7621,3.6303,0.0,0.0,0.0,0.0,0.0,0.0,3.3439,3.3526,3.3941,3.488,3.4052,3.3051,3.2123,3.1938,3.1406,3.0415,2.9411,2.9146,2.9819,2.8128,0.0,0.0,0.0,0.0,0.0,0.0,0.0,0.0,0.0,0.0,0.0,0.0,0.0,0.0,0.0,0.0,0.0,0.0,0.0,0.0,0.0,0.0,0.0,0.0,0.0,0.0,0.0,0.0,0.0,0.0,0.0,0.0,0.0,0.0,0.0,0.0,0.0,0.0,0.0,0.0,0.0,0.0,0.0,0.0,0.0,0.0,0.0,0.0,0.0,0.0,4.2959,4.2822,4.2776,4.1045,4.1234,4.2913,4.3843,4.4506,4.4783,4.3005,0.0,0.0,0.0,0.0,0.0,0.0,0.0,0.0,0.0,0.0,0.0,0.0,0.0,0.0,0.0,0.0,0.0,0.0,0.0,0.0,0.0,0.0,4.1324,4.2441,4.3259,4.3155,4.1163,0.0,0.0,0.0,0.0,0.0,0.0,0.0,0.0,0.0,0.0,0.0,3.1401,3.1937,3.2432,3.2646,3.1141,3.0081,2.9911,2.9171,2.8697,2.8479,2.8299,2.7888,0.0,0.0,0.0,0.0,0.0,0.0,0.0,0.0,0.0,0.0,0.0,0.0,0.0,0.0,0.0,0.0,0.0,0.0,0.0,0.0,0.0,0.0,0.0,0.0,0.0,0.0,0.0,0.0,0.0,0.0,0.0,0.0,0.0,0.0,0.0,0.0,0.0,0.0,0.0,0.0,0.0,0.0,0.0,0.0,0.0,0.0,0.0,0.0,0.0,0.0,0.0,0.0,0.0,0.0,0.0,0.0,0.0,0.0,4.417,4.4258,0.0,0.0,0.0,0.0,0.0,0.0,0.0,0.0,0.0,0.0,0.0,0.0,0.0,0.0,0.0,0.0,0.0,0.0,0.0,0.0,0.0,0.0,0.0,0.0,0.0,0.0,0.0,0.0,0.0,0.0,0.0,0.0,0.0,0.0,0.0,0.0,0.0,0.0,0.0,0.0,3.1522,3.1395,3.1373,3.1391,2.9746,2.8673,2.8643,2.826,2.7984,2.7984,2.8164,0.0,0.0,0.0,0.0,0.0,0.0,0.0,0.0,0.0,0.0,0.0,0.0,0.0,0.0,0.0,0.0,0.0,0.0,0.0,0.0,0.0,0.0,0.0,0.0,0.0,0.0,0.0,0.0,0.0,0.0,0.0,0.0,0.0,0.0,0.0,0.0,0.0,0.0,0.0,0.0,0.0,0.0,0.0,0.0,0.0,0.0,0.0,0.0,0.0,0.0,0.0,0.0,0.0,0.0,0.0,0.0,0.0,0.0,0.0,4.4537,4.4202,0.0,0.0,0.0,0.0,0.0,0.0,0.0,0.0,0.0,0.0,0.0,0.0,0.0,0.0,0.0,0.0,0.0,0.0,0.0,0.0,0.0,0.0,0.0,0.0,0.0,0.0,0.0,0.0,0.0,0.0,0.0,0.0,0.0,0.0,0.0,0.0,0.0,0.0,0.0,0.0,3.2216,3.131,3.0733,3.0733,2.9058,2.7984,2.7984,2.7984,2.805,2.8119,2.8216,0.0,0.0,0.0,0.0,0.0,0.0,0.0,0.0,0.0,0.0,0.0,0.0,0.0,0.0,0.0,0.0,0.0,0.0,0.0,0.0,0.0,0.0,0.0,0.0,0.0,0.0,0.0,0.0,0.0,0.0,0.0,0.0,0.0,0.0,0.0,0.0,0.0,0.0,0.0,0.0,0.0,0.0,0.0,0.0,0.0,0.0,0.0,0.0,0.0,0.0,0.0,0.0,0.0,0.0,0.0,0.0,0.0,0.0,0.0,0.0,0.0,0.0,0.0,0.0,0.0,0.0,0.0,0.0,0.0,0.0,0.0,0.0,0.0,0.0,0.0,0.0,0.0,0.0,0.0,0.0,0.0,0.0,0.0,0.0,0.0,0.0,0.0,0.0,0.0,0.0,0.0,0.0,0.0,0.0,0.0,0.0,0.0,0.0,0.0,0.0,0.0,3.2589,3.1437,3.0733,3.0733,2.9058,2.7984,2.7984,2.7984,2.8141,2.85,0.0,0.0,0.0,0.0,0.0,0.0,0.0,0.0,0.0,0.0,0.0,0.0,0.0,0.0,0.0,0.0,0.0,0.0,0.0,0.0,0.0,0.0,0.0,0.0,0.0,0.0,0.0,0.0,0.0,0.0,0.0,0.0,0.0,0.0,0.0,0.0,0.0,0.0,0.0,0.0,0.0,0.0,0.0,0.0,0.0,0.0,0.0,0.0,0.0,0.0,0.0,0.0,0.0,0.0,0.0,0.0,0.0,0.0,0.0,0.0,0.0,0.0,0.0,0.0,0.0,0.0,0.0,0.0,0.0,0.0,0.0,0.0,0.0,0.0,0.0,0.0,0.0,0.0,0.0,0.0,0.0,0.0,0.0,0.0,0.0,0.0,0.0,0.0,0.0,0.0,0.0,0.0,0.0,0.0,0.0,0.0,0.0,0.0,0.0,0.0,0.0,0.0,3.3376,3.1924,3.0885,3.0733,2.9058,2.7984,2.7984,2.7984,2.8164,2.8545,0.0,0.0,0.0,0.0,0.0,0.0,0.0,0.0,0.0,0.0,0.0,0.0,0.0,0.0,0.0,0.0,0.0,0.0,0.0,0.0,0.0,0.0,0.0,0.0,0.0,0.0,0.0,0.0,0.0,0.0,0.0,0.0,0.0,0.0,0.0,0.0,0.0,0.0,0.0,0.0,0.0,0.0,0.0,0.0,0.0,0.0,0.0,0.0,0.0,0.0,0.0,0.0,0.0,0.0,0.0,0.0,0.0,0.0,0.0,0.0,0.0,0.0,0.0,0.0,0.0,0.0,0.0,0.0,0.0,0.0,0.0,0.0,0.0,0.0,0.0,0.0,0.0,0.0,0.0,0.0,0.0,0.0,0.0,0.0,0.0,0.0,0.0,0.0,0.0,0.0,0.0,0.0,0.0,0.0,0.0,0.0,0.0,0.0,0.0,0.0,0.0,0.0,3.3926,3.249,3.1419,3.114,2.9499,2.8389,2.8389,2.8164,2.8209,2.8747,0.0,0.0,0.0,0.0,0.0,0.0,0.0,0.0,0.0,0.0,0.0,0.0,0.0,0.0,0.0,0.0,0.0,0.0,0.0,0.0,0.0,0.0,0.0,0.0,0.0,0.0,0.0,0.0,0.0,0.0,0.0,0.0,0.0,0.0,0.0,0.0,0.0,0.0,0.0,0.0,0.0,0.0,0.0,0.0,0.0,0.0,0.0,0.0,0.0,0.0,0.0,0.0,0.0,0.0,0.0,0.0,0.0,0.0,0.0,0.0,0.0,0.0,0.0,0.0,0.0,0.0,0.0,0.0,0.0,0.0,0.0,0.0,0.0,0.0,0.0,0.0,0.0,0.0,0.0,0.0,0.0,0.0,0.0,0.0,0.0,0.0,0.0,0.0,0.0,0.0,0.0,0.0,0.0,0.0,0.0,0.0,0.0,0.0,0.0,0.0,0.0,0.0,3.4049,3.3097,3.2341,3.2115,3.0435,2.9323,2.9323,2.8523,2.8389,0.0,0.0,0.0,0.0,0.0,0.0,0.0,0.0,0.0,0.0,0.0,0.0,0.0,0.0,0.0,0.0,0.0,0.0,0.0,0.0,0.0,0.0,0.0,0.0,0.0,0.0,0.0,0.0,0.0,0.0,0.0,0.0,0.0,0.0,0.0,0.0,0.0,0.0,0.0,0.0,0.0,0.0,0.0,0.0,0.0,0.0,0.0,0.0,0.0,0.0,0.0,0.0,0.0,0.0,0.0,0.0,0.0,0.0,0.0,0.0,0.0,0.0,0.0,0.0,0.0,0.0,0.0,0.0,0.0,0.0,0.0,0.0,0.0,0.0,0.0,0.0,0.0,0.0,0.0,0.0,0.0,0.0,0.0,0.0,0.0,0.0,0.0,0.0,0.0,0.0,0.0,0.0,0.0,0.0,0.0,0.0,0.0,0.0,0.0,0.0,0.0,0.0,0.0,3.4299,3.3285,3.2523,3.2382,3.1098,3.0283,3.0283,3.0023,2.9956,3.0283,0.0,0.0,0.0,0.0,0.0,0.0,0.0,0.0,0.0,0.0,0.0,0.0,0.0,0.0,0.0,0.0,0.0,0.0,0.0,0.0,0.0,0.0,0.0,0.0,0.0,0.0,0.0,0.0,0.0,0.0,0.0,0.0,0.0,0.0,0.0,0.0,0.0,0.0,0.0,0.0,0.0,0.0,0.0,0.0,0.0,0.0,0.0,0.0,0.0,0.0,0.0,0.0,0.0,0.0,0.0,0.0,0.0,0.0,0.0,0.0,0.0,0.0,0.0,0.0,0.0,0.0,0.0,0.0,0.0,0.0,0.0,0.0,0.0,0.0,0.0,0.0,0.0,0.0,0.0,0.0,0.0,0.0,0.0,0.0,0.0,0.0,0.0,0.0,0.0,0.0,0.0,0.0,0.0,0.0,0.0,0.0,0.0,0.0,0.0,0.0,0.0,0.0,0.0,3.378,3.3203,3.2984,3.2025,3.1352,3.1225,3.0904,3.0818,3.1074,0.0,0.0,0.0,0.0,0.0,0.0,0.0,0.0,0.0,0.0,0.0,0.0,0.0,0.0,0.0,0.0,0.0,0.0,0.0,0.0,0.0,0.0,0.0,0.0,0.0,0.0,0.0,0.0,0.0,0.0,0.0,0.0,0.0,0.0,0.0,0.0,0.0,0.0,0.0,0.0,0.0,0.0,0.0,0.0,0.0,0.0,0.0,0.0,0.0,0.0,0.0,0.0,0.0,0.0,0.0,0.0,0.0,0.0,0.0,0.0,0.0,0.0,0.0,0.0,0.0,0.0,0.0,0.0,0.0,0.0,0.0,0.0,0.0,0.0,0.0,0.0,0.0,0.0,0.0,0.0,0.0,0.0,0.0,0.0,0.0,0.0,0.0,0.0,0.0,0.0,0.0,0.0,0.0,0.0,0.0,0.0,0.0,0.0,0.0,0.0,0.0,0.0,0.0,3.4654,3.4522,3.4224,3.3257,3.2588,3.2297,3.1443,3.1159,3.175,3.1792,0.0,0.0,0.0,0.0,0.0,0.0,0.0,0.0,0.0,0.0,0.0,0.0,0.0,0.0,0.0,0.0,0.0,0.0,0.0,0.0,0.0,0.0,0.0,0.0,0.0,0.0,0.0,0.0,0.0,0.0,0.0,0.0,0.0,0.0,0.0,0.0,0.0,0.0,0.0,0.0,0.0,0.0,0.0,0.0,0.0,0.0,0.0,0.0,0.0,0.0,0.0,0.0,0.0,0.0,0.0,0.0,0.0,0.0,0.0,0.0,0.0,0.0,0.0,0.0,0.0,0.0,0.0,0.0,0.0,0.0,0.0,0.0,0.0,0.0,0.0,0.0,0.0,0.0,0.0,0.0,0.0,0.0,0.0,0.0,0.0,0.0,0.0,0.0,0.0,0.0,0.0,0.0,0.0,0.0,0.0,0.0,0.0,0.0,0.0,0.0,0.0,0.0,3.7054,3.6913,3.7589,3.5971,3.4753,3.4457,3.3443,3.2754,3.2737,3.2737,0.0,0.0,0.0,0.0,0.0,0.0,0.0,0.0,0.0,0.0,0.0,0.0,0.0,0.0,0.0,0.0,0.0,0.0,0.0,0.0,0.0,0.0,0.0,0.0,0.0,0.0,0.0,0.0,0.0,0.0,0.0,0.0,0.0,0.0,0.0,0.0,0.0,0.0,0.0,0.0,0.0,0.0,0.0,0.0,0.0,0.0,0.0,0.0,0.0,0.0,0.0,0.0,0.0,0.0,0.0,0.0,0.0,0.0,0.0,0.0,0.0,0.0,0.0,0.0,0.0,0.0,0.0,0.0,0.0,0.0,0.0,0.0,0.0,0.0,0.0,0.0,0.0,0.0,0.0,0.0,0.0,0.0,0.0,0.0,0.0,0.0,0.0,0.0,0.0,0.0,0.0,0.0,0.0,0.0,0.0,0.0,0.0,0.0,0.0,0.0,0.0,0.0,3.8464,3.8393,3.8994,3.8004,3.6918,3.6086,3.5393,3.4955,3.4772,3.4745,0.0,0.0,0.0,0.0,0.0,0.0,0.0,0.0,0.0,0.0,0.0,0.0,0.0,0.0,0.0,0.0,0.0,0.0,0.0,0.0,0.0,0.0,0.0,0.0,0.0,0.0,0.0,0.0,0.0,0.0,0.0,0.0,0.0,0.0,0.0,0.0,0.0,0.0,0.0,0.0,0.0,0.0,0.0,0.0,0.0,0.0,0.0,0.0,0.0,0.0,0.0,0.0,0.0,0.0,0.0,0.0,0.0,0.0,0.0,0.0,0.0,0.0,0.0,0.0,0.0,0.0,0.0,0.0,0.0,0.0,0.0,0.0,0.0,0.0,0.0,0.0,0.0,0.0,0.0,0.0,0.0,0.0,0.0,0.0,0.0,0.0,0.0,0.0,0.0,0.0,0.0,0.0,0.0,0.0,0.0,0.0,0.0,0.0,0.0,0.0,0.0,0.0,0.0,3.9806,3.9698,3.9725,3.9093,3.7532,3.7249,3.7064,3.6772,0.0,0.0,0.0,0.0,0.0,0.0,0.0,0.0,0.0,0.0,0.0,0.0,0.0,0.0,0.0,0.0,0.0,0.0,0.0,0.0,0.0,0.0,0.0,0.0,0.0,0.0,0.0,0.0,0.0,0.0,0.0,0.0,0.0,0.0,0.0,0.0,0.0,0.0,0.0,0.0,0.0,0.0,0.0,0.0,0.0,0.0,0.0,0.0,0.0,0.0,0.0,0.0,0.0,0.0,0.0,0.0,0.0,0.0,0.0,0.0,0.0,0.0,0.0,0.0,0.0,0.0,0.0,0.0,0.0,0.0,0.0,0.0,0.0,0.0,0.0,0.0,0.0,0.0,0.0,0.0,0.0,0.0,0.0,0.0,0.0,0.0,0.0,0.0,0.0,0.0,0.0,0.0,0.0,0.0,0.0,0.0,0.0,0.0,0.0,0.0,0.0,0.0,0.0,0.0,4.2867,4.1716,4.1795,4.1261,3.971,3.8754,3.7801,3.6808,0.0,0.0,0.0,0.0,0.0,0.0,0.0,0.0,0.0,0.0,0.0,0.0,0.0,0.0]}]]]